<?xml version="1.0" encoding="UTF-8" standalone="no" ?>
<gpx xmlns="http://www.topografix.com/GPX/1/1" xmlns:xsi="http://www.w3.org/2001/XMLSchema-instance" xsi:schemaLocation="http://www.topografix.com/GPX/1/1 http://www.topografix.com/GPX/1/1/gpx.xsd" version="1.1" creator="VisuGPX - https://www.visugpx.com">
  <metadata>
    <name>Le Pla de l\'Arcouade en boucle via le Pla de Castet et les Cabanes de Camoudiet</name>
    <desc><![CDATA[Très belle sortie avec JGN et AdeM.]]></desc>
  </metadata>
  <trk>
    <name><![CDATA[Le Pla de l\'Arcouade en boucle via le Pla de Castet et les Cabanes de Camoudiet_1]]></name>
    <trkseg>
      <trkpt lat="42.9422" lon="0.2798">
        <ele>1139.3</ele>
        <time>2014-03-28T09:06:37Z</time>
      </trkpt>
      <trkpt lat="42.94228" lon="0.27986">
        <ele>1139.3</ele>
        <time>2014-03-28T09:06:42Z</time>
      </trkpt>
      <trkpt lat="42.94228" lon="0.27986">
        <ele>1139.3</ele>
        <time>2014-03-28T09:06:47Z</time>
      </trkpt>
      <trkpt lat="42.94238" lon="0.28012">
        <ele>1047.2289890512</ele>
        <time>2014-03-28T09:06:57Z</time>
      </trkpt>
      <trkpt lat="42.94228" lon="0.28003">
        <ele>1066.4237619986</ele>
        <time>2014-03-28T09:07:02Z</time>
      </trkpt>
      <trkpt lat="42.94224" lon="0.2799">
        <ele>1081.672805952</ele>
        <time>2014-03-28T09:07:22Z</time>
      </trkpt>
      <trkpt lat="42.94221" lon="0.27985">
        <ele>1081.672805952</ele>
        <time>2014-03-28T09:07:27Z</time>
      </trkpt>
      <trkpt lat="42.9422" lon="0.27978">
        <ele>1092.0017435903</ele>
        <time>2014-03-28T09:07:32Z</time>
      </trkpt>
      <trkpt lat="42.94222" lon="0.27978">
        <ele>1092.0017435903</ele>
        <time>2014-03-28T09:07:37Z</time>
      </trkpt>
      <trkpt lat="42.9422" lon="0.27974">
        <ele>1092.0017435903</ele>
        <time>2014-03-28T09:08:38Z</time>
      </trkpt>
      <trkpt lat="42.94218" lon="0.27968">
        <ele>1100.5130509367</ele>
        <time>2014-03-28T09:08:43Z</time>
      </trkpt>
      <trkpt lat="42.94219" lon="0.27959">
        <ele>1100.5130509367</ele>
        <time>2014-03-28T09:08:48Z</time>
      </trkpt>
      <trkpt lat="42.94218" lon="0.27951">
        <ele>1107.927865206</ele>
        <time>2014-03-28T09:08:53Z</time>
      </trkpt>
      <trkpt lat="42.94217" lon="0.27947">
        <ele>1107.927865206</ele>
        <time>2014-03-28T09:08:58Z</time>
      </trkpt>
      <trkpt lat="42.94217" lon="0.27939">
        <ele>1107.927865206</ele>
        <time>2014-03-28T09:09:03Z</time>
      </trkpt>
      <trkpt lat="42.94216" lon="0.27934">
        <ele>1114.1104267268</ele>
        <time>2014-03-28T09:09:07Z</time>
      </trkpt>
      <trkpt lat="42.94217" lon="0.27927">
        <ele>1114.1104267268</ele>
        <time>2014-03-28T09:09:13Z</time>
      </trkpt>
      <trkpt lat="42.94219" lon="0.27921">
        <ele>1119.3330594369</ele>
        <time>2014-03-28T09:09:18Z</time>
      </trkpt>
      <trkpt lat="42.94219" lon="0.27917">
        <ele>1119.3330594369</ele>
        <time>2014-03-28T09:09:23Z</time>
      </trkpt>
      <trkpt lat="42.94222" lon="0.27905">
        <ele>1123.4926810812</ele>
        <time>2014-03-28T09:09:28Z</time>
      </trkpt>
      <trkpt lat="42.94222" lon="0.279">
        <ele>1123.4926810812</ele>
        <time>2014-03-28T09:09:33Z</time>
      </trkpt>
      <trkpt lat="42.94216" lon="0.27896">
        <ele>1126.756473328</ele>
        <time>2014-03-28T09:09:37Z</time>
      </trkpt>
      <trkpt lat="42.94214" lon="0.2789">
        <ele>1126.756473328</ele>
        <time>2014-03-28T09:09:43Z</time>
      </trkpt>
      <trkpt lat="42.94211" lon="0.27887">
        <ele>1129.0861536624</ele>
        <time>2014-03-28T09:09:48Z</time>
      </trkpt>
      <trkpt lat="42.94208" lon="0.27884">
        <ele>1129.0861536624</ele>
        <time>2014-03-28T09:09:53Z</time>
      </trkpt>
      <trkpt lat="42.94204" lon="0.27883">
        <ele>1129.0861536624</ele>
        <time>2014-03-28T09:09:58Z</time>
      </trkpt>
      <trkpt lat="42.94202" lon="0.2788">
        <ele>1130.5098112146</ele>
        <time>2014-03-28T09:10:02Z</time>
      </trkpt>
      <trkpt lat="42.94201" lon="0.27876">
        <ele>1130.5098112146</ele>
        <time>2014-03-28T09:10:08Z</time>
      </trkpt>
      <trkpt lat="42.94199" lon="0.2787">
        <ele>1130.5098112146</ele>
        <time>2014-03-28T09:10:13Z</time>
      </trkpt>
      <trkpt lat="42.94193" lon="0.27865">
        <ele>1131.1893885676</ele>
        <time>2014-03-28T09:10:18Z</time>
      </trkpt>
      <trkpt lat="42.94192" lon="0.27864">
        <ele>1131.1893885676</ele>
        <time>2014-03-28T09:10:23Z</time>
      </trkpt>
      <trkpt lat="42.94184" lon="0.27861">
        <ele>1131.2790667572</ele>
        <time>2014-03-28T09:10:28Z</time>
      </trkpt>
      <trkpt lat="42.94181" lon="0.27858">
        <ele>1131.2790667572</ele>
        <time>2014-03-28T09:10:33Z</time>
      </trkpt>
      <trkpt lat="42.94178" lon="0.27854">
        <ele>1131.2790667572</ele>
        <time>2014-03-28T09:10:37Z</time>
      </trkpt>
      <trkpt lat="42.94174" lon="0.27853">
        <ele>1130.9452624746</ele>
        <time>2014-03-28T09:10:43Z</time>
      </trkpt>
      <trkpt lat="42.94169" lon="0.27851">
        <ele>1130.9452624746</ele>
        <time>2014-03-28T09:10:47Z</time>
      </trkpt>
      <trkpt lat="42.94165" lon="0.27846">
        <ele>1130.3706627917</ele>
        <time>2014-03-28T09:10:53Z</time>
      </trkpt>
      <trkpt lat="42.94161" lon="0.27845">
        <ele>1130.3706627917</ele>
        <time>2014-03-28T09:10:58Z</time>
      </trkpt>
      <trkpt lat="42.94157" lon="0.27841">
        <ele>1129.6298582599</ele>
        <time>2014-03-28T09:11:03Z</time>
      </trkpt>
      <trkpt lat="42.94155" lon="0.27838">
        <ele>1129.6298582599</ele>
        <time>2014-03-28T09:11:08Z</time>
      </trkpt>
      <trkpt lat="42.94149" lon="0.27834">
        <ele>1128.7796365147</ele>
        <time>2014-03-28T09:11:12Z</time>
      </trkpt>
      <trkpt lat="42.94146" lon="0.27831">
        <ele>1128.7796365147</ele>
        <time>2014-03-28T09:11:17Z</time>
      </trkpt>
      <trkpt lat="42.9414" lon="0.27825">
        <ele>1127.9081605187</ele>
        <time>2014-03-28T09:11:23Z</time>
      </trkpt>
      <trkpt lat="42.94138" lon="0.27821">
        <ele>1127.9081605187</ele>
        <time>2014-03-28T09:11:28Z</time>
      </trkpt>
      <trkpt lat="42.94135" lon="0.27817">
        <ele>1127.9081605187</ele>
        <time>2014-03-28T09:11:33Z</time>
      </trkpt>
      <trkpt lat="42.94129" lon="0.27808">
        <ele>1127.1146703449</ele>
        <time>2014-03-28T09:11:38Z</time>
      </trkpt>
      <trkpt lat="42.94128" lon="0.27804">
        <ele>1127.1146703449</ele>
        <time>2014-03-28T09:11:43Z</time>
      </trkpt>
      <trkpt lat="42.94127" lon="0.27796">
        <ele>1126.3226543362</ele>
        <time>2014-03-28T09:11:48Z</time>
      </trkpt>
      <trkpt lat="42.94127" lon="0.27791">
        <ele>1126.3226543362</ele>
        <time>2014-03-28T09:11:52Z</time>
      </trkpt>
      <trkpt lat="42.94123" lon="0.27784">
        <ele>1125.5653294381</ele>
        <time>2014-03-28T09:11:58Z</time>
      </trkpt>
      <trkpt lat="42.94115" lon="0.27783">
        <ele>1125.5653294381</ele>
        <time>2014-03-28T09:12:02Z</time>
      </trkpt>
      <trkpt lat="42.94112" lon="0.2778">
        <ele>1124.8362265473</ele>
        <time>2014-03-28T09:12:08Z</time>
      </trkpt>
      <trkpt lat="42.94111" lon="0.27773">
        <ele>1124.8362265473</ele>
        <time>2014-03-28T09:12:13Z</time>
      </trkpt>
      <trkpt lat="42.94111" lon="0.27765">
        <ele>1124.1696748298</ele>
        <time>2014-03-28T09:12:17Z</time>
      </trkpt>
      <trkpt lat="42.94111" lon="0.27758">
        <ele>1124.1696748298</ele>
        <time>2014-03-28T09:12:23Z</time>
      </trkpt>
      <trkpt lat="42.94112" lon="0.27754">
        <ele>1124.1696748298</ele>
        <time>2014-03-28T09:12:28Z</time>
      </trkpt>
      <trkpt lat="42.94108" lon="0.27747">
        <ele>1123.5632519398</ele>
        <time>2014-03-28T09:12:33Z</time>
      </trkpt>
      <trkpt lat="42.94106" lon="0.27741">
        <ele>1123.5632519398</ele>
        <time>2014-03-28T09:12:38Z</time>
      </trkpt>
      <trkpt lat="42.94104" lon="0.27734">
        <ele>1123.113130672</ele>
        <time>2014-03-28T09:12:43Z</time>
      </trkpt>
      <trkpt lat="42.94103" lon="0.27726">
        <ele>1123.113130672</ele>
        <time>2014-03-28T09:12:47Z</time>
      </trkpt>
      <trkpt lat="42.94103" lon="0.27723">
        <ele>1123.113130672</ele>
        <time>2014-03-28T09:12:53Z</time>
      </trkpt>
      <trkpt lat="42.94099" lon="0.27711">
        <ele>1122.8033214507</ele>
        <time>2014-03-28T09:13:02Z</time>
      </trkpt>
      <trkpt lat="42.94098" lon="0.27709">
        <ele>1122.8033214507</ele>
        <time>2014-03-28T09:13:07Z</time>
      </trkpt>
      <trkpt lat="42.94096" lon="0.27695">
        <ele>1122.5906848654</ele>
        <time>2014-03-28T09:13:18Z</time>
      </trkpt>
      <trkpt lat="42.94093" lon="0.27681">
        <ele>1122.3802923416</ele>
        <time>2014-03-28T09:13:27Z</time>
      </trkpt>
      <trkpt lat="42.94093" lon="0.27674">
        <ele>1122.3802923416</ele>
        <time>2014-03-28T09:13:33Z</time>
      </trkpt>
      <trkpt lat="42.94092" lon="0.27667">
        <ele>1122.1839084852</ele>
        <time>2014-03-28T09:13:38Z</time>
      </trkpt>
      <trkpt lat="42.94091" lon="0.27664">
        <ele>1122.1839084852</ele>
        <time>2014-03-28T09:13:43Z</time>
      </trkpt>
      <trkpt lat="42.94087" lon="0.27657">
        <ele>1122.1839084852</ele>
        <time>2014-03-28T09:13:48Z</time>
      </trkpt>
      <trkpt lat="42.94087" lon="0.27651">
        <ele>1121.87363606</ele>
        <time>2014-03-28T09:13:53Z</time>
      </trkpt>
      <trkpt lat="42.94088" lon="0.27644">
        <ele>1121.87363606</ele>
        <time>2014-03-28T09:13:57Z</time>
      </trkpt>
      <trkpt lat="42.94086" lon="0.27638">
        <ele>1121.5266328323</ele>
        <time>2014-03-28T09:14:03Z</time>
      </trkpt>
      <trkpt lat="42.94086" lon="0.27635">
        <ele>1121.5266328323</ele>
        <time>2014-03-28T09:14:08Z</time>
      </trkpt>
      <trkpt lat="42.94087" lon="0.27625">
        <ele>1121.1038249609</ele>
        <time>2014-03-28T09:14:13Z</time>
      </trkpt>
      <trkpt lat="42.94086" lon="0.2762">
        <ele>1121.1038249609</ele>
        <time>2014-03-28T09:14:18Z</time>
      </trkpt>
      <trkpt lat="42.94084" lon="0.27611">
        <ele>1120.6949137656</ele>
        <time>2014-03-28T09:14:23Z</time>
      </trkpt>
      <trkpt lat="42.94084" lon="0.27606">
        <ele>1120.6949137656</ele>
        <time>2014-03-28T09:14:28Z</time>
      </trkpt>
      <trkpt lat="42.94082" lon="0.27599">
        <ele>1120.6949137656</ele>
        <time>2014-03-28T09:14:33Z</time>
      </trkpt>
      <trkpt lat="42.94082" lon="0.27595">
        <ele>1120.3710344463</ele>
        <time>2014-03-28T09:14:38Z</time>
      </trkpt>
      <trkpt lat="42.94081" lon="0.27587">
        <ele>1120.3710344463</ele>
        <time>2014-03-28T09:14:42Z</time>
      </trkpt>
      <trkpt lat="42.9408" lon="0.2758">
        <ele>1120.0041706858</ele>
        <time>2014-03-28T09:14:48Z</time>
      </trkpt>
      <trkpt lat="42.94079" lon="0.27572">
        <ele>1120.0041706858</ele>
        <time>2014-03-28T09:14:52Z</time>
      </trkpt>
      <trkpt lat="42.94079" lon="0.27567">
        <ele>1119.6437556494</ele>
        <time>2014-03-28T09:14:58Z</time>
      </trkpt>
      <trkpt lat="42.9408" lon="0.2756">
        <ele>1119.6437556494</ele>
        <time>2014-03-28T09:15:03Z</time>
      </trkpt>
      <trkpt lat="42.94082" lon="0.27556">
        <ele>1119.6437556494</ele>
        <time>2014-03-28T09:15:08Z</time>
      </trkpt>
      <trkpt lat="42.94085" lon="0.27545">
        <ele>1119.3091735183</ele>
        <time>2014-03-28T09:15:12Z</time>
      </trkpt>
      <trkpt lat="42.94084" lon="0.2754">
        <ele>1119.3091735183</ele>
        <time>2014-03-28T09:15:17Z</time>
      </trkpt>
      <trkpt lat="42.94084" lon="0.27531">
        <ele>1119.0909256425</ele>
        <time>2014-03-28T09:15:23Z</time>
      </trkpt>
      <trkpt lat="42.94085" lon="0.27529">
        <ele>1119.0909256425</ele>
        <time>2014-03-28T09:15:28Z</time>
      </trkpt>
      <trkpt lat="42.94083" lon="0.27513">
        <ele>1119.0321336868</ele>
        <time>2014-03-28T09:15:38Z</time>
      </trkpt>
      <trkpt lat="42.94081" lon="0.27506">
        <ele>1119.0321336868</ele>
        <time>2014-03-28T09:15:43Z</time>
      </trkpt>
      <trkpt lat="42.94081" lon="0.27499">
        <ele>1119.0722374393</ele>
        <time>2014-03-28T09:15:48Z</time>
      </trkpt>
      <trkpt lat="42.94081" lon="0.27493">
        <ele>1119.0722374393</ele>
        <time>2014-03-28T09:15:53Z</time>
      </trkpt>
      <trkpt lat="42.9408" lon="0.27489">
        <ele>1119.0722374393</ele>
        <time>2014-03-28T09:15:58Z</time>
      </trkpt>
      <trkpt lat="42.94081" lon="0.27483">
        <ele>1119.2990629932</ele>
        <time>2014-03-28T09:16:02Z</time>
      </trkpt>
      <trkpt lat="42.94083" lon="0.27478">
        <ele>1119.2990629932</ele>
        <time>2014-03-28T09:16:08Z</time>
      </trkpt>
      <trkpt lat="42.94081" lon="0.2747">
        <ele>1119.5896792899</ele>
        <time>2014-03-28T09:16:13Z</time>
      </trkpt>
      <trkpt lat="42.94083" lon="0.27465">
        <ele>1119.5896792899</ele>
        <time>2014-03-28T09:16:17Z</time>
      </trkpt>
      <trkpt lat="42.9408" lon="0.27457">
        <ele>1119.8712962616</ele>
        <time>2014-03-28T09:16:23Z</time>
      </trkpt>
      <trkpt lat="42.94079" lon="0.27453">
        <ele>1119.8712962616</ele>
        <time>2014-03-28T09:16:27Z</time>
      </trkpt>
      <trkpt lat="42.94081" lon="0.27447">
        <ele>1119.8712962616</ele>
        <time>2014-03-28T09:16:33Z</time>
      </trkpt>
      <trkpt lat="42.94082" lon="0.27443">
        <ele>1120.2528363438</ele>
        <time>2014-03-28T09:16:37Z</time>
      </trkpt>
      <trkpt lat="42.94087" lon="0.27438">
        <ele>1120.2528363438</ele>
        <time>2014-03-28T09:16:43Z</time>
      </trkpt>
      <trkpt lat="42.9409" lon="0.27438">
        <ele>1120.2528363438</ele>
        <time>2014-03-28T09:16:48Z</time>
      </trkpt>
      <trkpt lat="42.94093" lon="0.27428">
        <ele>1120.7765509845</ele>
        <time>2014-03-28T09:16:53Z</time>
      </trkpt>
      <trkpt lat="42.94091" lon="0.2742">
        <ele>1120.7765509845</ele>
        <time>2014-03-28T09:16:58Z</time>
      </trkpt>
      <trkpt lat="42.94091" lon="0.27413">
        <ele>1121.2715848349</ele>
        <time>2014-03-28T09:17:02Z</time>
      </trkpt>
      <trkpt lat="42.94087" lon="0.27407">
        <ele>1121.2715848349</ele>
        <time>2014-03-28T09:17:08Z</time>
      </trkpt>
      <trkpt lat="42.94081" lon="0.27395">
        <ele>1121.1274132995</ele>
        <time>2014-03-28T09:17:12Z</time>
      </trkpt>
      <trkpt lat="42.9408" lon="0.27388">
        <ele>1121.1274132995</ele>
        <time>2014-03-28T09:17:18Z</time>
      </trkpt>
      <trkpt lat="42.94082" lon="0.27385">
        <ele>1121.1274132995</ele>
        <time>2014-03-28T09:17:23Z</time>
      </trkpt>
      <trkpt lat="42.94082" lon="0.2738">
        <ele>1120.8299404787</ele>
        <time>2014-03-28T09:17:28Z</time>
      </trkpt>
      <trkpt lat="42.94084" lon="0.27374">
        <ele>1120.8299404787</ele>
        <time>2014-03-28T09:17:32Z</time>
      </trkpt>
      <trkpt lat="42.94084" lon="0.27368">
        <ele>1120.4863219587</ele>
        <time>2014-03-28T09:17:38Z</time>
      </trkpt>
      <trkpt lat="42.94083" lon="0.27365">
        <ele>1120.4863219587</ele>
        <time>2014-03-28T09:17:43Z</time>
      </trkpt>
      <trkpt lat="42.94081" lon="0.27358">
        <ele>1120.4863219587</ele>
        <time>2014-03-28T09:17:48Z</time>
      </trkpt>
      <trkpt lat="42.9408" lon="0.27356">
        <ele>1120.2413794627</ele>
        <time>2014-03-28T09:17:53Z</time>
      </trkpt>
      <trkpt lat="42.94079" lon="0.27348">
        <ele>1120.2413794627</ele>
        <time>2014-03-28T09:17:58Z</time>
      </trkpt>
      <trkpt lat="42.94079" lon="0.27345">
        <ele>1120.2413794627</ele>
        <time>2014-03-28T09:18:03Z</time>
      </trkpt>
      <trkpt lat="42.94079" lon="0.27344">
        <ele>1120.2413794627</ele>
        <time>2014-03-28T09:18:08Z</time>
      </trkpt>
      <trkpt lat="42.94075" lon="0.27337">
        <ele>1119.5642289464</ele>
        <time>2014-03-28T09:19:07Z</time>
      </trkpt>
      <trkpt lat="42.94071" lon="0.27333">
        <ele>1119.5642289464</ele>
        <time>2014-03-28T09:19:13Z</time>
      </trkpt>
      <trkpt lat="42.9407" lon="0.2733">
        <ele>1119.5642289464</ele>
        <time>2014-03-28T09:19:18Z</time>
      </trkpt>
      <trkpt lat="42.94067" lon="0.27324">
        <ele>1118.8110413642</ele>
        <time>2014-03-28T09:19:23Z</time>
      </trkpt>
      <trkpt lat="42.94064" lon="0.27321">
        <ele>1118.8110413642</ele>
        <time>2014-03-28T09:19:28Z</time>
      </trkpt>
      <trkpt lat="42.9406" lon="0.27317">
        <ele>1118.8110413642</ele>
        <time>2014-03-28T09:19:32Z</time>
      </trkpt>
      <trkpt lat="42.94056" lon="0.27314">
        <ele>1118.0542206429</ele>
        <time>2014-03-28T09:19:38Z</time>
      </trkpt>
      <trkpt lat="42.94052" lon="0.27312">
        <ele>1118.0542206429</ele>
        <time>2014-03-28T09:19:43Z</time>
      </trkpt>
      <trkpt lat="42.94046" lon="0.27312">
        <ele>1117.3149012182</ele>
        <time>2014-03-28T09:19:48Z</time>
      </trkpt>
      <trkpt lat="42.94043" lon="0.27314">
        <ele>1117.3149012182</ele>
        <time>2014-03-28T09:19:53Z</time>
      </trkpt>
      <trkpt lat="42.9404" lon="0.27312">
        <ele>1117.3149012182</ele>
        <time>2014-03-28T09:19:58Z</time>
      </trkpt>
      <trkpt lat="42.94036" lon="0.2731">
        <ele>1116.6421900034</ele>
        <time>2014-03-28T09:20:02Z</time>
      </trkpt>
      <trkpt lat="42.94033" lon="0.27305">
        <ele>1116.6421900034</ele>
        <time>2014-03-28T09:20:07Z</time>
      </trkpt>
      <trkpt lat="42.9403" lon="0.27301">
        <ele>1116.6421900034</ele>
        <time>2014-03-28T09:20:15Z</time>
      </trkpt>
      <trkpt lat="42.94028" lon="0.27297">
        <ele>1116.0956221351</ele>
        <time>2014-03-28T09:20:17Z</time>
      </trkpt>
      <trkpt lat="42.94027" lon="0.27291">
        <ele>1116.0956221351</ele>
        <time>2014-03-28T09:20:23Z</time>
      </trkpt>
      <trkpt lat="42.94025" lon="0.27286">
        <ele>1116.0956221351</ele>
        <time>2014-03-28T09:20:28Z</time>
      </trkpt>
      <trkpt lat="42.94022" lon="0.27284">
        <ele>1115.8640252247</ele>
        <time>2014-03-28T09:20:33Z</time>
      </trkpt>
      <trkpt lat="42.94017" lon="0.27283">
        <ele>1115.8640252247</ele>
        <time>2014-03-28T09:20:37Z</time>
      </trkpt>
      <trkpt lat="42.94013" lon="0.27282">
        <ele>1115.8640252247</ele>
        <time>2014-03-28T09:20:43Z</time>
      </trkpt>
      <trkpt lat="42.94009" lon="0.27282">
        <ele>1115.8796961521</ele>
        <time>2014-03-28T09:20:48Z</time>
      </trkpt>
      <trkpt lat="42.94005" lon="0.2728">
        <ele>1115.8796961521</ele>
        <time>2014-03-28T09:20:53Z</time>
      </trkpt>
      <trkpt lat="42.93997" lon="0.27278">
        <ele>1116.2139204431</ele>
        <time>2014-03-28T09:20:58Z</time>
      </trkpt>
      <trkpt lat="42.93992" lon="0.27278">
        <ele>1116.2139204431</ele>
        <time>2014-03-28T09:21:02Z</time>
      </trkpt>
      <trkpt lat="42.93988" lon="0.27278">
        <ele>1116.2139204431</ele>
        <time>2014-03-28T09:21:08Z</time>
      </trkpt>
      <trkpt lat="42.93985" lon="0.27275">
        <ele>1116.7670031841</ele>
        <time>2014-03-28T09:21:13Z</time>
      </trkpt>
      <trkpt lat="42.93983" lon="0.27272">
        <ele>1116.7670031841</ele>
        <time>2014-03-28T09:21:18Z</time>
      </trkpt>
      <trkpt lat="42.9398" lon="0.27271">
        <ele>1116.7670031841</ele>
        <time>2014-03-28T09:21:23Z</time>
      </trkpt>
      <trkpt lat="42.93977" lon="0.27271">
        <ele>1116.7670031841</ele>
        <time>2014-03-28T09:21:28Z</time>
      </trkpt>
      <trkpt lat="42.93974" lon="0.27272">
        <ele>1117.5657521195</ele>
        <time>2014-03-28T09:21:33Z</time>
      </trkpt>
      <trkpt lat="42.93971" lon="0.27273">
        <ele>1117.5657521195</ele>
        <time>2014-03-28T09:21:38Z</time>
      </trkpt>
      <trkpt lat="42.9397" lon="0.27274">
        <ele>1117.5657521195</ele>
        <time>2014-03-28T09:21:42Z</time>
      </trkpt>
      <trkpt lat="42.93966" lon="0.27272">
        <ele>1117.5657521195</ele>
        <time>2014-03-28T09:21:48Z</time>
      </trkpt>
      <trkpt lat="42.93962" lon="0.27268">
        <ele>1118.4264934095</ele>
        <time>2014-03-28T09:21:53Z</time>
      </trkpt>
      <trkpt lat="42.93957" lon="0.27266">
        <ele>1118.4264934095</ele>
        <time>2014-03-28T09:21:57Z</time>
      </trkpt>
      <trkpt lat="42.93955" lon="0.27265">
        <ele>1118.4264934095</ele>
        <time>2014-03-28T09:22:03Z</time>
      </trkpt>
      <trkpt lat="42.93952" lon="0.27261">
        <ele>1119.2990757494</ele>
        <time>2014-03-28T09:22:08Z</time>
      </trkpt>
      <trkpt lat="42.93949" lon="0.27262">
        <ele>1119.2990757494</ele>
        <time>2014-03-28T09:22:13Z</time>
      </trkpt>
      <trkpt lat="42.93945" lon="0.27263">
        <ele>1119.2990757494</ele>
        <time>2014-03-28T09:22:17Z</time>
      </trkpt>
      <trkpt lat="42.93941" lon="0.27262">
        <ele>1120.2112390017</ele>
        <time>2014-03-28T09:22:23Z</time>
      </trkpt>
      <trkpt lat="42.9394" lon="0.27261">
        <ele>1120.2112390017</ele>
        <time>2014-03-28T09:22:28Z</time>
      </trkpt>
      <trkpt lat="42.93936" lon="0.2726">
        <ele>1120.2112390017</ele>
        <time>2014-03-28T09:22:33Z</time>
      </trkpt>
      <trkpt lat="42.93932" lon="0.27261">
        <ele>1121.217706411</ele>
        <time>2014-03-28T09:22:38Z</time>
      </trkpt>
      <trkpt lat="42.93928" lon="0.27264">
        <ele>1121.217706411</ele>
        <time>2014-03-28T09:22:42Z</time>
      </trkpt>
      <trkpt lat="42.93924" lon="0.27263">
        <ele>1121.217706411</ele>
        <time>2014-03-28T09:22:48Z</time>
      </trkpt>
      <trkpt lat="42.9392" lon="0.27262">
        <ele>1122.4124352293</ele>
        <time>2014-03-28T09:22:53Z</time>
      </trkpt>
      <trkpt lat="42.93916" lon="0.27257">
        <ele>1122.4124352293</ele>
        <time>2014-03-28T09:22:58Z</time>
      </trkpt>
      <trkpt lat="42.93913" lon="0.27262">
        <ele>1123.5589209571</ele>
        <time>2014-03-28T09:23:03Z</time>
      </trkpt>
      <trkpt lat="42.9391" lon="0.2726">
        <ele>1123.5589209571</ele>
        <time>2014-03-28T09:23:08Z</time>
      </trkpt>
      <trkpt lat="42.93904" lon="0.27252">
        <ele>1124.8640645837</ele>
        <time>2014-03-28T09:23:12Z</time>
      </trkpt>
      <trkpt lat="42.939" lon="0.27247">
        <ele>1124.8640645837</ele>
        <time>2014-03-28T09:23:18Z</time>
      </trkpt>
      <trkpt lat="42.93895" lon="0.27244">
        <ele>1126.2840748142</ele>
        <time>2014-03-28T09:23:23Z</time>
      </trkpt>
      <trkpt lat="42.9389" lon="0.27244">
        <ele>1126.2840748142</ele>
        <time>2014-03-28T09:23:28Z</time>
      </trkpt>
      <trkpt lat="42.93887" lon="0.27245">
        <ele>1126.2840748142</ele>
        <time>2014-03-28T09:23:33Z</time>
      </trkpt>
      <trkpt lat="42.93883" lon="0.27242">
        <ele>1127.8949432833</ele>
        <time>2014-03-28T09:23:38Z</time>
      </trkpt>
      <trkpt lat="42.93881" lon="0.2724">
        <ele>1127.8949432833</ele>
        <time>2014-03-28T09:23:43Z</time>
      </trkpt>
      <trkpt lat="42.93877" lon="0.27238">
        <ele>1127.8949432833</ele>
        <time>2014-03-28T09:23:48Z</time>
      </trkpt>
      <trkpt lat="42.93871" lon="0.2724">
        <ele>1129.664322995</ele>
        <time>2014-03-28T09:23:53Z</time>
      </trkpt>
      <trkpt lat="42.93868" lon="0.2724">
        <ele>1129.664322995</ele>
        <time>2014-03-28T09:23:58Z</time>
      </trkpt>
      <trkpt lat="42.93862" lon="0.2724">
        <ele>1129.664322995</ele>
        <time>2014-03-28T09:24:02Z</time>
      </trkpt>
      <trkpt lat="42.93858" lon="0.27237">
        <ele>1131.4023287587</ele>
        <time>2014-03-28T09:24:07Z</time>
      </trkpt>
      <trkpt lat="42.93853" lon="0.27234">
        <ele>1131.4023287587</ele>
        <time>2014-03-28T09:24:12Z</time>
      </trkpt>
      <trkpt lat="42.93849" lon="0.2723">
        <ele>1133.021124893</ele>
        <time>2014-03-28T09:24:18Z</time>
      </trkpt>
      <trkpt lat="42.93847" lon="0.27229">
        <ele>1133.021124893</ele>
        <time>2014-03-28T09:24:23Z</time>
      </trkpt>
      <trkpt lat="42.93843" lon="0.27227">
        <ele>1133.021124893</ele>
        <time>2014-03-28T09:24:28Z</time>
      </trkpt>
      <trkpt lat="42.9384" lon="0.27225">
        <ele>1134.6717785199</ele>
        <time>2014-03-28T09:24:33Z</time>
      </trkpt>
      <trkpt lat="42.93836" lon="0.27224">
        <ele>1134.6717785199</ele>
        <time>2014-03-28T09:24:38Z</time>
      </trkpt>
      <trkpt lat="42.9383" lon="0.2722">
        <ele>1136.3198273828</ele>
        <time>2014-03-28T09:24:43Z</time>
      </trkpt>
      <trkpt lat="42.93827" lon="0.27219">
        <ele>1136.3198273828</ele>
        <time>2014-03-28T09:24:47Z</time>
      </trkpt>
      <trkpt lat="42.93822" lon="0.27217">
        <ele>1136.3198273828</ele>
        <time>2014-03-28T09:24:53Z</time>
      </trkpt>
      <trkpt lat="42.93818" lon="0.27214">
        <ele>1137.9045354812</ele>
        <time>2014-03-28T09:24:58Z</time>
      </trkpt>
      <trkpt lat="42.93813" lon="0.27208">
        <ele>1137.9045354812</ele>
        <time>2014-03-28T09:25:03Z</time>
      </trkpt>
      <trkpt lat="42.93811" lon="0.27206">
        <ele>1139.4422123321</ele>
        <time>2014-03-28T09:25:08Z</time>
      </trkpt>
      <trkpt lat="42.93806" lon="0.27203">
        <ele>1139.4422123321</ele>
        <time>2014-03-28T09:25:12Z</time>
      </trkpt>
      <trkpt lat="42.93804" lon="0.27196">
        <ele>1140.9191464618</ele>
        <time>2014-03-28T09:25:18Z</time>
      </trkpt>
      <trkpt lat="42.938" lon="0.27193">
        <ele>1140.9191464618</ele>
        <time>2014-03-28T09:25:22Z</time>
      </trkpt>
      <trkpt lat="42.93797" lon="0.27189">
        <ele>1140.9191464618</ele>
        <time>2014-03-28T09:25:28Z</time>
      </trkpt>
      <trkpt lat="42.93795" lon="0.27187">
        <ele>1142.3372524345</ele>
        <time>2014-03-28T09:25:33Z</time>
      </trkpt>
      <trkpt lat="42.93793" lon="0.27184">
        <ele>1142.3372524345</ele>
        <time>2014-03-28T09:25:38Z</time>
      </trkpt>
      <trkpt lat="42.9379" lon="0.27179">
        <ele>1142.3372524345</ele>
        <time>2014-03-28T09:25:42Z</time>
      </trkpt>
      <trkpt lat="42.93786" lon="0.27176">
        <ele>1143.8860527237</ele>
        <time>2014-03-28T09:25:48Z</time>
      </trkpt>
      <trkpt lat="42.93782" lon="0.27171">
        <ele>1143.8860527237</ele>
        <time>2014-03-28T09:25:52Z</time>
      </trkpt>
      <trkpt lat="42.93777" lon="0.27167">
        <ele>1145.4376338265</ele>
        <time>2014-03-28T09:25:58Z</time>
      </trkpt>
      <trkpt lat="42.93772" lon="0.27163">
        <ele>1145.4376338265</ele>
        <time>2014-03-28T09:26:03Z</time>
      </trkpt>
      <trkpt lat="42.9377" lon="0.2716">
        <ele>1145.4376338265</ele>
        <time>2014-03-28T09:26:08Z</time>
      </trkpt>
      <trkpt lat="42.93766" lon="0.27154">
        <ele>1146.9746169655</ele>
        <time>2014-03-28T09:26:13Z</time>
      </trkpt>
      <trkpt lat="42.93764" lon="0.2715">
        <ele>1146.9746169655</ele>
        <time>2014-03-28T09:26:18Z</time>
      </trkpt>
      <trkpt lat="42.93759" lon="0.27147">
        <ele>1148.4809940646</ele>
        <time>2014-03-28T09:26:23Z</time>
      </trkpt>
      <trkpt lat="42.93753" lon="0.2714">
        <ele>1148.4809940646</ele>
        <time>2014-03-28T09:26:28Z</time>
      </trkpt>
      <trkpt lat="42.93749" lon="0.27136">
        <ele>1150.0862582877</ele>
        <time>2014-03-28T09:26:33Z</time>
      </trkpt>
      <trkpt lat="42.93744" lon="0.27127">
        <ele>1150.0862582877</ele>
        <time>2014-03-28T09:26:38Z</time>
      </trkpt>
      <trkpt lat="42.93742" lon="0.27123">
        <ele>1151.7947873675</ele>
        <time>2014-03-28T09:26:42Z</time>
      </trkpt>
      <trkpt lat="42.93739" lon="0.27116">
        <ele>1151.7947873675</ele>
        <time>2014-03-28T09:26:48Z</time>
      </trkpt>
      <trkpt lat="42.93737" lon="0.27113">
        <ele>1153.3653252506</ele>
        <time>2014-03-28T09:26:52Z</time>
      </trkpt>
      <trkpt lat="42.93732" lon="0.27102">
        <ele>1154.7334014402</ele>
        <time>2014-03-28T09:26:58Z</time>
      </trkpt>
      <trkpt lat="42.9373" lon="0.27097">
        <ele>1154.7334014402</ele>
        <time>2014-03-28T09:27:03Z</time>
      </trkpt>
      <trkpt lat="42.93725" lon="0.27091">
        <ele>1156.1715179291</ele>
        <time>2014-03-28T09:27:07Z</time>
      </trkpt>
      <trkpt lat="42.93721" lon="0.27086">
        <ele>1156.1715179291</ele>
        <time>2014-03-28T09:27:13Z</time>
      </trkpt>
      <trkpt lat="42.93719" lon="0.2708">
        <ele>1157.7301912541</ele>
        <time>2014-03-28T09:27:18Z</time>
      </trkpt>
      <trkpt lat="42.93717" lon="0.27074">
        <ele>1157.7301912541</ele>
        <time>2014-03-28T09:27:22Z</time>
      </trkpt>
      <trkpt lat="42.93713" lon="0.27069">
        <ele>1159.2252642456</ele>
        <time>2014-03-28T09:27:28Z</time>
      </trkpt>
      <trkpt lat="42.93709" lon="0.27064">
        <ele>1159.2252642456</ele>
        <time>2014-03-28T09:27:33Z</time>
      </trkpt>
      <trkpt lat="42.93706" lon="0.27057">
        <ele>1160.6017006073</ele>
        <time>2014-03-28T09:27:37Z</time>
      </trkpt>
      <trkpt lat="42.93703" lon="0.27047">
        <ele>1160.6017006073</ele>
        <time>2014-03-28T09:27:42Z</time>
      </trkpt>
      <trkpt lat="42.937" lon="0.2704">
        <ele>1162.2271215604</ele>
        <time>2014-03-28T09:27:48Z</time>
      </trkpt>
      <trkpt lat="42.93697" lon="0.27038">
        <ele>1162.2271215604</ele>
        <time>2014-03-28T09:27:53Z</time>
      </trkpt>
      <trkpt lat="42.93694" lon="0.27027">
        <ele>1163.7060575297</ele>
        <time>2014-03-28T09:27:58Z</time>
      </trkpt>
      <trkpt lat="42.93693" lon="0.27023">
        <ele>1163.7060575297</ele>
        <time>2014-03-28T09:28:02Z</time>
      </trkpt>
      <trkpt lat="42.9369" lon="0.27014">
        <ele>1165.0619396726</ele>
        <time>2014-03-28T09:28:07Z</time>
      </trkpt>
      <trkpt lat="42.93686" lon="0.27004">
        <ele>1165.0619396726</ele>
        <time>2014-03-28T09:28:13Z</time>
      </trkpt>
      <trkpt lat="42.93685" lon="0.26996">
        <ele>1166.3601779186</ele>
        <time>2014-03-28T09:28:18Z</time>
      </trkpt>
      <trkpt lat="42.93684" lon="0.26991">
        <ele>1166.3601779186</ele>
        <time>2014-03-28T09:28:22Z</time>
      </trkpt>
      <trkpt lat="42.9368" lon="0.26982">
        <ele>1167.5462339282</ele>
        <time>2014-03-28T09:28:28Z</time>
      </trkpt>
      <trkpt lat="42.9368" lon="0.26979">
        <ele>1167.5462339282</ele>
        <time>2014-03-28T09:28:33Z</time>
      </trkpt>
      <trkpt lat="42.93679" lon="0.26974">
        <ele>1167.5462339282</ele>
        <time>2014-03-28T09:28:38Z</time>
      </trkpt>
      <trkpt lat="42.93677" lon="0.26963">
        <ele>1168.6132379708</ele>
        <time>2014-03-28T09:28:43Z</time>
      </trkpt>
      <trkpt lat="42.93676" lon="0.26957">
        <ele>1168.6132379708</ele>
        <time>2014-03-28T09:28:48Z</time>
      </trkpt>
      <trkpt lat="42.93674" lon="0.26951">
        <ele>1169.4831122113</ele>
        <time>2014-03-28T09:28:53Z</time>
      </trkpt>
      <trkpt lat="42.9367" lon="0.26945">
        <ele>1169.4831122113</ele>
        <time>2014-03-28T09:28:58Z</time>
      </trkpt>
      <trkpt lat="42.93667" lon="0.26938">
        <ele>1170.2283852514</ele>
        <time>2014-03-28T09:29:02Z</time>
      </trkpt>
      <trkpt lat="42.93665" lon="0.26932">
        <ele>1170.2283852514</ele>
        <time>2014-03-28T09:29:08Z</time>
      </trkpt>
      <trkpt lat="42.93663" lon="0.26926">
        <ele>1170.9887896343</ele>
        <time>2014-03-28T09:29:14Z</time>
      </trkpt>
      <trkpt lat="42.93662" lon="0.26922">
        <ele>1170.9887896343</ele>
        <time>2014-03-28T09:29:17Z</time>
      </trkpt>
      <trkpt lat="42.9366" lon="0.26915">
        <ele>1170.9887896343</ele>
        <time>2014-03-28T09:29:23Z</time>
      </trkpt>
      <trkpt lat="42.93659" lon="0.26907">
        <ele>1171.663004417</ele>
        <time>2014-03-28T09:29:28Z</time>
      </trkpt>
      <trkpt lat="42.93658" lon="0.26902">
        <ele>1171.663004417</ele>
        <time>2014-03-28T09:29:32Z</time>
      </trkpt>
      <trkpt lat="42.93656" lon="0.26896">
        <ele>1171.663004417</ele>
        <time>2014-03-28T09:29:37Z</time>
      </trkpt>
      <trkpt lat="42.93652" lon="0.26888">
        <ele>1172.1862989125</ele>
        <time>2014-03-28T09:29:43Z</time>
      </trkpt>
      <trkpt lat="42.93649" lon="0.26883">
        <ele>1172.1862989125</ele>
        <time>2014-03-28T09:29:48Z</time>
      </trkpt>
      <trkpt lat="42.93646" lon="0.26876">
        <ele>1172.5712884147</ele>
        <time>2014-03-28T09:29:52Z</time>
      </trkpt>
      <trkpt lat="42.93647" lon="0.26871">
        <ele>1172.5712884147</ele>
        <time>2014-03-28T09:29:58Z</time>
      </trkpt>
      <trkpt lat="42.93646" lon="0.26864">
        <ele>1172.5712884147</ele>
        <time>2014-03-28T09:30:03Z</time>
      </trkpt>
      <trkpt lat="42.93643" lon="0.26858">
        <ele>1172.858926283</ele>
        <time>2014-03-28T09:30:08Z</time>
      </trkpt>
      <trkpt lat="42.93642" lon="0.26855">
        <ele>1172.858926283</ele>
        <time>2014-03-28T09:30:12Z</time>
      </trkpt>
      <trkpt lat="42.93638" lon="0.26849">
        <ele>1172.858926283</ele>
        <time>2014-03-28T09:30:19Z</time>
      </trkpt>
      <trkpt lat="42.93635" lon="0.26842">
        <ele>1173.1451357837</ele>
        <time>2014-03-28T09:30:22Z</time>
      </trkpt>
      <trkpt lat="42.93634" lon="0.26834">
        <ele>1173.1451357837</ele>
        <time>2014-03-28T09:30:27Z</time>
      </trkpt>
      <trkpt lat="42.93631" lon="0.26827">
        <ele>1173.5043702852</ele>
        <time>2014-03-28T09:30:33Z</time>
      </trkpt>
      <trkpt lat="42.93629" lon="0.2682">
        <ele>1173.5043702852</ele>
        <time>2014-03-28T09:30:37Z</time>
      </trkpt>
      <trkpt lat="42.93626" lon="0.26814">
        <ele>1173.9044509814</ele>
        <time>2014-03-28T09:30:43Z</time>
      </trkpt>
      <trkpt lat="42.93625" lon="0.26809">
        <ele>1173.9044509814</ele>
        <time>2014-03-28T09:30:48Z</time>
      </trkpt>
      <trkpt lat="42.93622" lon="0.26804">
        <ele>1173.9044509814</ele>
        <time>2014-03-28T09:30:53Z</time>
      </trkpt>
      <trkpt lat="42.9362" lon="0.26799">
        <ele>1174.0847286715</ele>
        <time>2014-03-28T09:30:57Z</time>
      </trkpt>
      <trkpt lat="42.93617" lon="0.26794">
        <ele>1174.0847286715</ele>
        <time>2014-03-28T09:31:02Z</time>
      </trkpt>
      <trkpt lat="42.93615" lon="0.2679">
        <ele>1174.0847286715</ele>
        <time>2014-03-28T09:31:08Z</time>
      </trkpt>
      <trkpt lat="42.93615" lon="0.2679">
        <ele>1174.0847286715</ele>
        <time>2014-03-28T09:31:12Z</time>
      </trkpt>
      <trkpt lat="42.9361" lon="0.26781">
        <ele>1174.0206609457</ele>
        <time>2014-03-28T09:31:28Z</time>
      </trkpt>
      <trkpt lat="42.93607" lon="0.26775">
        <ele>1174.0206609457</ele>
        <time>2014-03-28T09:31:33Z</time>
      </trkpt>
      <trkpt lat="42.93604" lon="0.26771">
        <ele>1173.8776285565</ele>
        <time>2014-03-28T09:31:38Z</time>
      </trkpt>
      <trkpt lat="42.936" lon="0.26764">
        <ele>1173.8776285565</ele>
        <time>2014-03-28T09:31:43Z</time>
      </trkpt>
      <trkpt lat="42.93595" lon="0.26758">
        <ele>1173.6936812052</ele>
        <time>2014-03-28T09:31:48Z</time>
      </trkpt>
      <trkpt lat="42.9359" lon="0.26753">
        <ele>1173.6936812052</ele>
        <time>2014-03-28T09:31:53Z</time>
      </trkpt>
      <trkpt lat="42.93585" lon="0.26749">
        <ele>1173.4032272207</ele>
        <time>2014-03-28T09:31:58Z</time>
      </trkpt>
      <trkpt lat="42.93581" lon="0.26745">
        <ele>1173.4032272207</ele>
        <time>2014-03-28T09:32:03Z</time>
      </trkpt>
      <trkpt lat="42.93577" lon="0.26743">
        <ele>1173.4032272207</ele>
        <time>2014-03-28T09:32:07Z</time>
      </trkpt>
      <trkpt lat="42.93574" lon="0.2674">
        <ele>1173.0466817797</ele>
        <time>2014-03-28T09:32:12Z</time>
      </trkpt>
      <trkpt lat="42.93569" lon="0.26737">
        <ele>1173.0466817797</ele>
        <time>2014-03-28T09:32:18Z</time>
      </trkpt>
      <trkpt lat="42.93565" lon="0.26731">
        <ele>1172.6760367228</ele>
        <time>2014-03-28T09:32:24Z</time>
      </trkpt>
      <trkpt lat="42.93563" lon="0.26729">
        <ele>1172.6760367228</ele>
        <time>2014-03-28T09:32:27Z</time>
      </trkpt>
      <trkpt lat="42.93557" lon="0.26725">
        <ele>1172.3250242605</ele>
        <time>2014-03-28T09:32:32Z</time>
      </trkpt>
      <trkpt lat="42.93553" lon="0.26722">
        <ele>1172.3250242605</ele>
        <time>2014-03-28T09:32:38Z</time>
      </trkpt>
      <trkpt lat="42.93548" lon="0.26718">
        <ele>1171.9094578821</ele>
        <time>2014-03-28T09:32:42Z</time>
      </trkpt>
      <trkpt lat="42.93545" lon="0.26716">
        <ele>1171.9094578821</ele>
        <time>2014-03-28T09:32:48Z</time>
      </trkpt>
      <trkpt lat="42.9354" lon="0.26711">
        <ele>1171.4379458559</ele>
        <time>2014-03-28T09:32:53Z</time>
      </trkpt>
      <trkpt lat="42.93536" lon="0.26708">
        <ele>1171.4379458559</ele>
        <time>2014-03-28T09:32:58Z</time>
      </trkpt>
      <trkpt lat="42.93535" lon="0.26706">
        <ele>1171.4379458559</ele>
        <time>2014-03-28T09:33:02Z</time>
      </trkpt>
      <trkpt lat="42.93531" lon="0.26703">
        <ele>1171.0770956624</ele>
        <time>2014-03-28T09:33:07Z</time>
      </trkpt>
      <trkpt lat="42.93525" lon="0.26698">
        <ele>1171.0770956624</ele>
        <time>2014-03-28T09:33:13Z</time>
      </trkpt>
      <trkpt lat="42.93522" lon="0.26694">
        <ele>1170.7790786424</ele>
        <time>2014-03-28T09:33:18Z</time>
      </trkpt>
      <trkpt lat="42.93517" lon="0.2669">
        <ele>1170.7790786424</ele>
        <time>2014-03-28T09:33:23Z</time>
      </trkpt>
      <trkpt lat="42.93513" lon="0.26684">
        <ele>1170.484912446</ele>
        <time>2014-03-28T09:33:27Z</time>
      </trkpt>
      <trkpt lat="42.93509" lon="0.26681">
        <ele>1170.484912446</ele>
        <time>2014-03-28T09:33:32Z</time>
      </trkpt>
      <trkpt lat="42.93504" lon="0.26678">
        <ele>1170.2407428049</ele>
        <time>2014-03-28T09:33:37Z</time>
      </trkpt>
      <trkpt lat="42.93499" lon="0.26674">
        <ele>1170.2407428049</ele>
        <time>2014-03-28T09:33:43Z</time>
      </trkpt>
      <trkpt lat="42.93495" lon="0.2667">
        <ele>1170.0170291951</ele>
        <time>2014-03-28T09:33:47Z</time>
      </trkpt>
      <trkpt lat="42.93492" lon="0.26667">
        <ele>1170.0170291951</ele>
        <time>2014-03-28T09:33:53Z</time>
      </trkpt>
      <trkpt lat="42.93488" lon="0.26665">
        <ele>1170.0170291951</ele>
        <time>2014-03-28T09:33:59Z</time>
      </trkpt>
      <trkpt lat="42.93483" lon="0.26662">
        <ele>1169.8150772079</ele>
        <time>2014-03-28T09:34:03Z</time>
      </trkpt>
      <trkpt lat="42.9348" lon="0.26661">
        <ele>1169.8150772079</ele>
        <time>2014-03-28T09:34:07Z</time>
      </trkpt>
      <trkpt lat="42.93476" lon="0.26658">
        <ele>1169.8150772079</ele>
        <time>2014-03-28T09:34:13Z</time>
      </trkpt>
      <trkpt lat="42.93472" lon="0.26655">
        <ele>1169.6791765775</ele>
        <time>2014-03-28T09:34:18Z</time>
      </trkpt>
      <trkpt lat="42.93468" lon="0.26651">
        <ele>1169.6791765775</ele>
        <time>2014-03-28T09:34:22Z</time>
      </trkpt>
      <trkpt lat="42.93465" lon="0.26647">
        <ele>1169.5780228431</ele>
        <time>2014-03-28T09:34:27Z</time>
      </trkpt>
      <trkpt lat="42.93461" lon="0.26643">
        <ele>1169.5780228431</ele>
        <time>2014-03-28T09:34:33Z</time>
      </trkpt>
      <trkpt lat="42.93456" lon="0.26638">
        <ele>1169.4824200249</ele>
        <time>2014-03-28T09:34:38Z</time>
      </trkpt>
      <trkpt lat="42.93453" lon="0.26634">
        <ele>1169.4824200249</ele>
        <time>2014-03-28T09:34:43Z</time>
      </trkpt>
      <trkpt lat="42.9345" lon="0.26631">
        <ele>1169.4824200249</ele>
        <time>2014-03-28T09:34:48Z</time>
      </trkpt>
      <trkpt lat="42.93445" lon="0.26627">
        <ele>1169.4516760984</ele>
        <time>2014-03-28T09:34:52Z</time>
      </trkpt>
      <trkpt lat="42.93442" lon="0.26623">
        <ele>1169.4516760984</ele>
        <time>2014-03-28T09:34:58Z</time>
      </trkpt>
      <trkpt lat="42.93438" lon="0.26622">
        <ele>1169.4516760984</ele>
        <time>2014-03-28T09:35:03Z</time>
      </trkpt>
      <trkpt lat="42.93434" lon="0.26615">
        <ele>1169.4539972469</ele>
        <time>2014-03-28T09:35:07Z</time>
      </trkpt>
      <trkpt lat="42.9343" lon="0.26613">
        <ele>1169.4539972469</ele>
        <time>2014-03-28T09:35:13Z</time>
      </trkpt>
      <trkpt lat="42.93425" lon="0.26611">
        <ele>1169.4885637459</ele>
        <time>2014-03-28T09:35:17Z</time>
      </trkpt>
      <trkpt lat="42.93421" lon="0.26606">
        <ele>1169.4885637459</ele>
        <time>2014-03-28T09:35:22Z</time>
      </trkpt>
      <trkpt lat="42.93417" lon="0.26602">
        <ele>1169.5256130655</ele>
        <time>2014-03-28T09:35:28Z</time>
      </trkpt>
      <trkpt lat="42.93415" lon="0.26599">
        <ele>1169.5256130655</ele>
        <time>2014-03-28T09:35:33Z</time>
      </trkpt>
      <trkpt lat="42.93411" lon="0.26594">
        <ele>1169.5256130655</ele>
        <time>2014-03-28T09:35:38Z</time>
      </trkpt>
      <trkpt lat="42.93405" lon="0.26591">
        <ele>1169.6095308447</ele>
        <time>2014-03-28T09:35:43Z</time>
      </trkpt>
      <trkpt lat="42.93403" lon="0.26588">
        <ele>1169.6095308447</ele>
        <time>2014-03-28T09:35:47Z</time>
      </trkpt>
      <trkpt lat="42.93399" lon="0.26584">
        <ele>1169.6095308447</ele>
        <time>2014-03-28T09:35:52Z</time>
      </trkpt>
      <trkpt lat="42.93396" lon="0.26581">
        <ele>1169.7812257173</ele>
        <time>2014-03-28T09:35:57Z</time>
      </trkpt>
      <trkpt lat="42.93391" lon="0.26577">
        <ele>1169.7812257173</ele>
        <time>2014-03-28T09:36:02Z</time>
      </trkpt>
      <trkpt lat="42.93386" lon="0.26576">
        <ele>1169.9485720492</ele>
        <time>2014-03-28T09:36:07Z</time>
      </trkpt>
      <trkpt lat="42.93382" lon="0.26575">
        <ele>1169.9485720492</ele>
        <time>2014-03-28T09:36:12Z</time>
      </trkpt>
      <trkpt lat="42.93378" lon="0.26573">
        <ele>1169.9485720492</ele>
        <time>2014-03-28T09:36:17Z</time>
      </trkpt>
      <trkpt lat="42.93374" lon="0.26571">
        <ele>1170.1702583689</ele>
        <time>2014-03-28T09:36:22Z</time>
      </trkpt>
      <trkpt lat="42.93369" lon="0.26568">
        <ele>1170.1702583689</ele>
        <time>2014-03-28T09:36:28Z</time>
      </trkpt>
      <trkpt lat="42.93365" lon="0.26565">
        <ele>1170.4139676272</ele>
        <time>2014-03-28T09:36:33Z</time>
      </trkpt>
      <trkpt lat="42.9336" lon="0.26561">
        <ele>1170.4139676272</ele>
        <time>2014-03-28T09:36:38Z</time>
      </trkpt>
      <trkpt lat="42.93355" lon="0.26559">
        <ele>1170.6640359003</ele>
        <time>2014-03-28T09:36:43Z</time>
      </trkpt>
      <trkpt lat="42.9335" lon="0.26558">
        <ele>1170.6640359003</ele>
        <time>2014-03-28T09:36:48Z</time>
      </trkpt>
      <trkpt lat="42.93346" lon="0.26555">
        <ele>1170.9058658295</ele>
        <time>2014-03-28T09:36:53Z</time>
      </trkpt>
      <trkpt lat="42.93341" lon="0.26554">
        <ele>1170.9058658295</ele>
        <time>2014-03-28T09:36:58Z</time>
      </trkpt>
      <trkpt lat="42.93336" lon="0.26553">
        <ele>1171.2267730927</ele>
        <time>2014-03-28T09:37:03Z</time>
      </trkpt>
      <trkpt lat="42.93331" lon="0.26552">
        <ele>1171.2267730927</ele>
        <time>2014-03-28T09:37:08Z</time>
      </trkpt>
      <trkpt lat="42.93328" lon="0.26551">
        <ele>1171.2267730927</ele>
        <time>2014-03-28T09:37:13Z</time>
      </trkpt>
      <trkpt lat="42.93323" lon="0.2655">
        <ele>1171.60650042</ele>
        <time>2014-03-28T09:37:18Z</time>
      </trkpt>
      <trkpt lat="42.93321" lon="0.26551">
        <ele>1171.60650042</ele>
        <time>2014-03-28T09:37:22Z</time>
      </trkpt>
      <trkpt lat="42.93315" lon="0.2655">
        <ele>1171.60650042</ele>
        <time>2014-03-28T09:37:27Z</time>
      </trkpt>
      <trkpt lat="42.93313" lon="0.2655">
        <ele>1172.0981176532</ele>
        <time>2014-03-28T09:37:32Z</time>
      </trkpt>
      <trkpt lat="42.93313" lon="0.26551">
        <ele>1172.0981176532</ele>
        <time>2014-03-28T09:37:37Z</time>
      </trkpt>
      <trkpt lat="42.9331" lon="0.26549">
        <ele>1172.0981176532</ele>
        <time>2014-03-28T09:37:42Z</time>
      </trkpt>
      <trkpt lat="42.93308" lon="0.26546">
        <ele>1172.0981176532</ele>
        <time>2014-03-28T09:37:49Z</time>
      </trkpt>
      <trkpt lat="42.93305" lon="0.26543">
        <ele>1172.7072001763</ele>
        <time>2014-03-28T09:37:52Z</time>
      </trkpt>
      <trkpt lat="42.933" lon="0.26537">
        <ele>1172.7072001763</ele>
        <time>2014-03-28T09:37:58Z</time>
      </trkpt>
      <trkpt lat="42.93298" lon="0.26535">
        <ele>1173.3808960129</ele>
        <time>2014-03-28T09:38:03Z</time>
      </trkpt>
      <trkpt lat="42.93293" lon="0.2653">
        <ele>1173.3808960129</ele>
        <time>2014-03-28T09:38:08Z</time>
      </trkpt>
      <trkpt lat="42.9329" lon="0.26526">
        <ele>1174.0556062965</ele>
        <time>2014-03-28T09:38:12Z</time>
      </trkpt>
      <trkpt lat="42.93284" lon="0.26523">
        <ele>1174.0556062965</ele>
        <time>2014-03-28T09:38:18Z</time>
      </trkpt>
      <trkpt lat="42.93279" lon="0.26521">
        <ele>1174.7732512362</ele>
        <time>2014-03-28T09:38:23Z</time>
      </trkpt>
      <trkpt lat="42.93275" lon="0.26519">
        <ele>1174.7732512362</ele>
        <time>2014-03-28T09:38:28Z</time>
      </trkpt>
      <trkpt lat="42.93271" lon="0.26514">
        <ele>1175.4572350426</ele>
        <time>2014-03-28T09:38:33Z</time>
      </trkpt>
      <trkpt lat="42.93267" lon="0.26511">
        <ele>1175.4572350426</ele>
        <time>2014-03-28T09:38:37Z</time>
      </trkpt>
      <trkpt lat="42.93264" lon="0.26508">
        <ele>1175.4572350426</ele>
        <time>2014-03-28T09:38:42Z</time>
      </trkpt>
      <trkpt lat="42.93262" lon="0.26506">
        <ele>1176.2384256546</ele>
        <time>2014-03-28T09:38:48Z</time>
      </trkpt>
      <trkpt lat="42.93261" lon="0.26506">
        <ele>1176.2384256546</ele>
        <time>2014-03-28T09:38:53Z</time>
      </trkpt>
      <trkpt lat="42.93259" lon="0.26503">
        <ele>1176.2384256546</ele>
        <time>2014-03-28T09:39:17Z</time>
      </trkpt>
      <trkpt lat="42.93258" lon="0.26502">
        <ele>1176.2384256546</ele>
        <time>2014-03-28T09:39:22Z</time>
      </trkpt>
      <trkpt lat="42.93259" lon="0.26503">
        <ele>1176.2384256546</ele>
        <time>2014-03-28T09:39:27Z</time>
      </trkpt>
      <trkpt lat="42.93266" lon="0.26512">
        <ele>1177.4107304321</ele>
        <time>2014-03-28T09:39:47Z</time>
      </trkpt>
      <trkpt lat="42.93267" lon="0.26512">
        <ele>1177.4107304321</ele>
        <time>2014-03-28T09:39:52Z</time>
      </trkpt>
      <trkpt lat="42.93258" lon="0.26505">
        <ele>1178.928311102</ele>
        <time>2014-03-28T09:42:03Z</time>
      </trkpt>
      <trkpt lat="42.93255" lon="0.26497">
        <ele>1178.928311102</ele>
        <time>2014-03-28T09:42:18Z</time>
      </trkpt>
      <trkpt lat="42.93256" lon="0.26495">
        <ele>1178.928311102</ele>
        <time>2014-03-28T09:42:24Z</time>
      </trkpt>
      <trkpt lat="42.93256" lon="0.26489">
        <ele>1180.3442102226</ele>
        <time>2014-03-28T09:42:28Z</time>
      </trkpt>
      <trkpt lat="42.93255" lon="0.26483">
        <ele>1180.3442102226</ele>
        <time>2014-03-28T09:42:33Z</time>
      </trkpt>
      <trkpt lat="42.93255" lon="0.26479">
        <ele>1180.3442102226</ele>
        <time>2014-03-28T09:42:38Z</time>
      </trkpt>
      <trkpt lat="42.93255" lon="0.26474">
        <ele>1181.6769463275</ele>
        <time>2014-03-28T09:42:43Z</time>
      </trkpt>
      <trkpt lat="42.93255" lon="0.2647">
        <ele>1181.6769463275</ele>
        <time>2014-03-28T09:42:48Z</time>
      </trkpt>
      <trkpt lat="42.93253" lon="0.26464">
        <ele>1181.6769463275</ele>
        <time>2014-03-28T09:42:53Z</time>
      </trkpt>
      <trkpt lat="42.93251" lon="0.26459">
        <ele>1182.8862858737</ele>
        <time>2014-03-28T09:42:58Z</time>
      </trkpt>
      <trkpt lat="42.9325" lon="0.26456">
        <ele>1182.8862858737</ele>
        <time>2014-03-28T09:43:03Z</time>
      </trkpt>
      <trkpt lat="42.93247" lon="0.2645">
        <ele>1182.8862858737</ele>
        <time>2014-03-28T09:43:08Z</time>
      </trkpt>
      <trkpt lat="42.93244" lon="0.26447">
        <ele>1183.9497370643</ele>
        <time>2014-03-28T09:43:13Z</time>
      </trkpt>
      <trkpt lat="42.93241" lon="0.26442">
        <ele>1183.9497370643</ele>
        <time>2014-03-28T09:43:18Z</time>
      </trkpt>
      <trkpt lat="42.9324" lon="0.2644">
        <ele>1183.9497370643</ele>
        <time>2014-03-28T09:43:23Z</time>
      </trkpt>
      <trkpt lat="42.93238" lon="0.26434">
        <ele>1184.8901383026</ele>
        <time>2014-03-28T09:43:28Z</time>
      </trkpt>
      <trkpt lat="42.93235" lon="0.2643">
        <ele>1184.8901383026</ele>
        <time>2014-03-28T09:43:33Z</time>
      </trkpt>
      <trkpt lat="42.93233" lon="0.26426">
        <ele>1184.8901383026</ele>
        <time>2014-03-28T09:43:37Z</time>
      </trkpt>
      <trkpt lat="42.93231" lon="0.26421">
        <ele>1185.7290341066</ele>
        <time>2014-03-28T09:43:43Z</time>
      </trkpt>
      <trkpt lat="42.93229" lon="0.26419">
        <ele>1185.7290341066</ele>
        <time>2014-03-28T09:43:48Z</time>
      </trkpt>
      <trkpt lat="42.93226" lon="0.26416">
        <ele>1185.7290341066</ele>
        <time>2014-03-28T09:43:53Z</time>
      </trkpt>
      <trkpt lat="42.93224" lon="0.26414">
        <ele>1185.7290341066</ele>
        <time>2014-03-28T09:43:57Z</time>
      </trkpt>
      <trkpt lat="42.93222" lon="0.2641">
        <ele>1186.674060686</ele>
        <time>2014-03-28T09:44:02Z</time>
      </trkpt>
      <trkpt lat="42.93218" lon="0.26405">
        <ele>1186.674060686</ele>
        <time>2014-03-28T09:44:08Z</time>
      </trkpt>
      <trkpt lat="42.93215" lon="0.264">
        <ele>1187.600297285</ele>
        <time>2014-03-28T09:44:13Z</time>
      </trkpt>
      <trkpt lat="42.93212" lon="0.26394">
        <ele>1187.600297285</ele>
        <time>2014-03-28T09:44:17Z</time>
      </trkpt>
      <trkpt lat="42.93209" lon="0.26387">
        <ele>1188.4929786502</ele>
        <time>2014-03-28T09:44:23Z</time>
      </trkpt>
      <trkpt lat="42.93208" lon="0.26382">
        <ele>1188.4929786502</ele>
        <time>2014-03-28T09:44:28Z</time>
      </trkpt>
      <trkpt lat="42.93207" lon="0.26376">
        <ele>1188.4929786502</ele>
        <time>2014-03-28T09:44:33Z</time>
      </trkpt>
      <trkpt lat="42.93207" lon="0.26374">
        <ele>1189.3241547126</ele>
        <time>2014-03-28T09:44:38Z</time>
      </trkpt>
      <trkpt lat="42.93208" lon="0.26365">
        <ele>1189.3241547126</ele>
        <time>2014-03-28T09:44:43Z</time>
      </trkpt>
      <trkpt lat="42.93206" lon="0.26361">
        <ele>1190.1257951139</ele>
        <time>2014-03-28T09:44:48Z</time>
      </trkpt>
      <trkpt lat="42.93205" lon="0.26356">
        <ele>1190.1257951139</ele>
        <time>2014-03-28T09:44:53Z</time>
      </trkpt>
      <trkpt lat="42.93204" lon="0.26356">
        <ele>1190.1257951139</ele>
        <time>2014-03-28T09:44:58Z</time>
      </trkpt>
      <trkpt lat="42.93213" lon="0.26349">
        <ele>1190.9564755649</ele>
        <time>2014-03-28T09:45:22Z</time>
      </trkpt>
      <trkpt lat="42.93215" lon="0.26349">
        <ele>1190.9564755649</ele>
        <time>2014-03-28T09:45:27Z</time>
      </trkpt>
      <trkpt lat="42.93224" lon="0.26345">
        <ele>1191.7119128583</ele>
        <time>2014-03-28T09:45:33Z</time>
      </trkpt>
      <trkpt lat="42.93228" lon="0.26343">
        <ele>1191.7119128583</ele>
        <time>2014-03-28T09:45:38Z</time>
      </trkpt>
      <trkpt lat="42.9323" lon="0.26342">
        <ele>1191.7119128583</ele>
        <time>2014-03-28T09:45:42Z</time>
      </trkpt>
      <trkpt lat="42.9323" lon="0.26342">
        <ele>1191.7119128583</ele>
        <time>2014-03-28T09:45:47Z</time>
      </trkpt>
      <trkpt lat="42.93239" lon="0.26338">
        <ele>1192.5263249357</ele>
        <time>2014-03-28T09:46:12Z</time>
      </trkpt>
      <trkpt lat="42.93236" lon="0.26339">
        <ele>1192.5263249357</ele>
        <time>2014-03-28T09:46:18Z</time>
      </trkpt>
      <trkpt lat="42.93227" lon="0.26334">
        <ele>1193.3366074121</ele>
        <time>2014-03-28T09:46:33Z</time>
      </trkpt>
      <trkpt lat="42.93227" lon="0.26333">
        <ele>1193.3366074121</ele>
        <time>2014-03-28T09:46:38Z</time>
      </trkpt>
      <trkpt lat="42.93222" lon="0.26323">
        <ele>1193.3366074121</ele>
        <time>2014-03-28T09:46:48Z</time>
      </trkpt>
      <trkpt lat="42.9322" lon="0.26321">
        <ele>1194.0843518569</ele>
        <time>2014-03-28T09:46:53Z</time>
      </trkpt>
      <trkpt lat="42.93219" lon="0.2632">
        <ele>1194.0843518569</ele>
        <time>2014-03-28T09:46:58Z</time>
      </trkpt>
      <trkpt lat="42.93214" lon="0.2631">
        <ele>1194.8741869982</ele>
        <time>2014-03-28T09:47:13Z</time>
      </trkpt>
      <trkpt lat="42.93214" lon="0.26307">
        <ele>1194.8741869982</ele>
        <time>2014-03-28T09:47:18Z</time>
      </trkpt>
      <trkpt lat="42.93227" lon="0.26301">
        <ele>1195.745339711</ele>
        <time>2014-03-28T09:47:48Z</time>
      </trkpt>
      <trkpt lat="42.93233" lon="0.263">
        <ele>1195.745339711</ele>
        <time>2014-03-28T09:47:53Z</time>
      </trkpt>
      <trkpt lat="42.9324" lon="0.26301">
        <ele>1196.6186843671</ele>
        <time>2014-03-28T09:47:58Z</time>
      </trkpt>
      <trkpt lat="42.93242" lon="0.26305">
        <ele>1196.6186843671</ele>
        <time>2014-03-28T09:48:03Z</time>
      </trkpt>
      <trkpt lat="42.9324" lon="0.26308">
        <ele>1196.6186843671</ele>
        <time>2014-03-28T09:48:08Z</time>
      </trkpt>
      <trkpt lat="42.93235" lon="0.26296">
        <ele>1197.6947602527</ele>
        <time>2014-03-28T09:48:33Z</time>
      </trkpt>
      <trkpt lat="42.93232" lon="0.26294">
        <ele>1197.6947602527</ele>
        <time>2014-03-28T09:48:38Z</time>
      </trkpt>
      <trkpt lat="42.93224" lon="0.26285">
        <ele>1198.7409292746</ele>
        <time>2014-03-28T09:48:47Z</time>
      </trkpt>
      <trkpt lat="42.93222" lon="0.2628">
        <ele>1198.7409292746</ele>
        <time>2014-03-28T09:48:53Z</time>
      </trkpt>
      <trkpt lat="42.93221" lon="0.26278">
        <ele>1198.7409292746</ele>
        <time>2014-03-28T09:48:58Z</time>
      </trkpt>
      <trkpt lat="42.93209" lon="0.26275">
        <ele>1199.8588193274</ele>
        <time>2014-03-28T09:49:13Z</time>
      </trkpt>
      <trkpt lat="42.93203" lon="0.26266">
        <ele>1200.9695057069</ele>
        <time>2014-03-28T09:49:22Z</time>
      </trkpt>
      <trkpt lat="42.93199" lon="0.26265">
        <ele>1200.9695057069</ele>
        <time>2014-03-28T09:49:28Z</time>
      </trkpt>
      <trkpt lat="42.93197" lon="0.26265">
        <ele>1200.9695057069</ele>
        <time>2014-03-28T09:49:33Z</time>
      </trkpt>
      <trkpt lat="42.93193" lon="0.26263">
        <ele>1202.0431639856</ele>
        <time>2014-03-28T09:49:38Z</time>
      </trkpt>
      <trkpt lat="42.9319" lon="0.26261">
        <ele>1202.0431639856</ele>
        <time>2014-03-28T09:49:43Z</time>
      </trkpt>
      <trkpt lat="42.93189" lon="0.26256">
        <ele>1202.0431639856</ele>
        <time>2014-03-28T09:49:48Z</time>
      </trkpt>
      <trkpt lat="42.93189" lon="0.26254">
        <ele>1202.0431639856</ele>
        <time>2014-03-28T09:49:53Z</time>
      </trkpt>
      <trkpt lat="42.9319" lon="0.26244">
        <ele>1203.6287600358</ele>
        <time>2014-03-28T09:50:53Z</time>
      </trkpt>
      <trkpt lat="42.93191" lon="0.26243">
        <ele>1203.6287600358</ele>
        <time>2014-03-28T09:50:58Z</time>
      </trkpt>
      <trkpt lat="42.93191" lon="0.26247">
        <ele>1203.6287600358</ele>
        <time>2014-03-28T09:51:03Z</time>
      </trkpt>
      <trkpt lat="42.9319" lon="0.26247">
        <ele>1203.6287600358</ele>
        <time>2014-03-28T09:51:08Z</time>
      </trkpt>
      <trkpt lat="42.93194" lon="0.26247">
        <ele>1203.6287600358</ele>
        <time>2014-03-28T09:51:13Z</time>
      </trkpt>
      <trkpt lat="42.93195" lon="0.26249">
        <ele>1205.2824148337</ele>
        <time>2014-03-28T09:51:18Z</time>
      </trkpt>
      <trkpt lat="42.93197" lon="0.26248">
        <ele>1205.2824148337</ele>
        <time>2014-03-28T09:51:23Z</time>
      </trkpt>
      <trkpt lat="42.93196" lon="0.26243">
        <ele>1205.2824148337</ele>
        <time>2014-03-28T09:51:28Z</time>
      </trkpt>
      <trkpt lat="42.93196" lon="0.26243">
        <ele>1205.2824148337</ele>
        <time>2014-03-28T09:51:33Z</time>
      </trkpt>
      <trkpt lat="42.93193" lon="0.26243">
        <ele>1205.2824148337</ele>
        <time>2014-03-28T09:51:38Z</time>
      </trkpt>
      <trkpt lat="42.93193" lon="0.26238">
        <ele>1207.4862118871</ele>
        <time>2014-03-28T09:52:03Z</time>
      </trkpt>
      <trkpt lat="42.93193" lon="0.26233">
        <ele>1207.4862118871</ele>
        <time>2014-03-28T09:52:08Z</time>
      </trkpt>
      <trkpt lat="42.93184" lon="0.26229">
        <ele>1209.6621496226</ele>
        <time>2014-03-28T09:52:13Z</time>
      </trkpt>
      <trkpt lat="42.93187" lon="0.26228">
        <ele>1209.6621496226</ele>
        <time>2014-03-28T09:52:18Z</time>
      </trkpt>
      <trkpt lat="42.93189" lon="0.26219">
        <ele>1211.6783437045</ele>
        <time>2014-03-28T09:52:23Z</time>
      </trkpt>
      <trkpt lat="42.93189" lon="0.26216">
        <ele>1211.6783437045</ele>
        <time>2014-03-28T09:52:28Z</time>
      </trkpt>
      <trkpt lat="42.93185" lon="0.26195">
        <ele>1213.6581093837</ele>
        <time>2014-03-28T09:52:48Z</time>
      </trkpt>
      <trkpt lat="42.93184" lon="0.26191">
        <ele>1213.6581093837</ele>
        <time>2014-03-28T09:52:53Z</time>
      </trkpt>
      <trkpt lat="42.93189" lon="0.26187">
        <ele>1213.6581093837</ele>
        <time>2014-03-28T09:53:03Z</time>
      </trkpt>
      <trkpt lat="42.93191" lon="0.26184">
        <ele>1215.6438301043</ele>
        <time>2014-03-28T09:53:08Z</time>
      </trkpt>
      <trkpt lat="42.93187" lon="0.26182">
        <ele>1215.6438301043</ele>
        <time>2014-03-28T09:53:13Z</time>
      </trkpt>
      <trkpt lat="42.93183" lon="0.26173">
        <ele>1217.588377542</ele>
        <time>2014-03-28T09:53:17Z</time>
      </trkpt>
      <trkpt lat="42.93183" lon="0.26166">
        <ele>1217.588377542</ele>
        <time>2014-03-28T09:53:23Z</time>
      </trkpt>
      <trkpt lat="42.9318" lon="0.26165">
        <ele>1217.588377542</ele>
        <time>2014-03-28T09:53:27Z</time>
      </trkpt>
      <trkpt lat="42.93182" lon="0.26161">
        <ele>1219.6212235</ele>
        <time>2014-03-28T09:53:32Z</time>
      </trkpt>
      <trkpt lat="42.93181" lon="0.26157">
        <ele>1219.6212235</ele>
        <time>2014-03-28T09:53:38Z</time>
      </trkpt>
      <trkpt lat="42.93182" lon="0.26154">
        <ele>1219.6212235</ele>
        <time>2014-03-28T09:53:43Z</time>
      </trkpt>
      <trkpt lat="42.93181" lon="0.26153">
        <ele>1219.6212235</ele>
        <time>2014-03-28T09:53:48Z</time>
      </trkpt>
      <trkpt lat="42.93178" lon="0.26148">
        <ele>1221.8621741337</ele>
        <time>2014-03-28T09:53:58Z</time>
      </trkpt>
      <trkpt lat="42.93177" lon="0.26142">
        <ele>1221.8621741337</ele>
        <time>2014-03-28T09:54:23Z</time>
      </trkpt>
      <trkpt lat="42.93176" lon="0.26141">
        <ele>1221.8621741337</ele>
        <time>2014-03-28T09:54:28Z</time>
      </trkpt>
      <trkpt lat="42.93175" lon="0.26135">
        <ele>1224.0470582425</ele>
        <time>2014-03-28T09:54:33Z</time>
      </trkpt>
      <trkpt lat="42.93175" lon="0.26126">
        <ele>1224.0470582425</ele>
        <time>2014-03-28T09:54:53Z</time>
      </trkpt>
      <trkpt lat="42.93179" lon="0.26119">
        <ele>1226.1763566648</ele>
        <time>2014-03-28T09:54:58Z</time>
      </trkpt>
      <trkpt lat="42.93178" lon="0.26115">
        <ele>1226.1763566648</ele>
        <time>2014-03-28T09:55:03Z</time>
      </trkpt>
      <trkpt lat="42.93179" lon="0.26105">
        <ele>1228.596641293</ele>
        <time>2014-03-28T09:55:18Z</time>
      </trkpt>
      <trkpt lat="42.93179" lon="0.26105">
        <ele>1228.596641293</ele>
        <time>2014-03-28T09:55:23Z</time>
      </trkpt>
      <trkpt lat="42.93185" lon="0.26107">
        <ele>1228.596641293</ele>
        <time>2014-03-28T09:55:28Z</time>
      </trkpt>
      <trkpt lat="42.93185" lon="0.26104">
        <ele>1231.0662819902</ele>
        <time>2014-03-28T09:55:33Z</time>
      </trkpt>
      <trkpt lat="42.9319" lon="0.26109">
        <ele>1231.0662819902</ele>
        <time>2014-03-28T09:55:38Z</time>
      </trkpt>
      <trkpt lat="42.93192" lon="0.26109">
        <ele>1231.0662819902</ele>
        <time>2014-03-28T09:55:43Z</time>
      </trkpt>
      <trkpt lat="42.93192" lon="0.26111">
        <ele>1231.0662819902</ele>
        <time>2014-03-28T09:55:48Z</time>
      </trkpt>
      <trkpt lat="42.9319" lon="0.26105">
        <ele>1233.7216490968</ele>
        <time>2014-03-28T09:55:58Z</time>
      </trkpt>
      <trkpt lat="42.93191" lon="0.26104">
        <ele>1233.7216490968</ele>
        <time>2014-03-28T09:56:03Z</time>
      </trkpt>
      <trkpt lat="42.93192" lon="0.26098">
        <ele>1233.7216490968</ele>
        <time>2014-03-28T09:56:08Z</time>
      </trkpt>
      <trkpt lat="42.93192" lon="0.26095">
        <ele>1233.7216490968</ele>
        <time>2014-03-28T09:56:13Z</time>
      </trkpt>
      <trkpt lat="42.93188" lon="0.26092">
        <ele>1236.4292889398</ele>
        <time>2014-03-28T09:56:18Z</time>
      </trkpt>
      <trkpt lat="42.93187" lon="0.26091">
        <ele>1236.4292889398</ele>
        <time>2014-03-28T09:56:23Z</time>
      </trkpt>
      <trkpt lat="42.93188" lon="0.26084">
        <ele>1236.4292889398</ele>
        <time>2014-03-28T09:56:28Z</time>
      </trkpt>
      <trkpt lat="42.93189" lon="0.26083">
        <ele>1236.4292889398</ele>
        <time>2014-03-28T09:56:33Z</time>
      </trkpt>
      <trkpt lat="42.93192" lon="0.26078">
        <ele>1238.9502346195</ele>
        <time>2014-03-28T09:56:38Z</time>
      </trkpt>
      <trkpt lat="42.9319" lon="0.26076">
        <ele>1238.9502346195</ele>
        <time>2014-03-28T09:56:43Z</time>
      </trkpt>
      <trkpt lat="42.93188" lon="0.26078">
        <ele>1238.9502346195</ele>
        <time>2014-03-28T09:56:48Z</time>
      </trkpt>
      <trkpt lat="42.9319" lon="0.26079">
        <ele>1238.9502346195</ele>
        <time>2014-03-28T09:56:53Z</time>
      </trkpt>
      <trkpt lat="42.9319" lon="0.26081">
        <ele>1238.9502346195</ele>
        <time>2014-03-28T09:56:57Z</time>
      </trkpt>
      <trkpt lat="42.93192" lon="0.26082">
        <ele>1241.8563326302</ele>
        <time>2014-03-28T09:57:03Z</time>
      </trkpt>
      <trkpt lat="42.93193" lon="0.26081">
        <ele>1241.8563326302</ele>
        <time>2014-03-28T09:57:08Z</time>
      </trkpt>
      <trkpt lat="42.93199" lon="0.26086">
        <ele>1241.8563326302</ele>
        <time>2014-03-28T09:57:13Z</time>
      </trkpt>
      <trkpt lat="42.93201" lon="0.26087">
        <ele>1244.667689994</ele>
        <time>2014-03-28T09:57:18Z</time>
      </trkpt>
      <trkpt lat="42.93203" lon="0.26098">
        <ele>1244.667689994</ele>
        <time>2014-03-28T09:57:23Z</time>
      </trkpt>
      <trkpt lat="42.93202" lon="0.26095">
        <ele>1248.352355066</ele>
        <time>2014-03-28T09:57:48Z</time>
      </trkpt>
      <trkpt lat="42.93202" lon="0.26094">
        <ele>1248.352355066</ele>
        <time>2014-03-28T09:57:53Z</time>
      </trkpt>
      <trkpt lat="42.93204" lon="0.2609">
        <ele>1248.352355066</ele>
        <time>2014-03-28T09:57:58Z</time>
      </trkpt>
      <trkpt lat="42.93206" lon="0.26089">
        <ele>1248.352355066</ele>
        <time>2014-03-28T09:58:03Z</time>
      </trkpt>
      <trkpt lat="42.93202" lon="0.26077">
        <ele>1251.8450388581</ele>
        <time>2014-03-28T09:58:12Z</time>
      </trkpt>
      <trkpt lat="42.93199" lon="0.26072">
        <ele>1251.8450388581</ele>
        <time>2014-03-28T09:58:17Z</time>
      </trkpt>
      <trkpt lat="42.93195" lon="0.26067">
        <ele>1255.1537585129</ele>
        <time>2014-03-28T09:58:23Z</time>
      </trkpt>
      <trkpt lat="42.93193" lon="0.26064">
        <ele>1255.1537585129</ele>
        <time>2014-03-28T09:58:28Z</time>
      </trkpt>
      <trkpt lat="42.9319" lon="0.26061">
        <ele>1255.1537585129</ele>
        <time>2014-03-28T09:58:33Z</time>
      </trkpt>
      <trkpt lat="42.9319" lon="0.26062">
        <ele>1255.1537585129</ele>
        <time>2014-03-28T09:58:38Z</time>
      </trkpt>
      <trkpt lat="42.93181" lon="0.26053">
        <ele>1258.5460093287</ele>
        <time>2014-03-28T09:58:48Z</time>
      </trkpt>
      <trkpt lat="42.93175" lon="0.26048">
        <ele>1258.5460093287</ele>
        <time>2014-03-28T09:58:53Z</time>
      </trkpt>
      <trkpt lat="42.93174" lon="0.26045">
        <ele>1261.6931135255</ele>
        <time>2014-03-28T09:58:58Z</time>
      </trkpt>
      <trkpt lat="42.93167" lon="0.26037">
        <ele>1264.536374435</ele>
        <time>2014-03-28T09:59:03Z</time>
      </trkpt>
      <trkpt lat="42.93166" lon="0.26036">
        <ele>1264.536374435</ele>
        <time>2014-03-28T09:59:08Z</time>
      </trkpt>
      <trkpt lat="42.93164" lon="0.26031">
        <ele>1264.536374435</ele>
        <time>2014-03-28T09:59:18Z</time>
      </trkpt>
      <trkpt lat="42.93164" lon="0.26032">
        <ele>1264.536374435</ele>
        <time>2014-03-28T09:59:22Z</time>
      </trkpt>
      <trkpt lat="42.93168" lon="0.26028">
        <ele>1266.9071311868</ele>
        <time>2014-03-28T09:59:27Z</time>
      </trkpt>
      <trkpt lat="42.93168" lon="0.26029">
        <ele>1266.9071311868</ele>
        <time>2014-03-28T09:59:32Z</time>
      </trkpt>
      <trkpt lat="42.93166" lon="0.26019">
        <ele>1266.9071311868</ele>
        <time>2014-03-28T10:00:52Z</time>
      </trkpt>
      <trkpt lat="42.93166" lon="0.2602">
        <ele>1266.9071311868</ele>
        <time>2014-03-28T10:00:57Z</time>
      </trkpt>
      <trkpt lat="42.93166" lon="0.26015">
        <ele>1268.8091189828</ele>
        <time>2014-03-28T10:01:02Z</time>
      </trkpt>
      <trkpt lat="42.93175" lon="0.2602">
        <ele>1270.7084230571</ele>
        <time>2014-03-28T10:01:22Z</time>
      </trkpt>
      <trkpt lat="42.93176" lon="0.2602">
        <ele>1270.7084230571</ele>
        <time>2014-03-28T10:01:27Z</time>
      </trkpt>
      <trkpt lat="42.93179" lon="0.26022">
        <ele>1270.7084230571</ele>
        <time>2014-03-28T10:01:33Z</time>
      </trkpt>
      <trkpt lat="42.93185" lon="0.26024">
        <ele>1272.4605985437</ele>
        <time>2014-03-28T10:01:38Z</time>
      </trkpt>
      <trkpt lat="42.93189" lon="0.26025">
        <ele>1272.4605985437</ele>
        <time>2014-03-28T10:01:43Z</time>
      </trkpt>
      <trkpt lat="42.93192" lon="0.26024">
        <ele>1272.4605985437</ele>
        <time>2014-03-28T10:01:48Z</time>
      </trkpt>
      <trkpt lat="42.93195" lon="0.26023">
        <ele>1273.9900046943</ele>
        <time>2014-03-28T10:01:53Z</time>
      </trkpt>
      <trkpt lat="42.93197" lon="0.2602">
        <ele>1273.9900046943</ele>
        <time>2014-03-28T10:01:57Z</time>
      </trkpt>
      <trkpt lat="42.93195" lon="0.26016">
        <ele>1273.9900046943</ele>
        <time>2014-03-28T10:02:03Z</time>
      </trkpt>
      <trkpt lat="42.93194" lon="0.26011">
        <ele>1275.3858297576</ele>
        <time>2014-03-28T10:02:08Z</time>
      </trkpt>
      <trkpt lat="42.93194" lon="0.26007">
        <ele>1275.3858297576</ele>
        <time>2014-03-28T10:02:13Z</time>
      </trkpt>
      <trkpt lat="42.93194" lon="0.26001">
        <ele>1275.3858297576</ele>
        <time>2014-03-28T10:02:18Z</time>
      </trkpt>
      <trkpt lat="42.93193" lon="0.25996">
        <ele>1276.5582649799</ele>
        <time>2014-03-28T10:02:22Z</time>
      </trkpt>
      <trkpt lat="42.9319" lon="0.25989">
        <ele>1276.5582649799</ele>
        <time>2014-03-28T10:02:28Z</time>
      </trkpt>
      <trkpt lat="42.93189" lon="0.25985">
        <ele>1277.5401152979</ele>
        <time>2014-03-28T10:02:33Z</time>
      </trkpt>
      <trkpt lat="42.93189" lon="0.25976">
        <ele>1277.5401152979</ele>
        <time>2014-03-28T10:02:38Z</time>
      </trkpt>
      <trkpt lat="42.93188" lon="0.2597">
        <ele>1278.4776867398</ele>
        <time>2014-03-28T10:02:43Z</time>
      </trkpt>
      <trkpt lat="42.93187" lon="0.25968">
        <ele>1278.4776867398</ele>
        <time>2014-03-28T10:02:47Z</time>
      </trkpt>
      <trkpt lat="42.93189" lon="0.2597">
        <ele>1278.4776867398</ele>
        <time>2014-03-28T10:02:53Z</time>
      </trkpt>
      <trkpt lat="42.93185" lon="0.25969">
        <ele>1278.4776867398</ele>
        <time>2014-03-28T10:02:57Z</time>
      </trkpt>
      <trkpt lat="42.93183" lon="0.25971">
        <ele>1279.4346799834</ele>
        <time>2014-03-28T10:03:03Z</time>
      </trkpt>
      <trkpt lat="42.93181" lon="0.25974">
        <ele>1279.4346799834</ele>
        <time>2014-03-28T10:03:08Z</time>
      </trkpt>
      <trkpt lat="42.93177" lon="0.25977">
        <ele>1279.4346799834</ele>
        <time>2014-03-28T10:03:13Z</time>
      </trkpt>
      <trkpt lat="42.93174" lon="0.25978">
        <ele>1280.2539547447</ele>
        <time>2014-03-28T10:03:18Z</time>
      </trkpt>
      <trkpt lat="42.93172" lon="0.25979">
        <ele>1280.2539547447</ele>
        <time>2014-03-28T10:03:23Z</time>
      </trkpt>
      <trkpt lat="42.93172" lon="0.25979">
        <ele>1280.2539547447</ele>
        <time>2014-03-28T10:03:28Z</time>
      </trkpt>
      <trkpt lat="42.93177" lon="0.25967">
        <ele>1280.9632800331</ele>
        <time>2014-03-28T10:03:43Z</time>
      </trkpt>
      <trkpt lat="42.9318" lon="0.25967">
        <ele>1280.9632800331</ele>
        <time>2014-03-28T10:03:48Z</time>
      </trkpt>
      <trkpt lat="42.93183" lon="0.25965">
        <ele>1280.9632800331</ele>
        <time>2014-03-28T10:03:53Z</time>
      </trkpt>
      <trkpt lat="42.9318" lon="0.25966">
        <ele>1280.9632800331</ele>
        <time>2014-03-28T10:03:58Z</time>
      </trkpt>
      <trkpt lat="42.93171" lon="0.25962">
        <ele>1281.718426393</ele>
        <time>2014-03-28T10:04:23Z</time>
      </trkpt>
      <trkpt lat="42.93165" lon="0.25952">
        <ele>1282.2601015724</ele>
        <time>2014-03-28T10:04:43Z</time>
      </trkpt>
      <trkpt lat="42.93164" lon="0.25947">
        <ele>1282.2601015724</ele>
        <time>2014-03-28T10:04:48Z</time>
      </trkpt>
      <trkpt lat="42.93164" lon="0.25944">
        <ele>1282.2601015724</ele>
        <time>2014-03-28T10:04:53Z</time>
      </trkpt>
      <trkpt lat="42.93162" lon="0.25938">
        <ele>1282.6368889337</ele>
        <time>2014-03-28T10:04:58Z</time>
      </trkpt>
      <trkpt lat="42.9316" lon="0.25931">
        <ele>1282.6368889337</ele>
        <time>2014-03-28T10:05:03Z</time>
      </trkpt>
      <trkpt lat="42.93158" lon="0.25926">
        <ele>1282.9086706135</ele>
        <time>2014-03-28T10:05:08Z</time>
      </trkpt>
      <trkpt lat="42.93159" lon="0.25924">
        <ele>1282.9086706135</ele>
        <time>2014-03-28T10:05:13Z</time>
      </trkpt>
      <trkpt lat="42.93161" lon="0.25923">
        <ele>1282.9086706135</ele>
        <time>2014-03-28T10:05:18Z</time>
      </trkpt>
      <trkpt lat="42.9317" lon="0.25928">
        <ele>1283.2753170081</ele>
        <time>2014-03-28T10:05:28Z</time>
      </trkpt>
      <trkpt lat="42.93171" lon="0.25929">
        <ele>1283.2753170081</ele>
        <time>2014-03-28T10:05:33Z</time>
      </trkpt>
      <trkpt lat="42.93173" lon="0.25931">
        <ele>1283.2753170081</ele>
        <time>2014-03-28T10:05:38Z</time>
      </trkpt>
      <trkpt lat="42.93177" lon="0.25933">
        <ele>1283.2753170081</ele>
        <time>2014-03-28T10:05:43Z</time>
      </trkpt>
      <trkpt lat="42.93177" lon="0.25933">
        <ele>1283.2753170081</ele>
        <time>2014-03-28T10:05:48Z</time>
      </trkpt>
      <trkpt lat="42.93181" lon="0.25922">
        <ele>1283.8784862186</ele>
        <time>2014-03-28T10:06:13Z</time>
      </trkpt>
      <trkpt lat="42.93181" lon="0.25921">
        <ele>1283.8784862186</ele>
        <time>2014-03-28T10:06:18Z</time>
      </trkpt>
      <trkpt lat="42.93169" lon="0.25916">
        <ele>1284.3731584061</ele>
        <time>2014-03-28T10:06:33Z</time>
      </trkpt>
      <trkpt lat="42.9318" lon="0.25909">
        <ele>1284.872245541</ele>
        <time>2014-03-28T10:07:03Z</time>
      </trkpt>
      <trkpt lat="42.93183" lon="0.25905">
        <ele>1284.872245541</ele>
        <time>2014-03-28T10:07:08Z</time>
      </trkpt>
      <trkpt lat="42.93186" lon="0.25903">
        <ele>1284.872245541</ele>
        <time>2014-03-28T10:07:13Z</time>
      </trkpt>
      <trkpt lat="42.93188" lon="0.25901">
        <ele>1285.4082378409</ele>
        <time>2014-03-28T10:07:18Z</time>
      </trkpt>
      <trkpt lat="42.93191" lon="0.25899">
        <ele>1285.4082378409</ele>
        <time>2014-03-28T10:07:23Z</time>
      </trkpt>
      <trkpt lat="42.93185" lon="0.25899">
        <ele>1285.4082378409</ele>
        <time>2014-03-28T10:07:33Z</time>
      </trkpt>
      <trkpt lat="42.93184" lon="0.25897">
        <ele>1285.9678353283</ele>
        <time>2014-03-28T10:07:38Z</time>
      </trkpt>
      <trkpt lat="42.93185" lon="0.25895">
        <ele>1285.9678353283</ele>
        <time>2014-03-28T10:07:42Z</time>
      </trkpt>
      <trkpt lat="42.93186" lon="0.25895">
        <ele>1285.9678353283</ele>
        <time>2014-03-28T10:07:47Z</time>
      </trkpt>
      <trkpt lat="42.93192" lon="0.25891">
        <ele>1286.4521088378</ele>
        <time>2014-03-28T10:07:53Z</time>
      </trkpt>
      <trkpt lat="42.93195" lon="0.25887">
        <ele>1286.4521088378</ele>
        <time>2014-03-28T10:07:58Z</time>
      </trkpt>
      <trkpt lat="42.93197" lon="0.25884">
        <ele>1286.4521088378</ele>
        <time>2014-03-28T10:08:03Z</time>
      </trkpt>
      <trkpt lat="42.93207" lon="0.25881">
        <ele>1286.8559951561</ele>
        <time>2014-03-28T10:08:08Z</time>
      </trkpt>
      <trkpt lat="42.93208" lon="0.25876">
        <ele>1286.8559951561</ele>
        <time>2014-03-28T10:08:13Z</time>
      </trkpt>
      <trkpt lat="42.93207" lon="0.25873">
        <ele>1286.8559951561</ele>
        <time>2014-03-28T10:08:18Z</time>
      </trkpt>
      <trkpt lat="42.93207" lon="0.25873">
        <ele>1286.8559951561</ele>
        <time>2014-03-28T10:08:23Z</time>
      </trkpt>
      <trkpt lat="42.93214" lon="0.25867">
        <ele>1287.2758215095</ele>
        <time>2014-03-28T10:08:33Z</time>
      </trkpt>
      <trkpt lat="42.93216" lon="0.25866">
        <ele>1287.2758215095</ele>
        <time>2014-03-28T10:08:38Z</time>
      </trkpt>
      <trkpt lat="42.93217" lon="0.25864">
        <ele>1287.2758215095</ele>
        <time>2014-03-28T10:08:42Z</time>
      </trkpt>
      <trkpt lat="42.93226" lon="0.25871">
        <ele>1288.1321608014</ele>
        <time>2014-03-28T10:09:18Z</time>
      </trkpt>
      <trkpt lat="42.9323" lon="0.25874">
        <ele>1288.1321608014</ele>
        <time>2014-03-28T10:09:23Z</time>
      </trkpt>
      <trkpt lat="42.9323" lon="0.25874">
        <ele>1288.1321608014</ele>
        <time>2014-03-28T10:09:28Z</time>
      </trkpt>
      <trkpt lat="42.93231" lon="0.25861">
        <ele>1289.0784070334</ele>
        <time>2014-03-28T10:09:43Z</time>
      </trkpt>
      <trkpt lat="42.93238" lon="0.25857">
        <ele>1289.0784070334</ele>
        <time>2014-03-28T10:09:48Z</time>
      </trkpt>
      <trkpt lat="42.93241" lon="0.25858">
        <ele>1289.9804138037</ele>
        <time>2014-03-28T10:09:53Z</time>
      </trkpt>
      <trkpt lat="42.93243" lon="0.2586">
        <ele>1289.9804138037</ele>
        <time>2014-03-28T10:09:58Z</time>
      </trkpt>
      <trkpt lat="42.93244" lon="0.2586">
        <ele>1289.9804138037</ele>
        <time>2014-03-28T10:10:03Z</time>
      </trkpt>
      <trkpt lat="42.93251" lon="0.25853">
        <ele>1291.4921199349</ele>
        <time>2014-03-28T10:10:23Z</time>
      </trkpt>
      <trkpt lat="42.93254" lon="0.25852">
        <ele>1291.4921199349</ele>
        <time>2014-03-28T10:10:28Z</time>
      </trkpt>
      <trkpt lat="42.93256" lon="0.25852">
        <ele>1291.4921199349</ele>
        <time>2014-03-28T10:10:33Z</time>
      </trkpt>
      <trkpt lat="42.93262" lon="0.25857">
        <ele>1293.2809027044</ele>
        <time>2014-03-28T10:10:50Z</time>
      </trkpt>
      <trkpt lat="42.93262" lon="0.25856">
        <ele>1293.2809027044</ele>
        <time>2014-03-28T10:10:52Z</time>
      </trkpt>
      <trkpt lat="42.93263" lon="0.25855">
        <ele>1293.2809027044</ele>
        <time>2014-03-28T10:10:58Z</time>
      </trkpt>
      <trkpt lat="42.93265" lon="0.25852">
        <ele>1293.2809027044</ele>
        <time>2014-03-28T10:11:03Z</time>
      </trkpt>
      <trkpt lat="42.93262" lon="0.25849">
        <ele>1293.2809027044</ele>
        <time>2014-03-28T10:11:08Z</time>
      </trkpt>
      <trkpt lat="42.93259" lon="0.25841">
        <ele>1295.6429782757</ele>
        <time>2014-03-28T10:11:13Z</time>
      </trkpt>
      <trkpt lat="42.9326" lon="0.25838">
        <ele>1295.6429782757</ele>
        <time>2014-03-28T10:11:18Z</time>
      </trkpt>
      <trkpt lat="42.93266" lon="0.25836">
        <ele>1295.6429782757</ele>
        <time>2014-03-28T10:11:33Z</time>
      </trkpt>
      <trkpt lat="42.93267" lon="0.25836">
        <ele>1298.4908405384</ele>
        <time>2014-03-28T10:11:38Z</time>
      </trkpt>
      <trkpt lat="42.93269" lon="0.25835">
        <ele>1298.4908405384</ele>
        <time>2014-03-28T10:11:43Z</time>
      </trkpt>
      <trkpt lat="42.93273" lon="0.25835">
        <ele>1298.4908405384</ele>
        <time>2014-03-28T10:11:48Z</time>
      </trkpt>
      <trkpt lat="42.93275" lon="0.25835">
        <ele>1298.4908405384</ele>
        <time>2014-03-28T10:11:53Z</time>
      </trkpt>
      <trkpt lat="42.93276" lon="0.25829">
        <ele>1301.6987513404</ele>
        <time>2014-03-28T10:11:58Z</time>
      </trkpt>
      <trkpt lat="42.93279" lon="0.25825">
        <ele>1301.6987513404</ele>
        <time>2014-03-28T10:12:03Z</time>
      </trkpt>
      <trkpt lat="42.93281" lon="0.25823">
        <ele>1301.6987513404</ele>
        <time>2014-03-28T10:12:08Z</time>
      </trkpt>
      <trkpt lat="42.93284" lon="0.25821">
        <ele>1305.0482719409</ele>
        <time>2014-03-28T10:12:13Z</time>
      </trkpt>
      <trkpt lat="42.93287" lon="0.25819">
        <ele>1305.0482719409</ele>
        <time>2014-03-28T10:12:18Z</time>
      </trkpt>
      <trkpt lat="42.93289" lon="0.25814">
        <ele>1305.0482719409</ele>
        <time>2014-03-28T10:12:23Z</time>
      </trkpt>
      <trkpt lat="42.9329" lon="0.25813">
        <ele>1305.0482719409</ele>
        <time>2014-03-28T10:12:27Z</time>
      </trkpt>
      <trkpt lat="42.93293" lon="0.25805">
        <ele>1308.8265584544</ele>
        <time>2014-03-28T10:12:38Z</time>
      </trkpt>
      <trkpt lat="42.93291" lon="0.25802">
        <ele>1308.8265584544</ele>
        <time>2014-03-28T10:12:43Z</time>
      </trkpt>
      <trkpt lat="42.93291" lon="0.258">
        <ele>1308.8265584544</ele>
        <time>2014-03-28T10:12:47Z</time>
      </trkpt>
      <trkpt lat="42.93291" lon="0.25799">
        <ele>1308.8265584544</ele>
        <time>2014-03-28T10:12:53Z</time>
      </trkpt>
      <trkpt lat="42.93292" lon="0.2579">
        <ele>1313.024645303</ele>
        <time>2014-03-28T10:13:13Z</time>
      </trkpt>
      <trkpt lat="42.93291" lon="0.25785">
        <ele>1313.024645303</ele>
        <time>2014-03-28T10:13:18Z</time>
      </trkpt>
      <trkpt lat="42.93291" lon="0.25776">
        <ele>1317.1718984022</ele>
        <time>2014-03-28T10:13:23Z</time>
      </trkpt>
      <trkpt lat="42.9329" lon="0.25769">
        <ele>1317.1718984022</ele>
        <time>2014-03-28T10:13:28Z</time>
      </trkpt>
      <trkpt lat="42.9329" lon="0.25765">
        <ele>1317.1718984022</ele>
        <time>2014-03-28T10:13:33Z</time>
      </trkpt>
      <trkpt lat="42.93292" lon="0.25756">
        <ele>1322.0285489565</ele>
        <time>2014-03-28T10:13:37Z</time>
      </trkpt>
      <trkpt lat="42.93291" lon="0.25752">
        <ele>1322.0285489565</ele>
        <time>2014-03-28T10:13:42Z</time>
      </trkpt>
      <trkpt lat="42.93288" lon="0.25748">
        <ele>1322.0285489565</ele>
        <time>2014-03-28T10:13:48Z</time>
      </trkpt>
      <trkpt lat="42.93286" lon="0.25747">
        <ele>1327.3891417149</ele>
        <time>2014-03-28T10:13:53Z</time>
      </trkpt>
      <trkpt lat="42.93286" lon="0.25747">
        <ele>1327.3891417149</ele>
        <time>2014-03-28T10:13:58Z</time>
      </trkpt>
      <trkpt lat="42.93285" lon="0.2575">
        <ele>1327.3891417149</ele>
        <time>2014-03-28T10:14:13Z</time>
      </trkpt>
      <trkpt lat="42.93283" lon="0.25748">
        <ele>1327.3891417149</ele>
        <time>2014-03-28T10:14:18Z</time>
      </trkpt>
      <trkpt lat="42.93281" lon="0.25744">
        <ele>1333.9698763029</ele>
        <time>2014-03-28T10:14:23Z</time>
      </trkpt>
      <trkpt lat="42.93279" lon="0.25742">
        <ele>1333.9698763029</ele>
        <time>2014-03-28T10:14:28Z</time>
      </trkpt>
      <trkpt lat="42.93275" lon="0.25739">
        <ele>1333.9698763029</ele>
        <time>2014-03-28T10:14:33Z</time>
      </trkpt>
      <trkpt lat="42.93272" lon="0.25738">
        <ele>1340.4999310556</ele>
        <time>2014-03-28T10:14:38Z</time>
      </trkpt>
      <trkpt lat="42.93268" lon="0.25737">
        <ele>1340.4999310556</ele>
        <time>2014-03-28T10:14:42Z</time>
      </trkpt>
      <trkpt lat="42.93265" lon="0.25736">
        <ele>1340.4999310556</ele>
        <time>2014-03-28T10:14:48Z</time>
      </trkpt>
      <trkpt lat="42.93264" lon="0.25736">
        <ele>1340.4999310556</ele>
        <time>2014-03-28T10:14:53Z</time>
      </trkpt>
      <trkpt lat="42.93258" lon="0.25735">
        <ele>1347.1711687449</ele>
        <time>2014-03-28T10:15:03Z</time>
      </trkpt>
      <trkpt lat="42.93256" lon="0.25733">
        <ele>1347.1711687449</ele>
        <time>2014-03-28T10:15:08Z</time>
      </trkpt>
      <trkpt lat="42.93257" lon="0.25734">
        <ele>1347.1711687449</ele>
        <time>2014-03-28T10:15:13Z</time>
      </trkpt>
      <trkpt lat="42.93254" lon="0.25738">
        <ele>1347.1711687449</ele>
        <time>2014-03-28T10:16:47Z</time>
      </trkpt>
      <trkpt lat="42.93249" lon="0.25748">
        <ele>1354.6366926002</ele>
        <time>2014-03-28T10:19:12Z</time>
      </trkpt>
      <trkpt lat="42.93249" lon="0.25749">
        <ele>1354.6366926002</ele>
        <time>2014-03-28T10:19:17Z</time>
      </trkpt>
      <trkpt lat="42.93252" lon="0.25736">
        <ele>1361.4820388635</ele>
        <time>2014-03-28T10:20:27Z</time>
      </trkpt>
      <trkpt lat="42.93248" lon="0.25745">
        <ele>1361.4820388635</ele>
        <time>2014-03-28T10:21:02Z</time>
      </trkpt>
      <trkpt lat="42.93249" lon="0.25748">
        <ele>1367.6523778937</ele>
        <time>2014-03-28T10:21:47Z</time>
      </trkpt>
      <trkpt lat="42.93248" lon="0.25749">
        <ele>1367.6523778937</ele>
        <time>2014-03-28T10:21:52Z</time>
      </trkpt>
      <trkpt lat="42.93249" lon="0.25751">
        <ele>1367.6523778937</ele>
        <time>2014-03-28T10:22:02Z</time>
      </trkpt>
      <trkpt lat="42.93249" lon="0.25751">
        <ele>1367.6523778937</ele>
        <time>2014-03-28T10:22:07Z</time>
      </trkpt>
      <trkpt lat="42.93245" lon="0.25737">
        <ele>1373.5890246097</ele>
        <time>2014-03-28T10:27:37Z</time>
      </trkpt>
      <trkpt lat="42.93242" lon="0.25734">
        <ele>1373.5890246097</ele>
        <time>2014-03-28T10:27:42Z</time>
      </trkpt>
      <trkpt lat="42.93239" lon="0.25732">
        <ele>1373.5890246097</ele>
        <time>2014-03-28T10:27:47Z</time>
      </trkpt>
      <trkpt lat="42.93236" lon="0.2573">
        <ele>1378.8227159956</ele>
        <time>2014-03-28T10:27:52Z</time>
      </trkpt>
      <trkpt lat="42.93233" lon="0.25728">
        <ele>1378.8227159956</ele>
        <time>2014-03-28T10:27:57Z</time>
      </trkpt>
      <trkpt lat="42.93229" lon="0.25725">
        <ele>1378.8227159956</ele>
        <time>2014-03-28T10:28:02Z</time>
      </trkpt>
      <trkpt lat="42.93226" lon="0.25724">
        <ele>1383.4108853525</ele>
        <time>2014-03-28T10:28:07Z</time>
      </trkpt>
      <trkpt lat="42.93223" lon="0.25724">
        <ele>1383.4108853525</ele>
        <time>2014-03-28T10:28:12Z</time>
      </trkpt>
      <trkpt lat="42.9322" lon="0.25722">
        <ele>1383.4108853525</ele>
        <time>2014-03-28T10:28:17Z</time>
      </trkpt>
      <trkpt lat="42.93216" lon="0.2572">
        <ele>1387.4664817693</ele>
        <time>2014-03-28T10:28:22Z</time>
      </trkpt>
      <trkpt lat="42.93212" lon="0.2572">
        <ele>1387.4664817693</ele>
        <time>2014-03-28T10:28:27Z</time>
      </trkpt>
      <trkpt lat="42.93207" lon="0.25721">
        <ele>1387.4664817693</ele>
        <time>2014-03-28T10:28:32Z</time>
      </trkpt>
      <trkpt lat="42.93204" lon="0.2572">
        <ele>1390.9950518259</ele>
        <time>2014-03-28T10:28:37Z</time>
      </trkpt>
      <trkpt lat="42.93199" lon="0.2572">
        <ele>1390.9950518259</ele>
        <time>2014-03-28T10:28:42Z</time>
      </trkpt>
      <trkpt lat="42.93196" lon="0.25718">
        <ele>1390.9950518259</ele>
        <time>2014-03-28T10:28:47Z</time>
      </trkpt>
      <trkpt lat="42.93193" lon="0.25717">
        <ele>1394.118773998</ele>
        <time>2014-03-28T10:28:52Z</time>
      </trkpt>
      <trkpt lat="42.93189" lon="0.25715">
        <ele>1394.118773998</ele>
        <time>2014-03-28T10:28:57Z</time>
      </trkpt>
      <trkpt lat="42.93185" lon="0.25714">
        <ele>1394.118773998</ele>
        <time>2014-03-28T10:29:02Z</time>
      </trkpt>
      <trkpt lat="42.93181" lon="0.25714">
        <ele>1396.8225480779</ele>
        <time>2014-03-28T10:29:07Z</time>
      </trkpt>
      <trkpt lat="42.93176" lon="0.25714">
        <ele>1396.8225480779</ele>
        <time>2014-03-28T10:29:12Z</time>
      </trkpt>
      <trkpt lat="42.93172" lon="0.25712">
        <ele>1396.8225480779</ele>
        <time>2014-03-28T10:29:17Z</time>
      </trkpt>
      <trkpt lat="42.93169" lon="0.25712">
        <ele>1399.1370404256</ele>
        <time>2014-03-28T10:29:22Z</time>
      </trkpt>
      <trkpt lat="42.93165" lon="0.2571">
        <ele>1399.1370404256</ele>
        <time>2014-03-28T10:29:27Z</time>
      </trkpt>
      <trkpt lat="42.93162" lon="0.25707">
        <ele>1399.1370404256</ele>
        <time>2014-03-28T10:29:32Z</time>
      </trkpt>
      <trkpt lat="42.9316" lon="0.25704">
        <ele>1401.0775733995</ele>
        <time>2014-03-28T10:29:37Z</time>
      </trkpt>
      <trkpt lat="42.93156" lon="0.25703">
        <ele>1401.0775733995</ele>
        <time>2014-03-28T10:29:42Z</time>
      </trkpt>
      <trkpt lat="42.93153" lon="0.257">
        <ele>1401.0775733995</ele>
        <time>2014-03-28T10:29:47Z</time>
      </trkpt>
      <trkpt lat="42.93149" lon="0.257">
        <ele>1402.6884222236</ele>
        <time>2014-03-28T10:29:52Z</time>
      </trkpt>
      <trkpt lat="42.93146" lon="0.25696">
        <ele>1402.6884222236</ele>
        <time>2014-03-28T10:29:57Z</time>
      </trkpt>
      <trkpt lat="42.93143" lon="0.25694">
        <ele>1402.6884222236</ele>
        <time>2014-03-28T10:30:02Z</time>
      </trkpt>
      <trkpt lat="42.9314" lon="0.25692">
        <ele>1403.9973077752</ele>
        <time>2014-03-28T10:30:07Z</time>
      </trkpt>
      <trkpt lat="42.93137" lon="0.25688">
        <ele>1403.9973077752</ele>
        <time>2014-03-28T10:30:12Z</time>
      </trkpt>
      <trkpt lat="42.93136" lon="0.25686">
        <ele>1403.9973077752</ele>
        <time>2014-03-28T10:30:17Z</time>
      </trkpt>
      <trkpt lat="42.93134" lon="0.25681">
        <ele>1405.0741549829</ele>
        <time>2014-03-28T10:30:22Z</time>
      </trkpt>
      <trkpt lat="42.93134" lon="0.25679">
        <ele>1405.0741549829</ele>
        <time>2014-03-28T10:30:27Z</time>
      </trkpt>
      <trkpt lat="42.93131" lon="0.25677">
        <ele>1405.0741549829</ele>
        <time>2014-03-28T10:30:32Z</time>
      </trkpt>
      <trkpt lat="42.9313" lon="0.25675">
        <ele>1405.0741549829</ele>
        <time>2014-03-28T10:30:37Z</time>
      </trkpt>
      <trkpt lat="42.93127" lon="0.25673">
        <ele>1406.0133599269</ele>
        <time>2014-03-28T10:30:42Z</time>
      </trkpt>
      <trkpt lat="42.93124" lon="0.25673">
        <ele>1406.0133599269</ele>
        <time>2014-03-28T10:30:47Z</time>
      </trkpt>
      <trkpt lat="42.93121" lon="0.25673">
        <ele>1406.0133599269</ele>
        <time>2014-03-28T10:30:52Z</time>
      </trkpt>
      <trkpt lat="42.93117" lon="0.25673">
        <ele>1406.7875904129</ele>
        <time>2014-03-28T10:30:57Z</time>
      </trkpt>
      <trkpt lat="42.93114" lon="0.25673">
        <ele>1406.7875904129</ele>
        <time>2014-03-28T10:31:02Z</time>
      </trkpt>
      <trkpt lat="42.9311" lon="0.25674">
        <ele>1406.7875904129</ele>
        <time>2014-03-28T10:31:07Z</time>
      </trkpt>
      <trkpt lat="42.93107" lon="0.25674">
        <ele>1407.472945781</ele>
        <time>2014-03-28T10:31:12Z</time>
      </trkpt>
      <trkpt lat="42.93104" lon="0.25675">
        <ele>1407.472945781</ele>
        <time>2014-03-28T10:31:17Z</time>
      </trkpt>
      <trkpt lat="42.93101" lon="0.25674">
        <ele>1407.472945781</ele>
        <time>2014-03-28T10:31:22Z</time>
      </trkpt>
      <trkpt lat="42.93098" lon="0.25673">
        <ele>1407.472945781</ele>
        <time>2014-03-28T10:31:27Z</time>
      </trkpt>
      <trkpt lat="42.93096" lon="0.25673">
        <ele>1408.1978870782</ele>
        <time>2014-03-28T10:31:32Z</time>
      </trkpt>
      <trkpt lat="42.93093" lon="0.25674">
        <ele>1408.1978870782</ele>
        <time>2014-03-28T10:31:37Z</time>
      </trkpt>
      <trkpt lat="42.9309" lon="0.25674">
        <ele>1408.1978870782</ele>
        <time>2014-03-28T10:31:42Z</time>
      </trkpt>
      <trkpt lat="42.93088" lon="0.25674">
        <ele>1408.1978870782</ele>
        <time>2014-03-28T10:31:47Z</time>
      </trkpt>
      <trkpt lat="42.93083" lon="0.25673">
        <ele>1409.0381287176</ele>
        <time>2014-03-28T10:31:52Z</time>
      </trkpt>
      <trkpt lat="42.93079" lon="0.25673">
        <ele>1409.0381287176</ele>
        <time>2014-03-28T10:31:57Z</time>
      </trkpt>
      <trkpt lat="42.93075" lon="0.25672">
        <ele>1409.0381287176</ele>
        <time>2014-03-28T10:32:02Z</time>
      </trkpt>
      <trkpt lat="42.93072" lon="0.25671">
        <ele>1409.9049897712</ele>
        <time>2014-03-28T10:32:07Z</time>
      </trkpt>
      <trkpt lat="42.9307" lon="0.2567">
        <ele>1409.9049897712</ele>
        <time>2014-03-28T10:32:12Z</time>
      </trkpt>
      <trkpt lat="42.93067" lon="0.25669">
        <ele>1409.9049897712</ele>
        <time>2014-03-28T10:32:17Z</time>
      </trkpt>
      <trkpt lat="42.93064" lon="0.25671">
        <ele>1409.9049897712</ele>
        <time>2014-03-28T10:32:22Z</time>
      </trkpt>
      <trkpt lat="42.93062" lon="0.25671">
        <ele>1410.874743649</ele>
        <time>2014-03-28T10:32:27Z</time>
      </trkpt>
      <trkpt lat="42.93059" lon="0.25671">
        <ele>1410.874743649</ele>
        <time>2014-03-28T10:32:32Z</time>
      </trkpt>
      <trkpt lat="42.93056" lon="0.25672">
        <ele>1410.874743649</ele>
        <time>2014-03-28T10:32:37Z</time>
      </trkpt>
      <trkpt lat="42.93053" lon="0.25672">
        <ele>1411.8592241166</ele>
        <time>2014-03-28T10:32:42Z</time>
      </trkpt>
      <trkpt lat="42.93049" lon="0.25672">
        <ele>1411.8592241166</ele>
        <time>2014-03-28T10:32:47Z</time>
      </trkpt>
      <trkpt lat="42.93047" lon="0.25672">
        <ele>1411.8592241166</ele>
        <time>2014-03-28T10:32:52Z</time>
      </trkpt>
      <trkpt lat="42.93045" lon="0.25671">
        <ele>1411.8592241166</ele>
        <time>2014-03-28T10:32:57Z</time>
      </trkpt>
      <trkpt lat="42.93042" lon="0.2567">
        <ele>1413.0504700228</ele>
        <time>2014-03-28T10:33:02Z</time>
      </trkpt>
      <trkpt lat="42.93038" lon="0.25671">
        <ele>1413.0504700228</ele>
        <time>2014-03-28T10:33:07Z</time>
      </trkpt>
      <trkpt lat="42.93035" lon="0.25671">
        <ele>1413.0504700228</ele>
        <time>2014-03-28T10:33:12Z</time>
      </trkpt>
      <trkpt lat="42.93033" lon="0.25673">
        <ele>1414.2510887686</ele>
        <time>2014-03-28T10:33:17Z</time>
      </trkpt>
      <trkpt lat="42.9303" lon="0.25673">
        <ele>1414.2510887686</ele>
        <time>2014-03-28T10:33:22Z</time>
      </trkpt>
      <trkpt lat="42.93027" lon="0.25674">
        <ele>1414.2510887686</ele>
        <time>2014-03-28T10:33:27Z</time>
      </trkpt>
      <trkpt lat="42.93024" lon="0.25675">
        <ele>1415.4654390079</ele>
        <time>2014-03-28T10:33:32Z</time>
      </trkpt>
      <trkpt lat="42.93021" lon="0.25674">
        <ele>1415.4654390079</ele>
        <time>2014-03-28T10:33:37Z</time>
      </trkpt>
      <trkpt lat="42.93019" lon="0.25674">
        <ele>1415.4654390079</ele>
        <time>2014-03-28T10:33:42Z</time>
      </trkpt>
      <trkpt lat="42.93016" lon="0.25673">
        <ele>1415.4654390079</ele>
        <time>2014-03-28T10:33:47Z</time>
      </trkpt>
      <trkpt lat="42.93014" lon="0.25672">
        <ele>1416.8847878376</ele>
        <time>2014-03-28T10:33:52Z</time>
      </trkpt>
      <trkpt lat="42.93012" lon="0.25671">
        <ele>1416.8847878376</ele>
        <time>2014-03-28T10:33:57Z</time>
      </trkpt>
      <trkpt lat="42.9301" lon="0.25671">
        <ele>1416.8847878376</ele>
        <time>2014-03-28T10:34:02Z</time>
      </trkpt>
      <trkpt lat="42.93008" lon="0.25672">
        <ele>1416.8847878376</ele>
        <time>2014-03-28T10:34:07Z</time>
      </trkpt>
      <trkpt lat="42.93007" lon="0.25671">
        <ele>1416.8847878376</ele>
        <time>2014-03-28T10:34:12Z</time>
      </trkpt>
      <trkpt lat="42.93003" lon="0.25672">
        <ele>1418.6280471815</ele>
        <time>2014-03-28T10:34:27Z</time>
      </trkpt>
      <trkpt lat="42.93002" lon="0.25673">
        <ele>1418.6280471815</ele>
        <time>2014-03-28T10:34:32Z</time>
      </trkpt>
      <trkpt lat="42.93" lon="0.25672">
        <ele>1418.6280471815</ele>
        <time>2014-03-28T10:34:37Z</time>
      </trkpt>
      <trkpt lat="42.92999" lon="0.25673">
        <ele>1418.6280471815</ele>
        <time>2014-03-28T10:34:42Z</time>
      </trkpt>
      <trkpt lat="42.92995" lon="0.25675">
        <ele>1418.6280471815</ele>
        <time>2014-03-28T10:34:47Z</time>
      </trkpt>
      <trkpt lat="42.92993" lon="0.25677">
        <ele>1420.3000045038</ele>
        <time>2014-03-28T10:34:52Z</time>
      </trkpt>
      <trkpt lat="42.92991" lon="0.25678">
        <ele>1420.3000045038</ele>
        <time>2014-03-28T10:34:57Z</time>
      </trkpt>
      <trkpt lat="42.9299" lon="0.25679">
        <ele>1420.3000045038</ele>
        <time>2014-03-28T10:35:02Z</time>
      </trkpt>
      <trkpt lat="42.92985" lon="0.25681">
        <ele>1421.8228054314</ele>
        <time>2014-03-28T10:35:12Z</time>
      </trkpt>
      <trkpt lat="42.92982" lon="0.25685">
        <ele>1421.8228054314</ele>
        <time>2014-03-28T10:35:17Z</time>
      </trkpt>
      <trkpt lat="42.92979" lon="0.25686">
        <ele>1421.8228054314</ele>
        <time>2014-03-28T10:35:22Z</time>
      </trkpt>
      <trkpt lat="42.92977" lon="0.25686">
        <ele>1421.8228054314</ele>
        <time>2014-03-28T10:35:27Z</time>
      </trkpt>
      <trkpt lat="42.92975" lon="0.25687">
        <ele>1423.2831555237</ele>
        <time>2014-03-28T10:35:32Z</time>
      </trkpt>
      <trkpt lat="42.92975" lon="0.25687">
        <ele>1423.2831555237</ele>
        <time>2014-03-28T10:35:37Z</time>
      </trkpt>
      <trkpt lat="42.92971" lon="0.25687">
        <ele>1423.2831555237</ele>
        <time>2014-03-28T10:35:52Z</time>
      </trkpt>
      <trkpt lat="42.92969" lon="0.25687">
        <ele>1423.2831555237</ele>
        <time>2014-03-28T10:35:57Z</time>
      </trkpt>
      <trkpt lat="42.92965" lon="0.25689">
        <ele>1424.7902854415</ele>
        <time>2014-03-28T10:36:02Z</time>
      </trkpt>
      <trkpt lat="42.92963" lon="0.25688">
        <ele>1424.7902854415</ele>
        <time>2014-03-28T10:36:07Z</time>
      </trkpt>
      <trkpt lat="42.92961" lon="0.25688">
        <ele>1424.7902854415</ele>
        <time>2014-03-28T10:36:12Z</time>
      </trkpt>
      <trkpt lat="42.92959" lon="0.25686">
        <ele>1424.7902854415</ele>
        <time>2014-03-28T10:36:17Z</time>
      </trkpt>
      <trkpt lat="42.92959" lon="0.25682">
        <ele>1426.2578200381</ele>
        <time>2014-03-28T10:36:22Z</time>
      </trkpt>
      <trkpt lat="42.92959" lon="0.25679">
        <ele>1426.2578200381</ele>
        <time>2014-03-28T10:36:27Z</time>
      </trkpt>
      <trkpt lat="42.92958" lon="0.25675">
        <ele>1426.2578200381</ele>
        <time>2014-03-28T10:36:32Z</time>
      </trkpt>
      <trkpt lat="42.92958" lon="0.25672">
        <ele>1426.2578200381</ele>
        <time>2014-03-28T10:36:37Z</time>
      </trkpt>
      <trkpt lat="42.92958" lon="0.25669">
        <ele>1427.6201424204</ele>
        <time>2014-03-28T10:36:42Z</time>
      </trkpt>
      <trkpt lat="42.92958" lon="0.25664">
        <ele>1427.6201424204</ele>
        <time>2014-03-28T10:36:47Z</time>
      </trkpt>
      <trkpt lat="42.92957" lon="0.25661">
        <ele>1427.6201424204</ele>
        <time>2014-03-28T10:36:52Z</time>
      </trkpt>
      <trkpt lat="42.92957" lon="0.25658">
        <ele>1427.6201424204</ele>
        <time>2014-03-28T10:36:57Z</time>
      </trkpt>
      <trkpt lat="42.92956" lon="0.25655">
        <ele>1429.03280623</ele>
        <time>2014-03-28T10:37:02Z</time>
      </trkpt>
      <trkpt lat="42.92956" lon="0.25654">
        <ele>1429.03280623</ele>
        <time>2014-03-28T10:37:07Z</time>
      </trkpt>
      <trkpt lat="42.92951" lon="0.25643">
        <ele>1430.8414396131</ele>
        <time>2014-03-28T10:37:52Z</time>
      </trkpt>
      <trkpt lat="42.92949" lon="0.2564">
        <ele>1430.8414396131</ele>
        <time>2014-03-28T10:37:57Z</time>
      </trkpt>
      <trkpt lat="42.92949" lon="0.25637">
        <ele>1430.8414396131</ele>
        <time>2014-03-28T10:38:02Z</time>
      </trkpt>
      <trkpt lat="42.92949" lon="0.25633">
        <ele>1430.8414396131</ele>
        <time>2014-03-28T10:38:07Z</time>
      </trkpt>
      <trkpt lat="42.92948" lon="0.25629">
        <ele>1432.6733230212</ele>
        <time>2014-03-28T10:38:12Z</time>
      </trkpt>
      <trkpt lat="42.92948" lon="0.25627">
        <ele>1432.6733230212</ele>
        <time>2014-03-28T10:38:17Z</time>
      </trkpt>
      <trkpt lat="42.92947" lon="0.25627">
        <ele>1432.6733230212</ele>
        <time>2014-03-28T10:38:22Z</time>
      </trkpt>
      <trkpt lat="42.92944" lon="0.25621">
        <ele>1432.6733230212</ele>
        <time>2014-03-28T10:38:42Z</time>
      </trkpt>
      <trkpt lat="42.92943" lon="0.25618">
        <ele>1434.7449723437</ele>
        <time>2014-03-28T10:38:47Z</time>
      </trkpt>
      <trkpt lat="42.92941" lon="0.25616">
        <ele>1434.7449723437</ele>
        <time>2014-03-28T10:38:52Z</time>
      </trkpt>
      <trkpt lat="42.92939" lon="0.25616">
        <ele>1434.7449723437</ele>
        <time>2014-03-28T10:38:57Z</time>
      </trkpt>
      <trkpt lat="42.92934" lon="0.25608">
        <ele>1436.9679934956</ele>
        <time>2014-03-28T10:39:17Z</time>
      </trkpt>
      <trkpt lat="42.92933" lon="0.25608">
        <ele>1436.9679934956</ele>
        <time>2014-03-28T10:39:22Z</time>
      </trkpt>
      <trkpt lat="42.92927" lon="0.25618">
        <ele>1439.4761226294</ele>
        <time>2014-03-28T10:39:57Z</time>
      </trkpt>
      <trkpt lat="42.92925" lon="0.2562">
        <ele>1439.4761226294</ele>
        <time>2014-03-28T10:40:02Z</time>
      </trkpt>
      <trkpt lat="42.92924" lon="0.25623">
        <ele>1439.4761226294</ele>
        <time>2014-03-28T10:40:07Z</time>
      </trkpt>
      <trkpt lat="42.9292" lon="0.25628">
        <ele>1441.9456277925</ele>
        <time>2014-03-28T10:40:17Z</time>
      </trkpt>
      <trkpt lat="42.92919" lon="0.25632">
        <ele>1441.9456277925</ele>
        <time>2014-03-28T10:40:22Z</time>
      </trkpt>
      <trkpt lat="42.92917" lon="0.25634">
        <ele>1441.9456277925</ele>
        <time>2014-03-28T10:40:27Z</time>
      </trkpt>
      <trkpt lat="42.92917" lon="0.25635">
        <ele>1441.9456277925</ele>
        <time>2014-03-28T10:40:32Z</time>
      </trkpt>
      <trkpt lat="42.92916" lon="0.25638">
        <ele>1441.9456277925</ele>
        <time>2014-03-28T10:41:12Z</time>
      </trkpt>
      <trkpt lat="42.92915" lon="0.25637">
        <ele>1444.9700640183</ele>
        <time>2014-03-28T10:41:17Z</time>
      </trkpt>
      <trkpt lat="42.92914" lon="0.25633">
        <ele>1444.9700640183</ele>
        <time>2014-03-28T10:41:22Z</time>
      </trkpt>
      <trkpt lat="42.92914" lon="0.2563">
        <ele>1444.9700640183</ele>
        <time>2014-03-28T10:41:27Z</time>
      </trkpt>
      <trkpt lat="42.92912" lon="0.25625">
        <ele>1447.8439770884</ele>
        <time>2014-03-28T10:41:32Z</time>
      </trkpt>
      <trkpt lat="42.9291" lon="0.25622">
        <ele>1447.8439770884</ele>
        <time>2014-03-28T10:41:37Z</time>
      </trkpt>
      <trkpt lat="42.92908" lon="0.2562">
        <ele>1447.8439770884</ele>
        <time>2014-03-28T10:41:42Z</time>
      </trkpt>
      <trkpt lat="42.92902" lon="0.25623">
        <ele>1450.8652175505</ele>
        <time>2014-03-28T10:42:02Z</time>
      </trkpt>
      <trkpt lat="42.92901" lon="0.25626">
        <ele>1450.8652175505</ele>
        <time>2014-03-28T10:42:07Z</time>
      </trkpt>
      <trkpt lat="42.929" lon="0.25628">
        <ele>1450.8652175505</ele>
        <time>2014-03-28T10:42:12Z</time>
      </trkpt>
      <trkpt lat="42.92899" lon="0.25629">
        <ele>1450.8652175505</ele>
        <time>2014-03-28T10:42:17Z</time>
      </trkpt>
      <trkpt lat="42.92896" lon="0.25633">
        <ele>1453.876945896</ele>
        <time>2014-03-28T10:42:22Z</time>
      </trkpt>
      <trkpt lat="42.92896" lon="0.25633">
        <ele>1453.876945896</ele>
        <time>2014-03-28T10:42:27Z</time>
      </trkpt>
      <trkpt lat="42.92896" lon="0.2563">
        <ele>1453.876945896</ele>
        <time>2014-03-28T10:43:02Z</time>
      </trkpt>
      <trkpt lat="42.92895" lon="0.25627">
        <ele>1453.876945896</ele>
        <time>2014-03-28T10:43:07Z</time>
      </trkpt>
      <trkpt lat="42.92894" lon="0.25623">
        <ele>1453.876945896</ele>
        <time>2014-03-28T10:43:12Z</time>
      </trkpt>
      <trkpt lat="42.92892" lon="0.25619">
        <ele>1457.2526184155</ele>
        <time>2014-03-28T10:43:17Z</time>
      </trkpt>
      <trkpt lat="42.92891" lon="0.25617">
        <ele>1457.2526184155</ele>
        <time>2014-03-28T10:43:22Z</time>
      </trkpt>
      <trkpt lat="42.92882" lon="0.25614">
        <ele>1460.8183950521</ele>
        <time>2014-03-28T10:43:52Z</time>
      </trkpt>
      <trkpt lat="42.92879" lon="0.25618">
        <ele>1460.8183950521</ele>
        <time>2014-03-28T10:43:57Z</time>
      </trkpt>
      <trkpt lat="42.92876" lon="0.25621">
        <ele>1460.8183950521</ele>
        <time>2014-03-28T10:44:02Z</time>
      </trkpt>
      <trkpt lat="42.92876" lon="0.25622">
        <ele>1460.8183950521</ele>
        <time>2014-03-28T10:44:07Z</time>
      </trkpt>
      <trkpt lat="42.92878" lon="0.25619">
        <ele>1464.5999878213</ele>
        <time>2014-03-28T10:44:32Z</time>
      </trkpt>
      <trkpt lat="42.92878" lon="0.25619">
        <ele>1464.5999878213</ele>
        <time>2014-03-28T10:44:37Z</time>
      </trkpt>
      <trkpt lat="42.9287" lon="0.25616">
        <ele>1464.5999878213</ele>
        <time>2014-03-28T10:44:57Z</time>
      </trkpt>
      <trkpt lat="42.92869" lon="0.25617">
        <ele>1468.3756087255</ele>
        <time>2014-03-28T10:45:02Z</time>
      </trkpt>
      <trkpt lat="42.92866" lon="0.25622">
        <ele>1468.3756087255</ele>
        <time>2014-03-28T10:45:07Z</time>
      </trkpt>
      <trkpt lat="42.92863" lon="0.25624">
        <ele>1468.3756087255</ele>
        <time>2014-03-28T10:45:12Z</time>
      </trkpt>
      <trkpt lat="42.9286" lon="0.25625">
        <ele>1471.9541858247</ele>
        <time>2014-03-28T10:45:17Z</time>
      </trkpt>
      <trkpt lat="42.92859" lon="0.25626">
        <ele>1471.9541858247</ele>
        <time>2014-03-28T10:45:22Z</time>
      </trkpt>
      <trkpt lat="42.92858" lon="0.25626">
        <ele>1471.9541858247</ele>
        <time>2014-03-28T10:45:27Z</time>
      </trkpt>
      <trkpt lat="42.92855" lon="0.25631">
        <ele>1471.9541858247</ele>
        <time>2014-03-28T10:45:47Z</time>
      </trkpt>
      <trkpt lat="42.92852" lon="0.25631">
        <ele>1475.6348108265</ele>
        <time>2014-03-28T10:45:52Z</time>
      </trkpt>
      <trkpt lat="42.92848" lon="0.25632">
        <ele>1475.6348108265</ele>
        <time>2014-03-28T10:45:57Z</time>
      </trkpt>
      <trkpt lat="42.92845" lon="0.25632">
        <ele>1475.6348108265</ele>
        <time>2014-03-28T10:46:02Z</time>
      </trkpt>
      <trkpt lat="42.92843" lon="0.25634">
        <ele>1479.0890700522</ele>
        <time>2014-03-28T10:46:07Z</time>
      </trkpt>
      <trkpt lat="42.92842" lon="0.25633">
        <ele>1479.0890700522</ele>
        <time>2014-03-28T10:46:12Z</time>
      </trkpt>
      <trkpt lat="42.92846" lon="0.25625">
        <ele>1479.0890700522</ele>
        <time>2014-03-28T10:46:27Z</time>
      </trkpt>
      <trkpt lat="42.92848" lon="0.2562">
        <ele>1482.3736159401</ele>
        <time>2014-03-28T10:46:32Z</time>
      </trkpt>
      <trkpt lat="42.9285" lon="0.25615">
        <ele>1482.3736159401</ele>
        <time>2014-03-28T10:46:37Z</time>
      </trkpt>
      <trkpt lat="42.92852" lon="0.25611">
        <ele>1482.3736159401</ele>
        <time>2014-03-28T10:46:42Z</time>
      </trkpt>
      <trkpt lat="42.92855" lon="0.25606">
        <ele>1485.3829283769</ele>
        <time>2014-03-28T10:46:47Z</time>
      </trkpt>
      <trkpt lat="42.92858" lon="0.25604">
        <ele>1485.3829283769</ele>
        <time>2014-03-28T10:46:52Z</time>
      </trkpt>
      <trkpt lat="42.92857" lon="0.25605">
        <ele>1485.3829283769</ele>
        <time>2014-03-28T10:46:57Z</time>
      </trkpt>
      <trkpt lat="42.92859" lon="0.25602">
        <ele>1485.3829283769</ele>
        <time>2014-03-28T10:47:02Z</time>
      </trkpt>
      <trkpt lat="42.9286" lon="0.25601">
        <ele>1488.2794515025</ele>
        <time>2014-03-28T10:47:07Z</time>
      </trkpt>
      <trkpt lat="42.9286" lon="0.25597">
        <ele>1488.2794515025</ele>
        <time>2014-03-28T10:47:12Z</time>
      </trkpt>
      <trkpt lat="42.92857" lon="0.25593">
        <ele>1488.2794515025</ele>
        <time>2014-03-28T10:47:17Z</time>
      </trkpt>
      <trkpt lat="42.92858" lon="0.25589">
        <ele>1490.9546563418</ele>
        <time>2014-03-28T10:47:22Z</time>
      </trkpt>
      <trkpt lat="42.92857" lon="0.25586">
        <ele>1490.9546563418</ele>
        <time>2014-03-28T10:47:27Z</time>
      </trkpt>
      <trkpt lat="42.92856" lon="0.25585">
        <ele>1490.9546563418</ele>
        <time>2014-03-28T10:47:32Z</time>
      </trkpt>
      <trkpt lat="42.92854" lon="0.25582">
        <ele>1490.9546563418</ele>
        <time>2014-03-28T10:47:42Z</time>
      </trkpt>
      <trkpt lat="42.92853" lon="0.25579">
        <ele>1490.9546563418</ele>
        <time>2014-03-28T10:47:47Z</time>
      </trkpt>
      <trkpt lat="42.92853" lon="0.25578">
        <ele>1493.6256968046</ele>
        <time>2014-03-28T10:47:52Z</time>
      </trkpt>
      <trkpt lat="42.92848" lon="0.25572">
        <ele>1493.6256968046</ele>
        <time>2014-03-28T10:48:02Z</time>
      </trkpt>
      <trkpt lat="42.92847" lon="0.2557">
        <ele>1493.6256968046</ele>
        <time>2014-03-28T10:48:07Z</time>
      </trkpt>
      <trkpt lat="42.92841" lon="0.25569">
        <ele>1496.4938318614</ele>
        <time>2014-03-28T10:48:17Z</time>
      </trkpt>
      <trkpt lat="42.92839" lon="0.2557">
        <ele>1496.4938318614</ele>
        <time>2014-03-28T10:48:22Z</time>
      </trkpt>
      <trkpt lat="42.92837" lon="0.25571">
        <ele>1496.4938318614</ele>
        <time>2014-03-28T10:48:27Z</time>
      </trkpt>
      <trkpt lat="42.92833" lon="0.25577">
        <ele>1500.1197188267</ele>
        <time>2014-03-28T10:49:02Z</time>
      </trkpt>
      <trkpt lat="42.92831" lon="0.2558">
        <ele>1500.1197188267</ele>
        <time>2014-03-28T10:49:07Z</time>
      </trkpt>
      <trkpt lat="42.92829" lon="0.25583">
        <ele>1500.1197188267</ele>
        <time>2014-03-28T10:49:12Z</time>
      </trkpt>
      <trkpt lat="42.92826" lon="0.25585">
        <ele>1503.5364070339</ele>
        <time>2014-03-28T10:49:17Z</time>
      </trkpt>
      <trkpt lat="42.92825" lon="0.25583">
        <ele>1503.5364070339</ele>
        <time>2014-03-28T10:49:22Z</time>
      </trkpt>
      <trkpt lat="42.92822" lon="0.25581">
        <ele>1503.5364070339</ele>
        <time>2014-03-28T10:49:27Z</time>
      </trkpt>
      <trkpt lat="42.9282" lon="0.25577">
        <ele>1503.5364070339</ele>
        <time>2014-03-28T10:49:32Z</time>
      </trkpt>
      <trkpt lat="42.9282" lon="0.25576">
        <ele>1503.5364070339</ele>
        <time>2014-03-28T10:49:37Z</time>
      </trkpt>
      <trkpt lat="42.92816" lon="0.2557">
        <ele>1507.087971996</ele>
        <time>2014-03-28T10:50:02Z</time>
      </trkpt>
      <trkpt lat="42.92814" lon="0.25569">
        <ele>1507.087971996</ele>
        <time>2014-03-28T10:50:07Z</time>
      </trkpt>
      <trkpt lat="42.92811" lon="0.25569">
        <ele>1507.087971996</ele>
        <time>2014-03-28T10:50:12Z</time>
      </trkpt>
      <trkpt lat="42.92808" lon="0.25569">
        <ele>1507.087971996</ele>
        <time>2014-03-28T10:50:17Z</time>
      </trkpt>
      <trkpt lat="42.92805" lon="0.25569">
        <ele>1510.4732130859</ele>
        <time>2014-03-28T10:50:22Z</time>
      </trkpt>
      <trkpt lat="42.92802" lon="0.25569">
        <ele>1510.4732130859</ele>
        <time>2014-03-28T10:50:27Z</time>
      </trkpt>
      <trkpt lat="42.92802" lon="0.25569">
        <ele>1510.4732130859</ele>
        <time>2014-03-28T10:50:32Z</time>
      </trkpt>
      <trkpt lat="42.92797" lon="0.25569">
        <ele>1510.4732130859</ele>
        <time>2014-03-28T10:50:47Z</time>
      </trkpt>
      <trkpt lat="42.92794" lon="0.25571">
        <ele>1514.0332607888</ele>
        <time>2014-03-28T10:50:52Z</time>
      </trkpt>
      <trkpt lat="42.9279" lon="0.25573">
        <ele>1514.0332607888</ele>
        <time>2014-03-28T10:50:57Z</time>
      </trkpt>
      <trkpt lat="42.92787" lon="0.25574">
        <ele>1514.0332607888</ele>
        <time>2014-03-28T10:51:02Z</time>
      </trkpt>
      <trkpt lat="42.92786" lon="0.25571">
        <ele>1514.0332607888</ele>
        <time>2014-03-28T10:51:07Z</time>
      </trkpt>
      <trkpt lat="42.92788" lon="0.2557">
        <ele>1517.449671063</ele>
        <time>2014-03-28T10:51:12Z</time>
      </trkpt>
      <trkpt lat="42.92789" lon="0.25567">
        <ele>1517.449671063</ele>
        <time>2014-03-28T10:51:37Z</time>
      </trkpt>
      <trkpt lat="42.92789" lon="0.25567">
        <ele>1517.449671063</ele>
        <time>2014-03-28T10:51:42Z</time>
      </trkpt>
      <trkpt lat="42.92788" lon="0.25562">
        <ele>1517.449671063</ele>
        <time>2014-03-28T10:51:52Z</time>
      </trkpt>
      <trkpt lat="42.92789" lon="0.25558">
        <ele>1520.83137425</ele>
        <time>2014-03-28T10:51:57Z</time>
      </trkpt>
      <trkpt lat="42.92789" lon="0.25556">
        <ele>1520.83137425</ele>
        <time>2014-03-28T10:52:02Z</time>
      </trkpt>
      <trkpt lat="42.92788" lon="0.2555">
        <ele>1520.83137425</ele>
        <time>2014-03-28T10:52:07Z</time>
      </trkpt>
      <trkpt lat="42.92787" lon="0.25545">
        <ele>1523.8759542591</ele>
        <time>2014-03-28T10:52:12Z</time>
      </trkpt>
      <trkpt lat="42.92787" lon="0.2554">
        <ele>1523.8759542591</ele>
        <time>2014-03-28T10:52:17Z</time>
      </trkpt>
      <trkpt lat="42.92787" lon="0.25534">
        <ele>1523.8759542591</ele>
        <time>2014-03-28T10:52:22Z</time>
      </trkpt>
      <trkpt lat="42.92786" lon="0.2553">
        <ele>1526.6356816911</ele>
        <time>2014-03-28T10:52:27Z</time>
      </trkpt>
      <trkpt lat="42.92784" lon="0.25526">
        <ele>1526.6356816911</ele>
        <time>2014-03-28T10:52:32Z</time>
      </trkpt>
      <trkpt lat="42.92782" lon="0.25522">
        <ele>1526.6356816911</ele>
        <time>2014-03-28T10:52:37Z</time>
      </trkpt>
      <trkpt lat="42.92772" lon="0.25526">
        <ele>1529.866000927</ele>
        <time>2014-03-28T10:53:17Z</time>
      </trkpt>
      <trkpt lat="42.92772" lon="0.25527">
        <ele>1529.866000927</ele>
        <time>2014-03-28T10:53:22Z</time>
      </trkpt>
      <trkpt lat="42.92769" lon="0.2553">
        <ele>1529.866000927</ele>
        <time>2014-03-28T10:53:32Z</time>
      </trkpt>
      <trkpt lat="42.92767" lon="0.25533">
        <ele>1529.866000927</ele>
        <time>2014-03-28T10:53:37Z</time>
      </trkpt>
      <trkpt lat="42.92766" lon="0.25533">
        <ele>1529.866000927</ele>
        <time>2014-03-28T10:53:42Z</time>
      </trkpt>
      <trkpt lat="42.92763" lon="0.25535">
        <ele>1533.1559544564</ele>
        <time>2014-03-28T10:53:47Z</time>
      </trkpt>
      <trkpt lat="42.92762" lon="0.25536">
        <ele>1533.1559544564</ele>
        <time>2014-03-28T10:53:52Z</time>
      </trkpt>
      <trkpt lat="42.92762" lon="0.25539">
        <ele>1533.1559544564</ele>
        <time>2014-03-28T10:54:07Z</time>
      </trkpt>
      <trkpt lat="42.92762" lon="0.25535">
        <ele>1533.1559544564</ele>
        <time>2014-03-28T10:54:12Z</time>
      </trkpt>
      <trkpt lat="42.92763" lon="0.2553">
        <ele>1536.3120180911</ele>
        <time>2014-03-28T10:54:17Z</time>
      </trkpt>
      <trkpt lat="42.92763" lon="0.25526">
        <ele>1536.3120180911</ele>
        <time>2014-03-28T10:54:22Z</time>
      </trkpt>
      <trkpt lat="42.92762" lon="0.25522">
        <ele>1536.3120180911</ele>
        <time>2014-03-28T10:54:27Z</time>
      </trkpt>
      <trkpt lat="42.92761" lon="0.25521">
        <ele>1536.3120180911</ele>
        <time>2014-03-28T10:54:32Z</time>
      </trkpt>
      <trkpt lat="42.92758" lon="0.25515">
        <ele>1539.4579593017</ele>
        <time>2014-03-28T10:54:52Z</time>
      </trkpt>
      <trkpt lat="42.92756" lon="0.25512">
        <ele>1539.4579593017</ele>
        <time>2014-03-28T10:54:57Z</time>
      </trkpt>
      <trkpt lat="42.92751" lon="0.25513">
        <ele>1539.4579593017</ele>
        <time>2014-03-28T10:55:07Z</time>
      </trkpt>
      <trkpt lat="42.92749" lon="0.25515">
        <ele>1542.5500255054</ele>
        <time>2014-03-28T10:55:12Z</time>
      </trkpt>
      <trkpt lat="42.92748" lon="0.25516">
        <ele>1542.5500255054</ele>
        <time>2014-03-28T10:55:17Z</time>
      </trkpt>
      <trkpt lat="42.92748" lon="0.25516">
        <ele>1542.5500255054</ele>
        <time>2014-03-28T10:55:22Z</time>
      </trkpt>
      <trkpt lat="42.92747" lon="0.25511">
        <ele>1542.5500255054</ele>
        <time>2014-03-28T10:55:42Z</time>
      </trkpt>
      <trkpt lat="42.92746" lon="0.25509">
        <ele>1542.5500255054</ele>
        <time>2014-03-28T10:55:47Z</time>
      </trkpt>
      <trkpt lat="42.92745" lon="0.25506">
        <ele>1545.692005126</ele>
        <time>2014-03-28T10:55:52Z</time>
      </trkpt>
      <trkpt lat="42.92745" lon="0.25504">
        <ele>1545.692005126</ele>
        <time>2014-03-28T10:55:57Z</time>
      </trkpt>
      <trkpt lat="42.92745" lon="0.25504">
        <ele>1545.692005126</ele>
        <time>2014-03-28T10:56:02Z</time>
      </trkpt>
      <trkpt lat="42.92736" lon="0.25498">
        <ele>1549.1385083926</ele>
        <time>2014-03-28T10:56:42Z</time>
      </trkpt>
      <trkpt lat="42.92732" lon="0.25501">
        <ele>1549.1385083926</ele>
        <time>2014-03-28T10:56:47Z</time>
      </trkpt>
      <trkpt lat="42.9273" lon="0.25503">
        <ele>1549.1385083926</ele>
        <time>2014-03-28T10:56:52Z</time>
      </trkpt>
      <trkpt lat="42.92729" lon="0.25504">
        <ele>1549.1385083926</ele>
        <time>2014-03-28T10:56:57Z</time>
      </trkpt>
      <trkpt lat="42.92727" lon="0.25505">
        <ele>1552.6346730186</ele>
        <time>2014-03-28T10:57:02Z</time>
      </trkpt>
      <trkpt lat="42.92726" lon="0.25505">
        <ele>1552.6346730186</ele>
        <time>2014-03-28T10:57:07Z</time>
      </trkpt>
      <trkpt lat="42.92719" lon="0.25513">
        <ele>1557.0539403047</ele>
        <time>2014-03-28T10:58:42Z</time>
      </trkpt>
      <trkpt lat="42.92718" lon="0.25514">
        <ele>1557.0539403047</ele>
        <time>2014-03-28T10:58:47Z</time>
      </trkpt>
      <trkpt lat="42.92714" lon="0.25514">
        <ele>1557.0539403047</ele>
        <time>2014-03-28T10:58:52Z</time>
      </trkpt>
      <trkpt lat="42.92711" lon="0.25514">
        <ele>1557.0539403047</ele>
        <time>2014-03-28T10:58:57Z</time>
      </trkpt>
      <trkpt lat="42.92709" lon="0.25511">
        <ele>1561.0702217471</ele>
        <time>2014-03-28T10:59:02Z</time>
      </trkpt>
      <trkpt lat="42.92709" lon="0.25511">
        <ele>1561.0702217471</ele>
        <time>2014-03-28T10:59:07Z</time>
      </trkpt>
      <trkpt lat="42.92709" lon="0.25511">
        <ele>1561.0702217471</ele>
        <time>2014-03-28T10:59:12Z</time>
      </trkpt>
      <trkpt lat="42.92706" lon="0.25502">
        <ele>1561.0702217471</ele>
        <time>2014-03-28T10:59:27Z</time>
      </trkpt>
      <trkpt lat="42.92704" lon="0.255">
        <ele>1564.7242222719</ele>
        <time>2014-03-28T10:59:32Z</time>
      </trkpt>
      <trkpt lat="42.92701" lon="0.25499">
        <ele>1564.7242222719</ele>
        <time>2014-03-28T10:59:37Z</time>
      </trkpt>
      <trkpt lat="42.92698" lon="0.25498">
        <ele>1564.7242222719</ele>
        <time>2014-03-28T10:59:42Z</time>
      </trkpt>
      <trkpt lat="42.92695" lon="0.25497">
        <ele>1567.9394578247</ele>
        <time>2014-03-28T10:59:47Z</time>
      </trkpt>
      <trkpt lat="42.92692" lon="0.25494">
        <ele>1567.9394578247</ele>
        <time>2014-03-28T10:59:52Z</time>
      </trkpt>
      <trkpt lat="42.9269" lon="0.2549">
        <ele>1567.9394578247</ele>
        <time>2014-03-28T10:59:57Z</time>
      </trkpt>
      <trkpt lat="42.92687" lon="0.25487">
        <ele>1570.7904795289</ele>
        <time>2014-03-28T11:00:02Z</time>
      </trkpt>
      <trkpt lat="42.92684" lon="0.25485">
        <ele>1570.7904795289</ele>
        <time>2014-03-28T11:00:07Z</time>
      </trkpt>
      <trkpt lat="42.92682" lon="0.25484">
        <ele>1570.7904795289</ele>
        <time>2014-03-28T11:00:12Z</time>
      </trkpt>
      <trkpt lat="42.92682" lon="0.25484">
        <ele>1570.7904795289</ele>
        <time>2014-03-28T11:00:17Z</time>
      </trkpt>
      <trkpt lat="42.9268" lon="0.25481">
        <ele>1570.7904795289</ele>
        <time>2014-03-28T11:00:27Z</time>
      </trkpt>
      <trkpt lat="42.92677" lon="0.25477">
        <ele>1573.4051003932</ele>
        <time>2014-03-28T11:00:32Z</time>
      </trkpt>
      <trkpt lat="42.92675" lon="0.25475">
        <ele>1573.4051003932</ele>
        <time>2014-03-28T11:00:37Z</time>
      </trkpt>
      <trkpt lat="42.92673" lon="0.25473">
        <ele>1573.4051003932</ele>
        <time>2014-03-28T11:00:42Z</time>
      </trkpt>
      <trkpt lat="42.92672" lon="0.25469">
        <ele>1573.4051003932</ele>
        <time>2014-03-28T11:00:47Z</time>
      </trkpt>
      <trkpt lat="42.92671" lon="0.25465">
        <ele>1575.7439519818</ele>
        <time>2014-03-28T11:00:52Z</time>
      </trkpt>
      <trkpt lat="42.92672" lon="0.25465">
        <ele>1575.7439519818</ele>
        <time>2014-03-28T11:00:57Z</time>
      </trkpt>
      <trkpt lat="42.92666" lon="0.25456">
        <ele>1577.9731462256</ele>
        <time>2014-03-28T11:01:32Z</time>
      </trkpt>
      <trkpt lat="42.92664" lon="0.25454">
        <ele>1577.9731462256</ele>
        <time>2014-03-28T11:01:37Z</time>
      </trkpt>
      <trkpt lat="42.92662" lon="0.25451">
        <ele>1577.9731462256</ele>
        <time>2014-03-28T11:01:42Z</time>
      </trkpt>
      <trkpt lat="42.9266" lon="0.2545">
        <ele>1577.9731462256</ele>
        <time>2014-03-28T11:01:47Z</time>
      </trkpt>
      <trkpt lat="42.92658" lon="0.25446">
        <ele>1579.9587276964</ele>
        <time>2014-03-28T11:01:52Z</time>
      </trkpt>
      <trkpt lat="42.92656" lon="0.25443">
        <ele>1579.9587276964</ele>
        <time>2014-03-28T11:01:57Z</time>
      </trkpt>
      <trkpt lat="42.92654" lon="0.25438">
        <ele>1579.9587276964</ele>
        <time>2014-03-28T11:02:02Z</time>
      </trkpt>
      <trkpt lat="42.92652" lon="0.25433">
        <ele>1581.7214151104</ele>
        <time>2014-03-28T11:02:07Z</time>
      </trkpt>
      <trkpt lat="42.9265" lon="0.2543">
        <ele>1581.7214151104</ele>
        <time>2014-03-28T11:02:12Z</time>
      </trkpt>
      <trkpt lat="42.92647" lon="0.25428">
        <ele>1581.7214151104</ele>
        <time>2014-03-28T11:02:17Z</time>
      </trkpt>
      <trkpt lat="42.92644" lon="0.25425">
        <ele>1583.3242915803</ele>
        <time>2014-03-28T11:02:22Z</time>
      </trkpt>
      <trkpt lat="42.92639" lon="0.25425">
        <ele>1583.3242915803</ele>
        <time>2014-03-28T11:02:27Z</time>
      </trkpt>
      <trkpt lat="42.92637" lon="0.25423">
        <ele>1583.3242915803</ele>
        <time>2014-03-28T11:02:32Z</time>
      </trkpt>
      <trkpt lat="42.92635" lon="0.25424">
        <ele>1584.8118588683</ele>
        <time>2014-03-28T11:02:37Z</time>
      </trkpt>
      <trkpt lat="42.92631" lon="0.25422">
        <ele>1584.8118588683</ele>
        <time>2014-03-28T11:02:42Z</time>
      </trkpt>
      <trkpt lat="42.9263" lon="0.25421">
        <ele>1584.8118588683</ele>
        <time>2014-03-28T11:02:47Z</time>
      </trkpt>
      <trkpt lat="42.92629" lon="0.25419">
        <ele>1584.8118588683</ele>
        <time>2014-03-28T11:02:52Z</time>
      </trkpt>
      <trkpt lat="42.9263" lon="0.25416">
        <ele>1586.7732992724</ele>
        <time>2014-03-28T11:03:37Z</time>
      </trkpt>
      <trkpt lat="42.92631" lon="0.25416">
        <ele>1586.7732992724</ele>
        <time>2014-03-28T11:03:42Z</time>
      </trkpt>
      <trkpt lat="42.92631" lon="0.25412">
        <ele>1586.7732992724</ele>
        <time>2014-03-28T11:03:52Z</time>
      </trkpt>
      <trkpt lat="42.92631" lon="0.25413">
        <ele>1586.7732992724</ele>
        <time>2014-03-28T11:03:57Z</time>
      </trkpt>
      <trkpt lat="42.92631" lon="0.25417">
        <ele>1586.7732992724</ele>
        <time>2014-03-28T11:04:07Z</time>
      </trkpt>
      <trkpt lat="42.9263" lon="0.25418">
        <ele>1586.7732992724</ele>
        <time>2014-03-28T11:04:12Z</time>
      </trkpt>
      <trkpt lat="42.9263" lon="0.25417">
        <ele>1586.7732992724</ele>
        <time>2014-03-28T11:05:57Z</time>
      </trkpt>
      <trkpt lat="42.92627" lon="0.25417">
        <ele>1590.6466698765</ele>
        <time>2014-03-28T11:06:02Z</time>
      </trkpt>
      <trkpt lat="42.92624" lon="0.25416">
        <ele>1590.6466698765</ele>
        <time>2014-03-28T11:06:07Z</time>
      </trkpt>
      <trkpt lat="42.9262" lon="0.25415">
        <ele>1590.6466698765</ele>
        <time>2014-03-28T11:06:12Z</time>
      </trkpt>
      <trkpt lat="42.92617" lon="0.25415">
        <ele>1594.127415115</ele>
        <time>2014-03-28T11:06:17Z</time>
      </trkpt>
      <trkpt lat="42.92615" lon="0.25414">
        <ele>1594.127415115</ele>
        <time>2014-03-28T11:06:22Z</time>
      </trkpt>
      <trkpt lat="42.92612" lon="0.25415">
        <ele>1594.127415115</ele>
        <time>2014-03-28T11:06:27Z</time>
      </trkpt>
      <trkpt lat="42.92608" lon="0.25418">
        <ele>1597.3871413298</ele>
        <time>2014-03-28T11:06:32Z</time>
      </trkpt>
      <trkpt lat="42.92605" lon="0.25421">
        <ele>1597.3871413298</ele>
        <time>2014-03-28T11:06:37Z</time>
      </trkpt>
      <trkpt lat="42.926" lon="0.25425">
        <ele>1600.3981171891</ele>
        <time>2014-03-28T11:06:42Z</time>
      </trkpt>
      <trkpt lat="42.92599" lon="0.25426">
        <ele>1600.3981171891</ele>
        <time>2014-03-28T11:06:47Z</time>
      </trkpt>
      <trkpt lat="42.92597" lon="0.25427">
        <ele>1600.3981171891</ele>
        <time>2014-03-28T11:06:52Z</time>
      </trkpt>
      <trkpt lat="42.92593" lon="0.25429">
        <ele>1600.3981171891</ele>
        <time>2014-03-28T11:07:22Z</time>
      </trkpt>
      <trkpt lat="42.92589" lon="0.25433">
        <ele>1603.7694322552</ele>
        <time>2014-03-28T11:07:27Z</time>
      </trkpt>
      <trkpt lat="42.92586" lon="0.25435">
        <ele>1603.7694322552</ele>
        <time>2014-03-28T11:07:32Z</time>
      </trkpt>
      <trkpt lat="42.92583" lon="0.25436">
        <ele>1603.7694322552</ele>
        <time>2014-03-28T11:07:37Z</time>
      </trkpt>
      <trkpt lat="42.92582" lon="0.25437">
        <ele>1603.7694322552</ele>
        <time>2014-03-28T11:07:42Z</time>
      </trkpt>
      <trkpt lat="42.92578" lon="0.25438">
        <ele>1606.8971204203</ele>
        <time>2014-03-28T11:07:47Z</time>
      </trkpt>
      <trkpt lat="42.92577" lon="0.25439">
        <ele>1606.8971204203</ele>
        <time>2014-03-28T11:07:52Z</time>
      </trkpt>
      <trkpt lat="42.92574" lon="0.2544">
        <ele>1606.8971204203</ele>
        <time>2014-03-28T11:07:57Z</time>
      </trkpt>
      <trkpt lat="42.92572" lon="0.25442">
        <ele>1606.8971204203</ele>
        <time>2014-03-28T11:08:02Z</time>
      </trkpt>
      <trkpt lat="42.92572" lon="0.25441">
        <ele>1606.8971204203</ele>
        <time>2014-03-28T11:08:07Z</time>
      </trkpt>
      <trkpt lat="42.92568" lon="0.25444">
        <ele>1610.1878117509</ele>
        <time>2014-03-28T11:08:22Z</time>
      </trkpt>
      <trkpt lat="42.92564" lon="0.25446">
        <ele>1610.1878117509</ele>
        <time>2014-03-28T11:08:27Z</time>
      </trkpt>
      <trkpt lat="42.9256" lon="0.25449">
        <ele>1610.1878117509</ele>
        <time>2014-03-28T11:08:32Z</time>
      </trkpt>
      <trkpt lat="42.92559" lon="0.25451">
        <ele>1613.3981328678</ele>
        <time>2014-03-28T11:08:37Z</time>
      </trkpt>
      <trkpt lat="42.92557" lon="0.25451">
        <ele>1613.3981328678</ele>
        <time>2014-03-28T11:08:42Z</time>
      </trkpt>
      <trkpt lat="42.92554" lon="0.25453">
        <ele>1613.3981328678</ele>
        <time>2014-03-28T11:08:47Z</time>
      </trkpt>
      <trkpt lat="42.92553" lon="0.25453">
        <ele>1613.3981328678</ele>
        <time>2014-03-28T11:08:52Z</time>
      </trkpt>
      <trkpt lat="42.92553" lon="0.25453">
        <ele>1613.3981328678</ele>
        <time>2014-03-28T11:08:57Z</time>
      </trkpt>
      <trkpt lat="42.92545" lon="0.25458">
        <ele>1616.8216189574</ele>
        <time>2014-03-28T11:09:17Z</time>
      </trkpt>
      <trkpt lat="42.92544" lon="0.25457">
        <ele>1616.8216189574</ele>
        <time>2014-03-28T11:09:22Z</time>
      </trkpt>
      <trkpt lat="42.92544" lon="0.25459">
        <ele>1616.8216189574</ele>
        <time>2014-03-28T11:09:27Z</time>
      </trkpt>
      <trkpt lat="42.92541" lon="0.2546">
        <ele>1616.8216189574</ele>
        <time>2014-03-28T11:09:32Z</time>
      </trkpt>
      <trkpt lat="42.92539" lon="0.25462">
        <ele>1616.8216189574</ele>
        <time>2014-03-28T11:09:37Z</time>
      </trkpt>
      <trkpt lat="42.92535" lon="0.25465">
        <ele>1620.0955618641</ele>
        <time>2014-03-28T11:09:42Z</time>
      </trkpt>
      <trkpt lat="42.92532" lon="0.25466">
        <ele>1620.0955618641</ele>
        <time>2014-03-28T11:09:47Z</time>
      </trkpt>
      <trkpt lat="42.9253" lon="0.25467">
        <ele>1620.0955618641</ele>
        <time>2014-03-28T11:09:52Z</time>
      </trkpt>
      <trkpt lat="42.92528" lon="0.25469">
        <ele>1620.0955618641</ele>
        <time>2014-03-28T11:09:57Z</time>
      </trkpt>
      <trkpt lat="42.92527" lon="0.25471">
        <ele>1623.1581368262</ele>
        <time>2014-03-28T11:10:02Z</time>
      </trkpt>
      <trkpt lat="42.92525" lon="0.25473">
        <ele>1623.1581368262</ele>
        <time>2014-03-28T11:10:07Z</time>
      </trkpt>
      <trkpt lat="42.92522" lon="0.25474">
        <ele>1623.1581368262</ele>
        <time>2014-03-28T11:10:12Z</time>
      </trkpt>
      <trkpt lat="42.92518" lon="0.25475">
        <ele>1625.9814850044</ele>
        <time>2014-03-28T11:10:17Z</time>
      </trkpt>
      <trkpt lat="42.92516" lon="0.25476">
        <ele>1625.9814850044</ele>
        <time>2014-03-28T11:10:22Z</time>
      </trkpt>
      <trkpt lat="42.92513" lon="0.25478">
        <ele>1625.9814850044</ele>
        <time>2014-03-28T11:10:27Z</time>
      </trkpt>
      <trkpt lat="42.92511" lon="0.2548">
        <ele>1625.9814850044</ele>
        <time>2014-03-28T11:10:32Z</time>
      </trkpt>
      <trkpt lat="42.92509" lon="0.25482">
        <ele>1628.6989963236</ele>
        <time>2014-03-28T11:10:37Z</time>
      </trkpt>
      <trkpt lat="42.92507" lon="0.25483">
        <ele>1628.6989963236</ele>
        <time>2014-03-28T11:10:42Z</time>
      </trkpt>
      <trkpt lat="42.92507" lon="0.25483">
        <ele>1628.6989963236</ele>
        <time>2014-03-28T11:10:47Z</time>
      </trkpt>
      <trkpt lat="42.925" lon="0.25488">
        <ele>1631.4633885553</ele>
        <time>2014-03-28T11:11:12Z</time>
      </trkpt>
      <trkpt lat="42.92497" lon="0.2549">
        <ele>1631.4633885553</ele>
        <time>2014-03-28T11:11:17Z</time>
      </trkpt>
      <trkpt lat="42.92494" lon="0.25494">
        <ele>1631.4633885553</ele>
        <time>2014-03-28T11:11:22Z</time>
      </trkpt>
      <trkpt lat="42.92491" lon="0.25497">
        <ele>1633.9548783852</ele>
        <time>2014-03-28T11:11:27Z</time>
      </trkpt>
      <trkpt lat="42.92488" lon="0.25499">
        <ele>1633.9548783852</ele>
        <time>2014-03-28T11:11:32Z</time>
      </trkpt>
      <trkpt lat="42.92486" lon="0.25502">
        <ele>1633.9548783852</ele>
        <time>2014-03-28T11:11:37Z</time>
      </trkpt>
      <trkpt lat="42.92485" lon="0.25503">
        <ele>1633.9548783852</ele>
        <time>2014-03-28T11:11:42Z</time>
      </trkpt>
      <trkpt lat="42.92482" lon="0.25506">
        <ele>1636.2814515161</ele>
        <time>2014-03-28T11:11:47Z</time>
      </trkpt>
      <trkpt lat="42.9248" lon="0.25509">
        <ele>1636.2814515161</ele>
        <time>2014-03-28T11:11:52Z</time>
      </trkpt>
      <trkpt lat="42.92476" lon="0.25513">
        <ele>1636.2814515161</ele>
        <time>2014-03-28T11:11:57Z</time>
      </trkpt>
      <trkpt lat="42.92474" lon="0.25515">
        <ele>1638.3850979452</ele>
        <time>2014-03-28T11:12:02Z</time>
      </trkpt>
      <trkpt lat="42.9247" lon="0.25517">
        <ele>1638.3850979452</ele>
        <time>2014-03-28T11:12:07Z</time>
      </trkpt>
      <trkpt lat="42.92468" lon="0.25518">
        <ele>1638.3850979452</ele>
        <time>2014-03-28T11:12:12Z</time>
      </trkpt>
      <trkpt lat="42.92466" lon="0.25519">
        <ele>1638.3850979452</ele>
        <time>2014-03-28T11:12:17Z</time>
      </trkpt>
      <trkpt lat="42.92464" lon="0.25518">
        <ele>1640.3423853848</ele>
        <time>2014-03-28T11:12:22Z</time>
      </trkpt>
      <trkpt lat="42.92462" lon="0.25517">
        <ele>1640.3423853848</ele>
        <time>2014-03-28T11:12:27Z</time>
      </trkpt>
      <trkpt lat="42.92459" lon="0.25517">
        <ele>1640.3423853848</ele>
        <time>2014-03-28T11:12:32Z</time>
      </trkpt>
      <trkpt lat="42.92458" lon="0.25518">
        <ele>1640.3423853848</ele>
        <time>2014-03-28T11:12:37Z</time>
      </trkpt>
      <trkpt lat="42.92456" lon="0.25519">
        <ele>1640.3423853848</ele>
        <time>2014-03-28T11:12:42Z</time>
      </trkpt>
      <trkpt lat="42.92454" lon="0.25521">
        <ele>1642.3111186429</ele>
        <time>2014-03-28T11:12:47Z</time>
      </trkpt>
      <trkpt lat="42.92452" lon="0.25522">
        <ele>1642.3111186429</ele>
        <time>2014-03-28T11:12:52Z</time>
      </trkpt>
      <trkpt lat="42.9245" lon="0.25523">
        <ele>1642.3111186429</ele>
        <time>2014-03-28T11:12:57Z</time>
      </trkpt>
      <trkpt lat="42.92448" lon="0.25524">
        <ele>1642.3111186429</ele>
        <time>2014-03-28T11:13:02Z</time>
      </trkpt>
      <trkpt lat="42.92446" lon="0.25526">
        <ele>1644.2645222904</ele>
        <time>2014-03-28T11:13:07Z</time>
      </trkpt>
      <trkpt lat="42.92444" lon="0.25528">
        <ele>1644.2645222904</ele>
        <time>2014-03-28T11:13:12Z</time>
      </trkpt>
      <trkpt lat="42.92441" lon="0.2553">
        <ele>1644.2645222904</ele>
        <time>2014-03-28T11:13:17Z</time>
      </trkpt>
      <trkpt lat="42.92439" lon="0.2553">
        <ele>1644.2645222904</ele>
        <time>2014-03-28T11:13:22Z</time>
      </trkpt>
      <trkpt lat="42.92437" lon="0.25532">
        <ele>1646.3219127657</ele>
        <time>2014-03-28T11:13:27Z</time>
      </trkpt>
      <trkpt lat="42.92431" lon="0.2554">
        <ele>1646.3219127657</ele>
        <time>2014-03-28T11:14:02Z</time>
      </trkpt>
      <trkpt lat="42.92429" lon="0.2554">
        <ele>1648.8240931111</ele>
        <time>2014-03-28T11:14:07Z</time>
      </trkpt>
      <trkpt lat="42.92426" lon="0.25542">
        <ele>1648.8240931111</ele>
        <time>2014-03-28T11:14:12Z</time>
      </trkpt>
      <trkpt lat="42.92424" lon="0.25543">
        <ele>1648.8240931111</ele>
        <time>2014-03-28T11:14:17Z</time>
      </trkpt>
      <trkpt lat="42.92422" lon="0.25544">
        <ele>1648.8240931111</ele>
        <time>2014-03-28T11:14:22Z</time>
      </trkpt>
      <trkpt lat="42.92418" lon="0.25547">
        <ele>1651.2352886274</ele>
        <time>2014-03-28T11:14:27Z</time>
      </trkpt>
      <trkpt lat="42.92416" lon="0.25549">
        <ele>1651.2352886274</ele>
        <time>2014-03-28T11:14:32Z</time>
      </trkpt>
      <trkpt lat="42.92416" lon="0.25549">
        <ele>1651.2352886274</ele>
        <time>2014-03-28T11:14:37Z</time>
      </trkpt>
      <trkpt lat="42.92416" lon="0.25554">
        <ele>1651.2352886274</ele>
        <time>2014-03-28T11:15:12Z</time>
      </trkpt>
      <trkpt lat="42.92414" lon="0.25556">
        <ele>1651.2352886274</ele>
        <time>2014-03-28T11:15:17Z</time>
      </trkpt>
      <trkpt lat="42.92412" lon="0.25558">
        <ele>1654.0248412768</ele>
        <time>2014-03-28T11:15:22Z</time>
      </trkpt>
      <trkpt lat="42.92409" lon="0.25561">
        <ele>1654.0248412768</ele>
        <time>2014-03-28T11:15:27Z</time>
      </trkpt>
      <trkpt lat="42.92407" lon="0.25564">
        <ele>1654.0248412768</ele>
        <time>2014-03-28T11:15:32Z</time>
      </trkpt>
      <trkpt lat="42.92402" lon="0.25567">
        <ele>1656.5456781816</ele>
        <time>2014-03-28T11:15:37Z</time>
      </trkpt>
      <trkpt lat="42.92398" lon="0.25567">
        <ele>1656.5456781816</ele>
        <time>2014-03-28T11:15:42Z</time>
      </trkpt>
      <trkpt lat="42.92394" lon="0.25569">
        <ele>1656.5456781816</ele>
        <time>2014-03-28T11:15:47Z</time>
      </trkpt>
      <trkpt lat="42.92392" lon="0.25571">
        <ele>1658.9195273893</ele>
        <time>2014-03-28T11:15:52Z</time>
      </trkpt>
      <trkpt lat="42.9239" lon="0.25571">
        <ele>1658.9195273893</ele>
        <time>2014-03-28T11:15:57Z</time>
      </trkpt>
      <trkpt lat="42.92389" lon="0.25571">
        <ele>1658.9195273893</ele>
        <time>2014-03-28T11:16:02Z</time>
      </trkpt>
      <trkpt lat="42.92381" lon="0.25575">
        <ele>1661.2883669178</ele>
        <time>2014-03-28T11:16:22Z</time>
      </trkpt>
      <trkpt lat="42.9238" lon="0.25576">
        <ele>1661.2883669178</ele>
        <time>2014-03-28T11:16:27Z</time>
      </trkpt>
      <trkpt lat="42.92377" lon="0.25578">
        <ele>1661.2883669178</ele>
        <time>2014-03-28T11:16:32Z</time>
      </trkpt>
      <trkpt lat="42.92373" lon="0.2558">
        <ele>1661.2883669178</ele>
        <time>2014-03-28T11:16:37Z</time>
      </trkpt>
      <trkpt lat="42.92369" lon="0.25583">
        <ele>1663.5243159567</ele>
        <time>2014-03-28T11:16:42Z</time>
      </trkpt>
      <trkpt lat="42.92367" lon="0.25586">
        <ele>1663.5243159567</ele>
        <time>2014-03-28T11:16:47Z</time>
      </trkpt>
      <trkpt lat="42.92364" lon="0.25589">
        <ele>1663.5243159567</ele>
        <time>2014-03-28T11:16:52Z</time>
      </trkpt>
      <trkpt lat="42.92361" lon="0.25591">
        <ele>1665.6389159267</ele>
        <time>2014-03-28T11:16:57Z</time>
      </trkpt>
      <trkpt lat="42.92361" lon="0.25592">
        <ele>1665.6389159267</ele>
        <time>2014-03-28T11:17:02Z</time>
      </trkpt>
      <trkpt lat="42.92361" lon="0.25593">
        <ele>1665.6389159267</ele>
        <time>2014-03-28T11:17:07Z</time>
      </trkpt>
      <trkpt lat="42.92358" lon="0.25598">
        <ele>1665.6389159267</ele>
        <time>2014-03-28T11:17:27Z</time>
      </trkpt>
      <trkpt lat="42.92356" lon="0.25599">
        <ele>1665.6389159267</ele>
        <time>2014-03-28T11:17:32Z</time>
      </trkpt>
      <trkpt lat="42.92353" lon="0.25603">
        <ele>1668.1331329028</ele>
        <time>2014-03-28T11:17:37Z</time>
      </trkpt>
      <trkpt lat="42.9235" lon="0.25605">
        <ele>1668.1331329028</ele>
        <time>2014-03-28T11:17:42Z</time>
      </trkpt>
      <trkpt lat="42.92346" lon="0.25608">
        <ele>1668.1331329028</ele>
        <time>2014-03-28T11:17:47Z</time>
      </trkpt>
      <trkpt lat="42.92344" lon="0.2561">
        <ele>1670.490064254</ele>
        <time>2014-03-28T11:17:52Z</time>
      </trkpt>
      <trkpt lat="42.92341" lon="0.25612">
        <ele>1670.490064254</ele>
        <time>2014-03-28T11:17:57Z</time>
      </trkpt>
      <trkpt lat="42.92338" lon="0.25612">
        <ele>1670.490064254</ele>
        <time>2014-03-28T11:18:02Z</time>
      </trkpt>
      <trkpt lat="42.92336" lon="0.25612">
        <ele>1670.490064254</ele>
        <time>2014-03-28T11:18:07Z</time>
      </trkpt>
      <trkpt lat="42.92336" lon="0.25612">
        <ele>1672.6634490122</ele>
        <time>2014-03-28T11:18:12Z</time>
      </trkpt>
      <trkpt lat="42.92336" lon="0.25613">
        <ele>1672.6634490122</ele>
        <time>2014-03-28T11:18:22Z</time>
      </trkpt>
      <trkpt lat="42.92337" lon="0.25611">
        <ele>1672.6634490122</ele>
        <time>2014-03-28T11:18:27Z</time>
      </trkpt>
      <trkpt lat="42.92339" lon="0.25609">
        <ele>1672.6634490122</ele>
        <time>2014-03-28T11:18:32Z</time>
      </trkpt>
      <trkpt lat="42.92339" lon="0.25608">
        <ele>1672.6634490122</ele>
        <time>2014-03-28T11:18:37Z</time>
      </trkpt>
      <trkpt lat="42.92337" lon="0.25612">
        <ele>1674.69735668</ele>
        <time>2014-03-28T11:18:47Z</time>
      </trkpt>
      <trkpt lat="42.92335" lon="0.2561">
        <ele>1674.69735668</ele>
        <time>2014-03-28T11:18:52Z</time>
      </trkpt>
      <trkpt lat="42.92331" lon="0.2561">
        <ele>1674.69735668</ele>
        <time>2014-03-28T11:18:57Z</time>
      </trkpt>
      <trkpt lat="42.92327" lon="0.25609">
        <ele>1676.7338379046</ele>
        <time>2014-03-28T11:19:02Z</time>
      </trkpt>
      <trkpt lat="42.92326" lon="0.25607">
        <ele>1676.7338379046</ele>
        <time>2014-03-28T11:19:07Z</time>
      </trkpt>
      <trkpt lat="42.92323" lon="0.25607">
        <ele>1676.7338379046</ele>
        <time>2014-03-28T11:19:12Z</time>
      </trkpt>
      <trkpt lat="42.92322" lon="0.25607">
        <ele>1676.7338379046</ele>
        <time>2014-03-28T11:19:17Z</time>
      </trkpt>
      <trkpt lat="42.92322" lon="0.25607">
        <ele>1676.7338379046</ele>
        <time>2014-03-28T11:19:22Z</time>
      </trkpt>
      <trkpt lat="42.92317" lon="0.25612">
        <ele>1679.4664835052</ele>
        <time>2014-03-28T11:19:52Z</time>
      </trkpt>
      <trkpt lat="42.92316" lon="0.25613">
        <ele>1679.4664835052</ele>
        <time>2014-03-28T11:19:57Z</time>
      </trkpt>
      <trkpt lat="42.92314" lon="0.25613">
        <ele>1679.4664835052</ele>
        <time>2014-03-28T11:20:02Z</time>
      </trkpt>
      <trkpt lat="42.92311" lon="0.25613">
        <ele>1679.4664835052</ele>
        <time>2014-03-28T11:20:07Z</time>
      </trkpt>
      <trkpt lat="42.92308" lon="0.25613">
        <ele>1679.4664835052</ele>
        <time>2014-03-28T11:20:12Z</time>
      </trkpt>
      <trkpt lat="42.92307" lon="0.25611">
        <ele>1682.2965735547</ele>
        <time>2014-03-28T11:20:17Z</time>
      </trkpt>
      <trkpt lat="42.92305" lon="0.25611">
        <ele>1682.2965735547</ele>
        <time>2014-03-28T11:20:22Z</time>
      </trkpt>
      <trkpt lat="42.92304" lon="0.25612">
        <ele>1682.2965735547</ele>
        <time>2014-03-28T11:20:27Z</time>
      </trkpt>
      <trkpt lat="42.92299" lon="0.25614">
        <ele>1682.2965735547</ele>
        <time>2014-03-28T11:20:32Z</time>
      </trkpt>
      <trkpt lat="42.92297" lon="0.25615">
        <ele>1685.3319588323</ele>
        <time>2014-03-28T11:20:37Z</time>
      </trkpt>
      <trkpt lat="42.92297" lon="0.25615">
        <ele>1685.3319588323</ele>
        <time>2014-03-28T11:20:42Z</time>
      </trkpt>
      <trkpt lat="42.92296" lon="0.25621">
        <ele>1685.3319588323</ele>
        <time>2014-03-28T11:21:12Z</time>
      </trkpt>
      <trkpt lat="42.92294" lon="0.25621">
        <ele>1685.3319588323</ele>
        <time>2014-03-28T11:21:17Z</time>
      </trkpt>
      <trkpt lat="42.92293" lon="0.25622">
        <ele>1685.3319588323</ele>
        <time>2014-03-28T11:21:22Z</time>
      </trkpt>
      <trkpt lat="42.92292" lon="0.25622">
        <ele>1685.3319588323</ele>
        <time>2014-03-28T11:21:27Z</time>
      </trkpt>
      <trkpt lat="42.92288" lon="0.25628">
        <ele>1688.6143025347</ele>
        <time>2014-03-28T11:21:32Z</time>
      </trkpt>
      <trkpt lat="42.92286" lon="0.2563">
        <ele>1688.6143025347</ele>
        <time>2014-03-28T11:21:37Z</time>
      </trkpt>
      <trkpt lat="42.92283" lon="0.25632">
        <ele>1688.6143025347</ele>
        <time>2014-03-28T11:21:42Z</time>
      </trkpt>
      <trkpt lat="42.92282" lon="0.25632">
        <ele>1688.6143025347</ele>
        <time>2014-03-28T11:21:47Z</time>
      </trkpt>
      <trkpt lat="42.92278" lon="0.25635">
        <ele>1691.8644314063</ele>
        <time>2014-03-28T11:21:52Z</time>
      </trkpt>
      <trkpt lat="42.92277" lon="0.25636">
        <ele>1691.8644314063</ele>
        <time>2014-03-28T11:21:57Z</time>
      </trkpt>
      <trkpt lat="42.9227" lon="0.25639">
        <ele>1691.8644314063</ele>
        <time>2014-03-28T11:22:02Z</time>
      </trkpt>
      <trkpt lat="42.92266" lon="0.25641">
        <ele>1694.9534383664</ele>
        <time>2014-03-28T11:22:07Z</time>
      </trkpt>
      <trkpt lat="42.92265" lon="0.2564">
        <ele>1694.9534383664</ele>
        <time>2014-03-28T11:22:12Z</time>
      </trkpt>
      <trkpt lat="42.92267" lon="0.25638">
        <ele>1694.9534383664</ele>
        <time>2014-03-28T11:22:27Z</time>
      </trkpt>
      <trkpt lat="42.92266" lon="0.25636">
        <ele>1694.9534383664</ele>
        <time>2014-03-28T11:22:42Z</time>
      </trkpt>
      <trkpt lat="42.92265" lon="0.25636">
        <ele>1694.9534383664</ele>
        <time>2014-03-28T11:22:47Z</time>
      </trkpt>
      <trkpt lat="42.92262" lon="0.25639">
        <ele>1698.4828687049</ele>
        <time>2014-03-28T11:22:52Z</time>
      </trkpt>
      <trkpt lat="42.92259" lon="0.25641">
        <ele>1698.4828687049</ele>
        <time>2014-03-28T11:22:57Z</time>
      </trkpt>
      <trkpt lat="42.92258" lon="0.25642">
        <ele>1698.4828687049</ele>
        <time>2014-03-28T11:23:02Z</time>
      </trkpt>
      <trkpt lat="42.92255" lon="0.25648">
        <ele>1701.8127024145</ele>
        <time>2014-03-28T11:23:07Z</time>
      </trkpt>
      <trkpt lat="42.92252" lon="0.25652">
        <ele>1701.8127024145</ele>
        <time>2014-03-28T11:23:12Z</time>
      </trkpt>
      <trkpt lat="42.92248" lon="0.25657">
        <ele>1704.840461174</ele>
        <time>2014-03-28T11:23:17Z</time>
      </trkpt>
      <trkpt lat="42.92245" lon="0.25662">
        <ele>1704.840461174</ele>
        <time>2014-03-28T11:23:22Z</time>
      </trkpt>
      <trkpt lat="42.92242" lon="0.25665">
        <ele>1707.5585021644</ele>
        <time>2014-03-28T11:23:27Z</time>
      </trkpt>
      <trkpt lat="42.92239" lon="0.25667">
        <ele>1707.5585021644</ele>
        <time>2014-03-28T11:23:32Z</time>
      </trkpt>
      <trkpt lat="42.92235" lon="0.25672">
        <ele>1707.5585021644</ele>
        <time>2014-03-28T11:23:42Z</time>
      </trkpt>
      <trkpt lat="42.92232" lon="0.25675">
        <ele>1710.1479544347</ele>
        <time>2014-03-28T11:23:47Z</time>
      </trkpt>
      <trkpt lat="42.92231" lon="0.25678">
        <ele>1710.1479544347</ele>
        <time>2014-03-28T11:23:52Z</time>
      </trkpt>
      <trkpt lat="42.92231" lon="0.25678">
        <ele>1710.1479544347</ele>
        <time>2014-03-28T11:23:57Z</time>
      </trkpt>
      <trkpt lat="42.92232" lon="0.25676">
        <ele>1710.1479544347</ele>
        <time>2014-03-28T11:25:52Z</time>
      </trkpt>
      <trkpt lat="42.92234" lon="0.25675">
        <ele>1710.1479544347</ele>
        <time>2014-03-28T11:25:57Z</time>
      </trkpt>
      <trkpt lat="42.92236" lon="0.25674">
        <ele>1710.1479544347</ele>
        <time>2014-03-28T11:26:02Z</time>
      </trkpt>
      <trkpt lat="42.92236" lon="0.25675">
        <ele>1712.9499346784</ele>
        <time>2014-03-28T11:26:07Z</time>
      </trkpt>
      <trkpt lat="42.92236" lon="0.25676">
        <ele>1712.9499346784</ele>
        <time>2014-03-28T11:26:12Z</time>
      </trkpt>
      <trkpt lat="42.92236" lon="0.25677">
        <ele>1712.9499346784</ele>
        <time>2014-03-28T11:26:17Z</time>
      </trkpt>
      <trkpt lat="42.92236" lon="0.25676">
        <ele>1712.9499346784</ele>
        <time>2014-03-28T11:26:22Z</time>
      </trkpt>
      <trkpt lat="42.92228" lon="0.25686">
        <ele>1715.5305267723</ele>
        <time>2014-03-28T11:26:47Z</time>
      </trkpt>
      <trkpt lat="42.92226" lon="0.25689">
        <ele>1715.5305267723</ele>
        <time>2014-03-28T11:26:52Z</time>
      </trkpt>
      <trkpt lat="42.92222" lon="0.25694">
        <ele>1715.5305267723</ele>
        <time>2014-03-28T11:26:57Z</time>
      </trkpt>
      <trkpt lat="42.9222" lon="0.25696">
        <ele>1717.9350548297</ele>
        <time>2014-03-28T11:27:02Z</time>
      </trkpt>
      <trkpt lat="42.92215" lon="0.25702">
        <ele>1717.9350548297</ele>
        <time>2014-03-28T11:27:22Z</time>
      </trkpt>
      <trkpt lat="42.92214" lon="0.25704">
        <ele>1717.9350548297</ele>
        <time>2014-03-28T11:27:28Z</time>
      </trkpt>
      <trkpt lat="42.92213" lon="0.25704">
        <ele>1720.1915945951</ele>
        <time>2014-03-28T11:27:33Z</time>
      </trkpt>
      <trkpt lat="42.92214" lon="0.25702">
        <ele>1720.1915945951</ele>
        <time>2014-03-28T11:27:38Z</time>
      </trkpt>
      <trkpt lat="42.92215" lon="0.25701">
        <ele>1720.1915945951</ele>
        <time>2014-03-28T11:27:43Z</time>
      </trkpt>
      <trkpt lat="42.92213" lon="0.25704">
        <ele>1720.1915945951</ele>
        <time>2014-03-28T11:27:48Z</time>
      </trkpt>
      <trkpt lat="42.92212" lon="0.25702">
        <ele>1720.1915945951</ele>
        <time>2014-03-28T11:27:53Z</time>
      </trkpt>
      <trkpt lat="42.92211" lon="0.25703">
        <ele>1722.1248150108</ele>
        <time>2014-03-28T11:27:57Z</time>
      </trkpt>
      <trkpt lat="42.9221" lon="0.2571">
        <ele>1722.1248150108</ele>
        <time>2014-03-28T11:28:13Z</time>
      </trkpt>
      <trkpt lat="42.92208" lon="0.25713">
        <ele>1722.1248150108</ele>
        <time>2014-03-28T11:28:18Z</time>
      </trkpt>
      <trkpt lat="42.92208" lon="0.25713">
        <ele>1724.351365238</ele>
        <time>2014-03-28T11:28:22Z</time>
      </trkpt>
      <trkpt lat="42.92205" lon="0.25718">
        <ele>1724.351365238</ele>
        <time>2014-03-28T11:28:28Z</time>
      </trkpt>
      <trkpt lat="42.92203" lon="0.25722">
        <ele>1724.351365238</ele>
        <time>2014-03-28T11:28:32Z</time>
      </trkpt>
      <trkpt lat="42.92199" lon="0.25726">
        <ele>1726.4906287486</ele>
        <time>2014-03-28T11:28:38Z</time>
      </trkpt>
      <trkpt lat="42.92196" lon="0.25729">
        <ele>1726.4906287486</ele>
        <time>2014-03-28T11:28:43Z</time>
      </trkpt>
      <trkpt lat="42.92194" lon="0.25729">
        <ele>1726.4906287486</ele>
        <time>2014-03-28T11:28:48Z</time>
      </trkpt>
      <trkpt lat="42.92193" lon="0.25729">
        <ele>1726.4906287486</ele>
        <time>2014-03-28T11:28:53Z</time>
      </trkpt>
      <trkpt lat="42.92192" lon="0.25733">
        <ele>1728.8819136775</ele>
        <time>2014-03-28T11:28:58Z</time>
      </trkpt>
      <trkpt lat="42.92192" lon="0.25732">
        <ele>1728.8819136775</ele>
        <time>2014-03-28T11:29:03Z</time>
      </trkpt>
      <trkpt lat="42.92191" lon="0.25731">
        <ele>1728.8819136775</ele>
        <time>2014-03-28T11:29:28Z</time>
      </trkpt>
      <trkpt lat="42.92188" lon="0.25733">
        <ele>1728.8819136775</ele>
        <time>2014-03-28T11:29:34Z</time>
      </trkpt>
      <trkpt lat="42.92185" lon="0.25733">
        <ele>1728.8819136775</ele>
        <time>2014-03-28T11:29:37Z</time>
      </trkpt>
      <trkpt lat="42.92181" lon="0.25736">
        <ele>1731.3489016405</ele>
        <time>2014-03-28T11:29:43Z</time>
      </trkpt>
      <trkpt lat="42.9218" lon="0.25738">
        <ele>1731.3489016405</ele>
        <time>2014-03-28T11:29:48Z</time>
      </trkpt>
      <trkpt lat="42.92174" lon="0.25745">
        <ele>1733.6127072309</ele>
        <time>2014-03-28T11:29:53Z</time>
      </trkpt>
      <trkpt lat="42.92173" lon="0.25747">
        <ele>1733.6127072309</ele>
        <time>2014-03-28T11:29:58Z</time>
      </trkpt>
      <trkpt lat="42.92172" lon="0.25746">
        <ele>1733.6127072309</ele>
        <time>2014-03-28T11:30:03Z</time>
      </trkpt>
      <trkpt lat="42.92171" lon="0.25749">
        <ele>1733.6127072309</ele>
        <time>2014-03-28T11:30:07Z</time>
      </trkpt>
      <trkpt lat="42.92167" lon="0.25752">
        <ele>1735.862227087</ele>
        <time>2014-03-28T11:30:13Z</time>
      </trkpt>
      <trkpt lat="42.92165" lon="0.25754">
        <ele>1735.862227087</ele>
        <time>2014-03-28T11:30:18Z</time>
      </trkpt>
      <trkpt lat="42.92165" lon="0.25755">
        <ele>1735.862227087</ele>
        <time>2014-03-28T11:30:23Z</time>
      </trkpt>
      <trkpt lat="42.92162" lon="0.25756">
        <ele>1735.862227087</ele>
        <time>2014-03-28T11:30:53Z</time>
      </trkpt>
      <trkpt lat="42.92161" lon="0.25757">
        <ele>1735.862227087</ele>
        <time>2014-03-28T11:30:58Z</time>
      </trkpt>
      <trkpt lat="42.92162" lon="0.25744">
        <ele>1738.6039577774</ele>
        <time>2014-03-28T11:31:52Z</time>
      </trkpt>
      <trkpt lat="42.92162" lon="0.2574">
        <ele>1738.6039577774</ele>
        <time>2014-03-28T11:31:58Z</time>
      </trkpt>
      <trkpt lat="42.9216" lon="0.25737">
        <ele>1738.6039577774</ele>
        <time>2014-03-28T11:32:03Z</time>
      </trkpt>
      <trkpt lat="42.92159" lon="0.25735">
        <ele>1738.6039577774</ele>
        <time>2014-03-28T11:32:07Z</time>
      </trkpt>
      <trkpt lat="42.92154" lon="0.25742">
        <ele>1741.2105435731</ele>
        <time>2014-03-28T11:32:23Z</time>
      </trkpt>
      <trkpt lat="42.92152" lon="0.25746">
        <ele>1741.2105435731</ele>
        <time>2014-03-28T11:32:28Z</time>
      </trkpt>
      <trkpt lat="42.92146" lon="0.25757">
        <ele>1743.763985119</ele>
        <time>2014-03-28T11:32:53Z</time>
      </trkpt>
      <trkpt lat="42.92143" lon="0.25763">
        <ele>1743.763985119</ele>
        <time>2014-03-28T11:32:58Z</time>
      </trkpt>
      <trkpt lat="42.9214" lon="0.25769">
        <ele>1746.0521673751</ele>
        <time>2014-03-28T11:33:04Z</time>
      </trkpt>
      <trkpt lat="42.92138" lon="0.25773">
        <ele>1746.0521673751</ele>
        <time>2014-03-28T11:33:07Z</time>
      </trkpt>
      <trkpt lat="42.92136" lon="0.25775">
        <ele>1746.0521673751</ele>
        <time>2014-03-28T11:33:13Z</time>
      </trkpt>
      <trkpt lat="42.92135" lon="0.25774">
        <ele>1746.0521673751</ele>
        <time>2014-03-28T11:33:17Z</time>
      </trkpt>
      <trkpt lat="42.92135" lon="0.2577">
        <ele>1748.0954494088</ele>
        <time>2014-03-28T11:33:23Z</time>
      </trkpt>
      <trkpt lat="42.92132" lon="0.25767">
        <ele>1748.0954494088</ele>
        <time>2014-03-28T11:33:28Z</time>
      </trkpt>
      <trkpt lat="42.92131" lon="0.25764">
        <ele>1748.0954494088</ele>
        <time>2014-03-28T11:33:32Z</time>
      </trkpt>
      <trkpt lat="42.9213" lon="0.25761">
        <ele>1748.0954494088</ele>
        <time>2014-03-28T11:33:38Z</time>
      </trkpt>
      <trkpt lat="42.92129" lon="0.2576">
        <ele>1750.0574731297</ele>
        <time>2014-03-28T11:33:43Z</time>
      </trkpt>
      <trkpt lat="42.92129" lon="0.2576">
        <ele>1750.0574731297</ele>
        <time>2014-03-28T11:33:48Z</time>
      </trkpt>
      <trkpt lat="42.92121" lon="0.25752">
        <ele>1752.0756543444</ele>
        <time>2014-03-28T11:34:23Z</time>
      </trkpt>
      <trkpt lat="42.9212" lon="0.2575">
        <ele>1752.0756543444</ele>
        <time>2014-03-28T11:34:28Z</time>
      </trkpt>
      <trkpt lat="42.92119" lon="0.25751">
        <ele>1752.0756543444</ele>
        <time>2014-03-28T11:34:32Z</time>
      </trkpt>
      <trkpt lat="42.92116" lon="0.25749">
        <ele>1752.0756543444</ele>
        <time>2014-03-28T11:34:38Z</time>
      </trkpt>
      <trkpt lat="42.92114" lon="0.25747">
        <ele>1754.0321430069</ele>
        <time>2014-03-28T11:34:42Z</time>
      </trkpt>
      <trkpt lat="42.92113" lon="0.25747">
        <ele>1754.0321430069</ele>
        <time>2014-03-28T11:34:48Z</time>
      </trkpt>
      <trkpt lat="42.92111" lon="0.25742">
        <ele>1754.0321430069</ele>
        <time>2014-03-28T11:34:53Z</time>
      </trkpt>
      <trkpt lat="42.9211" lon="0.25743">
        <ele>1754.0321430069</ele>
        <time>2014-03-28T11:34:58Z</time>
      </trkpt>
      <trkpt lat="42.92102" lon="0.2574">
        <ele>1756.5960927349</ele>
        <time>2014-03-28T11:35:33Z</time>
      </trkpt>
      <trkpt lat="42.921" lon="0.25739">
        <ele>1756.5960927349</ele>
        <time>2014-03-28T11:35:38Z</time>
      </trkpt>
      <trkpt lat="42.92097" lon="0.25738">
        <ele>1756.5960927349</ele>
        <time>2014-03-28T11:35:43Z</time>
      </trkpt>
      <trkpt lat="42.92094" lon="0.25737">
        <ele>1756.5960927349</ele>
        <time>2014-03-28T11:35:48Z</time>
      </trkpt>
      <trkpt lat="42.92089" lon="0.25741">
        <ele>1759.0455353391</ele>
        <time>2014-03-28T11:35:53Z</time>
      </trkpt>
      <trkpt lat="42.92088" lon="0.2574">
        <ele>1759.0455353391</ele>
        <time>2014-03-28T11:35:58Z</time>
      </trkpt>
      <trkpt lat="42.92084" lon="0.25748">
        <ele>1759.0455353391</ele>
        <time>2014-03-28T11:36:13Z</time>
      </trkpt>
      <trkpt lat="42.92084" lon="0.2575">
        <ele>1761.4612089165</ele>
        <time>2014-03-28T11:36:18Z</time>
      </trkpt>
      <trkpt lat="42.92081" lon="0.25751">
        <ele>1761.4612089165</ele>
        <time>2014-03-28T11:36:28Z</time>
      </trkpt>
      <trkpt lat="42.92079" lon="0.25749">
        <ele>1761.4612089165</ele>
        <time>2014-03-28T11:36:33Z</time>
      </trkpt>
      <trkpt lat="42.9208" lon="0.25747">
        <ele>1761.4612089165</ele>
        <time>2014-03-28T11:36:37Z</time>
      </trkpt>
      <trkpt lat="42.92079" lon="0.25744">
        <ele>1764.0765103867</ele>
        <time>2014-03-28T11:37:02Z</time>
      </trkpt>
      <trkpt lat="42.92078" lon="0.25744">
        <ele>1764.0765103867</ele>
        <time>2014-03-28T11:37:08Z</time>
      </trkpt>
      <trkpt lat="42.92076" lon="0.25742">
        <ele>1764.0765103867</ele>
        <time>2014-03-28T11:37:12Z</time>
      </trkpt>
      <trkpt lat="42.92073" lon="0.25742">
        <ele>1764.0765103867</ele>
        <time>2014-03-28T11:37:18Z</time>
      </trkpt>
      <trkpt lat="42.92072" lon="0.25741">
        <ele>1764.0765103867</ele>
        <time>2014-03-28T11:37:22Z</time>
      </trkpt>
      <trkpt lat="42.92067" lon="0.25741">
        <ele>1766.7900617734</ele>
        <time>2014-03-28T11:37:33Z</time>
      </trkpt>
      <trkpt lat="42.92064" lon="0.2574">
        <ele>1766.7900617734</ele>
        <time>2014-03-28T11:37:38Z</time>
      </trkpt>
      <trkpt lat="42.92061" lon="0.25739">
        <ele>1766.7900617734</ele>
        <time>2014-03-28T11:37:42Z</time>
      </trkpt>
      <trkpt lat="42.9206" lon="0.25738">
        <ele>1766.7900617734</ele>
        <time>2014-03-28T11:37:48Z</time>
      </trkpt>
      <trkpt lat="42.92055" lon="0.2574">
        <ele>1769.8390901405</ele>
        <time>2014-03-28T11:38:23Z</time>
      </trkpt>
      <trkpt lat="42.92053" lon="0.2574">
        <ele>1769.8390901405</ele>
        <time>2014-03-28T11:38:28Z</time>
      </trkpt>
      <trkpt lat="42.92052" lon="0.25738">
        <ele>1769.8390901405</ele>
        <time>2014-03-28T11:38:33Z</time>
      </trkpt>
      <trkpt lat="42.92051" lon="0.25739">
        <ele>1769.8390901405</ele>
        <time>2014-03-28T11:38:38Z</time>
      </trkpt>
      <trkpt lat="42.92045" lon="0.25744">
        <ele>1773.1974480176</ele>
        <time>2014-03-28T11:38:53Z</time>
      </trkpt>
      <trkpt lat="42.92045" lon="0.25748">
        <ele>1773.1974480176</ele>
        <time>2014-03-28T11:38:58Z</time>
      </trkpt>
      <trkpt lat="42.92045" lon="0.25751">
        <ele>1773.1974480176</ele>
        <time>2014-03-28T11:39:03Z</time>
      </trkpt>
      <trkpt lat="42.92044" lon="0.25753">
        <ele>1773.1974480176</ele>
        <time>2014-03-28T11:39:08Z</time>
      </trkpt>
      <trkpt lat="42.92043" lon="0.25759">
        <ele>1776.9120848837</ele>
        <time>2014-03-28T11:39:58Z</time>
      </trkpt>
      <trkpt lat="42.92043" lon="0.25766">
        <ele>1776.9120848837</ele>
        <time>2014-03-28T11:40:03Z</time>
      </trkpt>
      <trkpt lat="42.92041" lon="0.25777">
        <ele>1780.5643420812</ele>
        <time>2014-03-28T11:40:13Z</time>
      </trkpt>
      <trkpt lat="42.92042" lon="0.25778">
        <ele>1780.5643420812</ele>
        <time>2014-03-28T11:40:18Z</time>
      </trkpt>
      <trkpt lat="42.92043" lon="0.25779">
        <ele>1780.5643420812</ele>
        <time>2014-03-28T11:40:23Z</time>
      </trkpt>
      <trkpt lat="42.92043" lon="0.25784">
        <ele>1780.5643420812</ele>
        <time>2014-03-28T11:40:53Z</time>
      </trkpt>
      <trkpt lat="42.92042" lon="0.25787">
        <ele>1780.5643420812</ele>
        <time>2014-03-28T11:40:57Z</time>
      </trkpt>
      <trkpt lat="42.92041" lon="0.25791">
        <ele>1784.7320407722</ele>
        <time>2014-03-28T11:41:03Z</time>
      </trkpt>
      <trkpt lat="42.9204" lon="0.25793">
        <ele>1784.7320407722</ele>
        <time>2014-03-28T11:41:08Z</time>
      </trkpt>
      <trkpt lat="42.92039" lon="0.25795">
        <ele>1784.7320407722</ele>
        <time>2014-03-28T11:41:13Z</time>
      </trkpt>
      <trkpt lat="42.92036" lon="0.25797">
        <ele>1784.7320407722</ele>
        <time>2014-03-28T11:41:18Z</time>
      </trkpt>
      <trkpt lat="42.92036" lon="0.25797">
        <ele>1784.7320407722</ele>
        <time>2014-03-28T11:41:22Z</time>
      </trkpt>
      <trkpt lat="42.92037" lon="0.2579">
        <ele>1788.9547589773</ele>
        <time>2014-03-28T11:41:53Z</time>
      </trkpt>
      <trkpt lat="42.92036" lon="0.25791">
        <ele>1788.9547589773</ele>
        <time>2014-03-28T11:41:58Z</time>
      </trkpt>
      <trkpt lat="42.92032" lon="0.25788">
        <ele>1788.9547589773</ele>
        <time>2014-03-28T11:42:08Z</time>
      </trkpt>
      <trkpt lat="42.9203" lon="0.25791">
        <ele>1788.9547589773</ele>
        <time>2014-03-28T11:42:12Z</time>
      </trkpt>
      <trkpt lat="42.92027" lon="0.25792">
        <ele>1792.9354699176</ele>
        <time>2014-03-28T11:42:17Z</time>
      </trkpt>
      <trkpt lat="42.92024" lon="0.25792">
        <ele>1792.9354699176</ele>
        <time>2014-03-28T11:42:23Z</time>
      </trkpt>
      <trkpt lat="42.92021" lon="0.25793">
        <ele>1792.9354699176</ele>
        <time>2014-03-28T11:42:28Z</time>
      </trkpt>
      <trkpt lat="42.92016" lon="0.25793">
        <ele>1796.5293823851</ele>
        <time>2014-03-28T11:42:33Z</time>
      </trkpt>
      <trkpt lat="42.92013" lon="0.25793">
        <ele>1796.5293823851</ele>
        <time>2014-03-28T11:42:38Z</time>
      </trkpt>
      <trkpt lat="42.92012" lon="0.25793">
        <ele>1796.5293823851</ele>
        <time>2014-03-28T11:42:43Z</time>
      </trkpt>
      <trkpt lat="42.92005" lon="0.25794">
        <ele>1799.8628723406</ele>
        <time>2014-03-28T11:43:13Z</time>
      </trkpt>
      <trkpt lat="42.92004" lon="0.25792">
        <ele>1799.8628723406</ele>
        <time>2014-03-28T11:43:18Z</time>
      </trkpt>
      <trkpt lat="42.92003" lon="0.25788">
        <ele>1799.8628723406</ele>
        <time>2014-03-28T11:43:22Z</time>
      </trkpt>
      <trkpt lat="42.92" lon="0.25787">
        <ele>1799.8628723406</ele>
        <time>2014-03-28T11:43:28Z</time>
      </trkpt>
      <trkpt lat="42.91998" lon="0.25785">
        <ele>1802.794413874</ele>
        <time>2014-03-28T11:43:33Z</time>
      </trkpt>
      <trkpt lat="42.91997" lon="0.25782">
        <ele>1802.794413874</ele>
        <time>2014-03-28T11:43:38Z</time>
      </trkpt>
      <trkpt lat="42.91996" lon="0.25781">
        <ele>1802.794413874</ele>
        <time>2014-03-28T11:43:43Z</time>
      </trkpt>
      <trkpt lat="42.91988" lon="0.25783">
        <ele>1805.7128591328</ele>
        <time>2014-03-28T11:44:22Z</time>
      </trkpt>
      <trkpt lat="42.91985" lon="0.2579">
        <ele>1805.7128591328</ele>
        <time>2014-03-28T11:44:33Z</time>
      </trkpt>
      <trkpt lat="42.91989" lon="0.25791">
        <ele>1808.4453748147</ele>
        <time>2014-03-28T11:44:38Z</time>
      </trkpt>
      <trkpt lat="42.91987" lon="0.25793">
        <ele>1808.4453748147</ele>
        <time>2014-03-28T11:44:42Z</time>
      </trkpt>
      <trkpt lat="42.91988" lon="0.25792">
        <ele>1808.4453748147</ele>
        <time>2014-03-28T11:44:58Z</time>
      </trkpt>
      <trkpt lat="42.91988" lon="0.25792">
        <ele>1808.4453748147</ele>
        <time>2014-03-28T11:45:03Z</time>
      </trkpt>
      <trkpt lat="42.91991" lon="0.25792">
        <ele>1808.4453748147</ele>
        <time>2014-03-28T11:45:18Z</time>
      </trkpt>
      <trkpt lat="42.91991" lon="0.25791">
        <ele>1808.4453748147</ele>
        <time>2014-03-28T11:45:23Z</time>
      </trkpt>
      <trkpt lat="42.91997" lon="0.25791">
        <ele>1811.4953098421</ele>
        <time>2014-03-28T11:45:32Z</time>
      </trkpt>
      <trkpt lat="42.91998" lon="0.25791">
        <ele>1811.4953098421</ele>
        <time>2014-03-28T11:45:38Z</time>
      </trkpt>
      <trkpt lat="42.92" lon="0.25788">
        <ele>1811.4953098421</ele>
        <time>2014-03-28T11:45:43Z</time>
      </trkpt>
      <trkpt lat="42.91995" lon="0.25793">
        <ele>1814.4202978828</ele>
        <time>2014-03-28T11:45:48Z</time>
      </trkpt>
      <trkpt lat="42.91992" lon="0.25792">
        <ele>1814.4202978828</ele>
        <time>2014-03-28T11:45:53Z</time>
      </trkpt>
      <trkpt lat="42.91991" lon="0.2579">
        <ele>1814.4202978828</ele>
        <time>2014-03-28T11:45:57Z</time>
      </trkpt>
      <trkpt lat="42.91986" lon="0.25787">
        <ele>1817.0270348541</ele>
        <time>2014-03-28T11:46:02Z</time>
      </trkpt>
      <trkpt lat="42.91984" lon="0.25783">
        <ele>1817.0270348541</ele>
        <time>2014-03-28T11:46:07Z</time>
      </trkpt>
      <trkpt lat="42.91984" lon="0.25783">
        <ele>1817.0270348541</ele>
        <time>2014-03-28T11:46:12Z</time>
      </trkpt>
      <trkpt lat="42.91981" lon="0.25779">
        <ele>1817.0270348541</ele>
        <time>2014-03-28T11:46:17Z</time>
      </trkpt>
      <trkpt lat="42.9198" lon="0.25776">
        <ele>1819.2382330796</ele>
        <time>2014-03-28T11:46:23Z</time>
      </trkpt>
      <trkpt lat="42.9198" lon="0.25775">
        <ele>1819.2382330796</ele>
        <time>2014-03-28T11:46:28Z</time>
      </trkpt>
      <trkpt lat="42.9198" lon="0.25775">
        <ele>1819.2382330796</ele>
        <time>2014-03-28T11:46:33Z</time>
      </trkpt>
      <trkpt lat="42.91975" lon="0.25771">
        <ele>1819.2382330796</ele>
        <time>2014-03-28T11:46:58Z</time>
      </trkpt>
      <trkpt lat="42.91975" lon="0.25769">
        <ele>1819.2382330796</ele>
        <time>2014-03-28T11:47:03Z</time>
      </trkpt>
      <trkpt lat="42.91976" lon="0.25768">
        <ele>1822.8857035716</ele>
        <time>2014-03-28T11:47:58Z</time>
      </trkpt>
      <trkpt lat="42.91976" lon="0.2577">
        <ele>1822.8857035716</ele>
        <time>2014-03-28T11:48:03Z</time>
      </trkpt>
      <trkpt lat="42.91976" lon="0.2577">
        <ele>1822.8857035716</ele>
        <time>2014-03-28T11:48:08Z</time>
      </trkpt>
      <trkpt lat="42.91968" lon="0.25778">
        <ele>1826.4490281168</ele>
        <time>2014-03-28T11:48:23Z</time>
      </trkpt>
      <trkpt lat="42.91967" lon="0.25778">
        <ele>1826.4490281168</ele>
        <time>2014-03-28T11:48:28Z</time>
      </trkpt>
      <trkpt lat="42.91964" lon="0.25771">
        <ele>1826.4490281168</ele>
        <time>2014-03-28T11:48:57Z</time>
      </trkpt>
      <trkpt lat="42.91964" lon="0.25772">
        <ele>1826.4490281168</ele>
        <time>2014-03-28T11:49:03Z</time>
      </trkpt>
      <trkpt lat="42.91962" lon="0.25771">
        <ele>1830.2058574231</ele>
        <time>2014-03-28T11:49:28Z</time>
      </trkpt>
      <trkpt lat="42.91961" lon="0.25771">
        <ele>1830.2058574231</ele>
        <time>2014-03-28T11:49:33Z</time>
      </trkpt>
      <trkpt lat="42.91957" lon="0.2577">
        <ele>1830.2058574231</ele>
        <time>2014-03-28T11:50:08Z</time>
      </trkpt>
      <trkpt lat="42.91953" lon="0.25774">
        <ele>1833.8941488949</ele>
        <time>2014-03-28T11:50:13Z</time>
      </trkpt>
      <trkpt lat="42.9195" lon="0.25773">
        <ele>1833.8941488949</ele>
        <time>2014-03-28T11:50:18Z</time>
      </trkpt>
      <trkpt lat="42.9194" lon="0.25774">
        <ele>1837.5163407141</ele>
        <time>2014-03-28T11:50:42Z</time>
      </trkpt>
      <trkpt lat="42.91938" lon="0.25773">
        <ele>1837.5163407141</ele>
        <time>2014-03-28T11:50:47Z</time>
      </trkpt>
      <trkpt lat="42.9193" lon="0.2578">
        <ele>1841.4352096528</ele>
        <time>2014-03-28T11:51:28Z</time>
      </trkpt>
      <trkpt lat="42.91925" lon="0.25787">
        <ele>1841.4352096528</ele>
        <time>2014-03-28T11:51:33Z</time>
      </trkpt>
      <trkpt lat="42.91924" lon="0.25788">
        <ele>1841.4352096528</ele>
        <time>2014-03-28T11:51:38Z</time>
      </trkpt>
      <trkpt lat="42.91928" lon="0.258">
        <ele>1845.3952537052</ele>
        <time>2014-03-28T11:52:18Z</time>
      </trkpt>
      <trkpt lat="42.9193" lon="0.25799">
        <ele>1845.3952537052</ele>
        <time>2014-03-28T11:52:23Z</time>
      </trkpt>
      <trkpt lat="42.91937" lon="0.25794">
        <ele>1849.0876311994</ele>
        <time>2014-03-28T11:52:43Z</time>
      </trkpt>
      <trkpt lat="42.9193" lon="0.25805">
        <ele>1852.5152264562</ele>
        <time>2014-03-28T11:52:58Z</time>
      </trkpt>
      <trkpt lat="42.9193" lon="0.25808">
        <ele>1852.5152264562</ele>
        <time>2014-03-28T11:53:03Z</time>
      </trkpt>
      <trkpt lat="42.91927" lon="0.25812">
        <ele>1852.5152264562</ele>
        <time>2014-03-28T11:53:08Z</time>
      </trkpt>
      <trkpt lat="42.91927" lon="0.25813">
        <ele>1852.5152264562</ele>
        <time>2014-03-28T11:53:12Z</time>
      </trkpt>
      <trkpt lat="42.91923" lon="0.25821">
        <ele>1856.4453124113</ele>
        <time>2014-03-28T11:54:22Z</time>
      </trkpt>
      <trkpt lat="42.91922" lon="0.25821">
        <ele>1856.4453124113</ele>
        <time>2014-03-28T11:54:28Z</time>
      </trkpt>
      <trkpt lat="42.9192" lon="0.25827">
        <ele>1856.4453124113</ele>
        <time>2014-03-28T11:54:38Z</time>
      </trkpt>
      <trkpt lat="42.91918" lon="0.25833">
        <ele>1860.0887031198</ele>
        <time>2014-03-28T11:54:48Z</time>
      </trkpt>
      <trkpt lat="42.91916" lon="0.25837">
        <ele>1860.0887031198</ele>
        <time>2014-03-28T11:54:53Z</time>
      </trkpt>
      <trkpt lat="42.91911" lon="0.25846">
        <ele>1863.4356168512</ele>
        <time>2014-03-28T11:54:58Z</time>
      </trkpt>
      <trkpt lat="42.9191" lon="0.25848">
        <ele>1863.4356168512</ele>
        <time>2014-03-28T11:55:03Z</time>
      </trkpt>
      <trkpt lat="42.91906" lon="0.25856">
        <ele>1866.4923037996</ele>
        <time>2014-03-28T11:55:08Z</time>
      </trkpt>
      <trkpt lat="42.91903" lon="0.25862">
        <ele>1866.4923037996</ele>
        <time>2014-03-28T11:55:13Z</time>
      </trkpt>
      <trkpt lat="42.91901" lon="0.25865">
        <ele>1866.4923037996</ele>
        <time>2014-03-28T11:55:18Z</time>
      </trkpt>
      <trkpt lat="42.91896" lon="0.25874">
        <ele>1869.5392494299</ele>
        <time>2014-03-28T11:55:22Z</time>
      </trkpt>
      <trkpt lat="42.91894" lon="0.25879">
        <ele>1869.5392494299</ele>
        <time>2014-03-28T11:55:28Z</time>
      </trkpt>
      <trkpt lat="42.91891" lon="0.25884">
        <ele>1869.5392494299</ele>
        <time>2014-03-28T11:55:33Z</time>
      </trkpt>
      <trkpt lat="42.91889" lon="0.25888">
        <ele>1872.5626167893</ele>
        <time>2014-03-28T11:55:37Z</time>
      </trkpt>
      <trkpt lat="42.91886" lon="0.25893">
        <ele>1872.5626167893</ele>
        <time>2014-03-28T11:55:43Z</time>
      </trkpt>
      <trkpt lat="42.91882" lon="0.25898">
        <ele>1875.4344238636</ele>
        <time>2014-03-28T11:55:58Z</time>
      </trkpt>
      <trkpt lat="42.91882" lon="0.25898">
        <ele>1875.4344238636</ele>
        <time>2014-03-28T11:56:03Z</time>
      </trkpt>
      <trkpt lat="42.91878" lon="0.25907">
        <ele>1875.4344238636</ele>
        <time>2014-03-28T11:56:17Z</time>
      </trkpt>
      <trkpt lat="42.91876" lon="0.25909">
        <ele>1878.065393376</ele>
        <time>2014-03-28T11:56:23Z</time>
      </trkpt>
      <trkpt lat="42.91875" lon="0.2591">
        <ele>1878.065393376</ele>
        <time>2014-03-28T11:56:28Z</time>
      </trkpt>
      <trkpt lat="42.91872" lon="0.25914">
        <ele>1878.065393376</ele>
        <time>2014-03-28T11:56:33Z</time>
      </trkpt>
      <trkpt lat="42.9187" lon="0.25916">
        <ele>1878.065393376</ele>
        <time>2014-03-28T11:56:37Z</time>
      </trkpt>
      <trkpt lat="42.91869" lon="0.25917">
        <ele>1880.5032316165</ele>
        <time>2014-03-28T11:56:43Z</time>
      </trkpt>
      <trkpt lat="42.91869" lon="0.25922">
        <ele>1880.5032316165</ele>
        <time>2014-03-28T11:56:48Z</time>
      </trkpt>
      <trkpt lat="42.91869" lon="0.25926">
        <ele>1880.5032316165</ele>
        <time>2014-03-28T11:56:53Z</time>
      </trkpt>
      <trkpt lat="42.91867" lon="0.25933">
        <ele>1882.7350800295</ele>
        <time>2014-03-28T11:56:58Z</time>
      </trkpt>
      <trkpt lat="42.91864" lon="0.25941">
        <ele>1882.7350800295</ele>
        <time>2014-03-28T11:57:03Z</time>
      </trkpt>
      <trkpt lat="42.91866" lon="0.25939">
        <ele>1882.7350800295</ele>
        <time>2014-03-28T11:57:08Z</time>
      </trkpt>
      <trkpt lat="42.91865" lon="0.25939">
        <ele>1884.6919916038</ele>
        <time>2014-03-28T11:57:13Z</time>
      </trkpt>
      <trkpt lat="42.91864" lon="0.25946">
        <ele>1884.6919916038</ele>
        <time>2014-03-28T11:57:18Z</time>
      </trkpt>
      <trkpt lat="42.91862" lon="0.25953">
        <ele>1886.2244118638</ele>
        <time>2014-03-28T11:57:23Z</time>
      </trkpt>
      <trkpt lat="42.9186" lon="0.25961">
        <ele>1886.2244118638</ele>
        <time>2014-03-28T11:57:28Z</time>
      </trkpt>
      <trkpt lat="42.91856" lon="0.25969">
        <ele>1887.4399634211</ele>
        <time>2014-03-28T11:57:32Z</time>
      </trkpt>
      <trkpt lat="42.91855" lon="0.25972">
        <ele>1887.4399634211</ele>
        <time>2014-03-28T11:57:38Z</time>
      </trkpt>
      <trkpt lat="42.91854" lon="0.25978">
        <ele>1887.4399634211</ele>
        <time>2014-03-28T11:57:43Z</time>
      </trkpt>
      <trkpt lat="42.91852" lon="0.25983">
        <ele>1888.4968938983</ele>
        <time>2014-03-28T11:57:48Z</time>
      </trkpt>
      <trkpt lat="42.91853" lon="0.25986">
        <ele>1888.4968938983</ele>
        <time>2014-03-28T11:57:53Z</time>
      </trkpt>
      <trkpt lat="42.91853" lon="0.25992">
        <ele>1888.4968938983</ele>
        <time>2014-03-28T11:57:58Z</time>
      </trkpt>
      <trkpt lat="42.9185" lon="0.26001">
        <ele>1889.3837314578</ele>
        <time>2014-03-28T11:58:03Z</time>
      </trkpt>
      <trkpt lat="42.91849" lon="0.26005">
        <ele>1889.3837314578</ele>
        <time>2014-03-28T11:58:08Z</time>
      </trkpt>
      <trkpt lat="42.91849" lon="0.2601">
        <ele>1889.3837314578</ele>
        <time>2014-03-28T11:58:13Z</time>
      </trkpt>
      <trkpt lat="42.91849" lon="0.26013">
        <ele>1889.3837314578</ele>
        <time>2014-03-28T11:58:18Z</time>
      </trkpt>
      <trkpt lat="42.91849" lon="0.26017">
        <ele>1890.2199912394</ele>
        <time>2014-03-28T11:58:23Z</time>
      </trkpt>
      <trkpt lat="42.9185" lon="0.26021">
        <ele>1890.2199912394</ele>
        <time>2014-03-28T11:58:28Z</time>
      </trkpt>
      <trkpt lat="42.91849" lon="0.26022">
        <ele>1890.2199912394</ele>
        <time>2014-03-28T11:58:33Z</time>
      </trkpt>
      <trkpt lat="42.91851" lon="0.26028">
        <ele>1890.2199912394</ele>
        <time>2014-03-28T11:58:38Z</time>
      </trkpt>
      <trkpt lat="42.91848" lon="0.26033">
        <ele>1890.9868021934</ele>
        <time>2014-03-28T11:58:43Z</time>
      </trkpt>
      <trkpt lat="42.9185" lon="0.26038">
        <ele>1890.9868021934</ele>
        <time>2014-03-28T11:58:48Z</time>
      </trkpt>
      <trkpt lat="42.9185" lon="0.26044">
        <ele>1890.9868021934</ele>
        <time>2014-03-28T11:58:53Z</time>
      </trkpt>
      <trkpt lat="42.91849" lon="0.26049">
        <ele>1891.7820998346</ele>
        <time>2014-03-28T11:58:58Z</time>
      </trkpt>
      <trkpt lat="42.91849" lon="0.26055">
        <ele>1891.7820998346</ele>
        <time>2014-03-28T11:59:03Z</time>
      </trkpt>
      <trkpt lat="42.91848" lon="0.26056">
        <ele>1891.7820998346</ele>
        <time>2014-03-28T11:59:08Z</time>
      </trkpt>
      <trkpt lat="42.91848" lon="0.26059">
        <ele>1891.7820998346</ele>
        <time>2014-03-28T11:59:13Z</time>
      </trkpt>
      <trkpt lat="42.9185" lon="0.2606">
        <ele>1892.3938342208</ele>
        <time>2014-03-28T11:59:18Z</time>
      </trkpt>
      <trkpt lat="42.91853" lon="0.26058">
        <ele>1892.3938342208</ele>
        <time>2014-03-28T11:59:23Z</time>
      </trkpt>
      <trkpt lat="42.91853" lon="0.26058">
        <ele>1892.3938342208</ele>
        <time>2014-03-28T11:59:28Z</time>
      </trkpt>
      <trkpt lat="42.91857" lon="0.26058">
        <ele>1892.3938342208</ele>
        <time>2014-03-28T11:59:53Z</time>
      </trkpt>
      <trkpt lat="42.91859" lon="0.26057">
        <ele>1892.957411789</ele>
        <time>2014-03-28T11:59:57Z</time>
      </trkpt>
      <trkpt lat="42.91855" lon="0.26061">
        <ele>1892.957411789</ele>
        <time>2014-03-28T12:00:03Z</time>
      </trkpt>
      <trkpt lat="42.91855" lon="0.26061">
        <ele>1892.957411789</ele>
        <time>2014-03-28T12:00:08Z</time>
      </trkpt>
      <trkpt lat="42.91854" lon="0.26063">
        <ele>1892.957411789</ele>
        <time>2014-03-28T12:00:13Z</time>
      </trkpt>
      <trkpt lat="42.91855" lon="0.26063">
        <ele>1892.957411789</ele>
        <time>2014-03-28T12:00:17Z</time>
      </trkpt>
      <trkpt lat="42.91855" lon="0.26062">
        <ele>1892.957411789</ele>
        <time>2014-03-28T12:00:22Z</time>
      </trkpt>
      <trkpt lat="42.91854" lon="0.26062">
        <ele>1892.957411789</ele>
        <time>2014-03-28T12:00:28Z</time>
      </trkpt>
      <trkpt lat="42.91853" lon="0.2606">
        <ele>1893.6415567546</ele>
        <time>2014-03-28T12:00:43Z</time>
      </trkpt>
      <trkpt lat="42.9186" lon="0.26054">
        <ele>1893.6415567546</ele>
        <time>2014-03-28T12:01:29Z</time>
      </trkpt>
      <trkpt lat="42.91861" lon="0.26054">
        <ele>1894.011289135</ele>
        <time>2014-03-28T12:01:33Z</time>
      </trkpt>
      <trkpt lat="42.91861" lon="0.26054">
        <ele>1894.011289135</ele>
        <time>2014-03-28T12:01:38Z</time>
      </trkpt>
      <trkpt lat="42.91855" lon="0.26064">
        <ele>1893.9381477115</ele>
        <time>2014-03-28T12:02:23Z</time>
      </trkpt>
      <trkpt lat="42.91855" lon="0.26064">
        <ele>1893.9381477115</ele>
        <time>2014-03-28T12:02:28Z</time>
      </trkpt>
      <trkpt lat="42.91853" lon="0.26062">
        <ele>1893.9381477115</ele>
        <time>2014-03-28T12:02:38Z</time>
      </trkpt>
      <trkpt lat="42.91857" lon="0.2606">
        <ele>1893.9381477115</ele>
        <time>2014-03-28T12:02:48Z</time>
      </trkpt>
      <trkpt lat="42.91857" lon="0.26058">
        <ele>1893.9381477115</ele>
        <time>2014-03-28T12:02:53Z</time>
      </trkpt>
      <trkpt lat="42.91857" lon="0.2606">
        <ele>1893.9381477115</ele>
        <time>2014-03-28T12:02:58Z</time>
      </trkpt>
      <trkpt lat="42.91855" lon="0.26059">
        <ele>1894.0680002304</ele>
        <time>2014-03-28T12:03:03Z</time>
      </trkpt>
      <trkpt lat="42.91855" lon="0.2606">
        <ele>1894.0680002304</ele>
        <time>2014-03-28T12:03:23Z</time>
      </trkpt>
      <trkpt lat="42.91855" lon="0.26061">
        <ele>1894.0680002304</ele>
        <time>2014-03-28T12:03:28Z</time>
      </trkpt>
      <trkpt lat="42.91853" lon="0.26073">
        <ele>1893.9753596958</ele>
        <time>2014-03-28T12:29:28Z</time>
      </trkpt>
      <trkpt lat="42.91853" lon="0.26073">
        <ele>1893.9753596958</ele>
        <time>2014-03-28T12:29:33Z</time>
      </trkpt>
      <trkpt lat="42.91839" lon="0.26064">
        <ele>1893.6699677655</ele>
        <time>2014-03-28T12:30:38Z</time>
      </trkpt>
      <trkpt lat="42.91827" lon="0.2606">
        <ele>1893.2333284691</ele>
        <time>2014-03-28T12:30:43Z</time>
      </trkpt>
      <trkpt lat="42.9181" lon="0.26048">
        <ele>1892.6546744164</ele>
        <time>2014-03-28T12:30:48Z</time>
      </trkpt>
      <trkpt lat="42.91786" lon="0.26035">
        <ele>1891.8954083488</ele>
        <time>2014-03-28T12:30:53Z</time>
      </trkpt>
      <trkpt lat="42.91773" lon="0.26031">
        <ele>1890.9344778299</ele>
        <time>2014-03-28T12:30:58Z</time>
      </trkpt>
      <trkpt lat="42.91763" lon="0.26032">
        <ele>1889.651845067</ele>
        <time>2014-03-28T12:31:03Z</time>
      </trkpt>
      <trkpt lat="42.91755" lon="0.26036">
        <ele>1889.651845067</ele>
        <time>2014-03-28T12:31:08Z</time>
      </trkpt>
      <trkpt lat="42.9175" lon="0.2604">
        <ele>1887.7352048071</ele>
        <time>2014-03-28T12:31:13Z</time>
      </trkpt>
      <trkpt lat="42.91739" lon="0.26035">
        <ele>1885.5164044816</ele>
        <time>2014-03-28T12:31:18Z</time>
      </trkpt>
      <trkpt lat="42.91731" lon="0.26029">
        <ele>1883.0585124606</ele>
        <time>2014-03-28T12:31:23Z</time>
      </trkpt>
      <trkpt lat="42.91727" lon="0.26038">
        <ele>1883.0585124606</ele>
        <time>2014-03-28T12:31:28Z</time>
      </trkpt>
      <trkpt lat="42.91727" lon="0.26039">
        <ele>1883.0585124606</ele>
        <time>2014-03-28T12:31:33Z</time>
      </trkpt>
      <trkpt lat="42.9172" lon="0.26044">
        <ele>1880.00243557</ele>
        <time>2014-03-28T12:32:13Z</time>
      </trkpt>
      <trkpt lat="42.91715" lon="0.26035">
        <ele>1880.00243557</ele>
        <time>2014-03-28T12:32:18Z</time>
      </trkpt>
      <trkpt lat="42.9171" lon="0.26028">
        <ele>1876.9823882831</ele>
        <time>2014-03-28T12:32:23Z</time>
      </trkpt>
      <trkpt lat="42.91709" lon="0.26027">
        <ele>1876.9823882831</ele>
        <time>2014-03-28T12:32:28Z</time>
      </trkpt>
      <trkpt lat="42.91708" lon="0.26023">
        <ele>1876.9823882831</ele>
        <time>2014-03-28T12:34:13Z</time>
      </trkpt>
      <trkpt lat="42.91696" lon="0.26028">
        <ele>1873.2453488719</ele>
        <time>2014-03-28T12:34:18Z</time>
      </trkpt>
      <trkpt lat="42.91686" lon="0.26025">
        <ele>1869.6805160909</ele>
        <time>2014-03-28T12:34:23Z</time>
      </trkpt>
      <trkpt lat="42.91677" lon="0.26027">
        <ele>1866.2030375191</ele>
        <time>2014-03-28T12:34:28Z</time>
      </trkpt>
      <trkpt lat="42.91666" lon="0.26019">
        <ele>1862.8633854751</ele>
        <time>2014-03-28T12:34:33Z</time>
      </trkpt>
      <trkpt lat="42.91652" lon="0.26022">
        <ele>1859.4913939836</ele>
        <time>2014-03-28T12:34:38Z</time>
      </trkpt>
      <trkpt lat="42.9165" lon="0.26029">
        <ele>1859.4913939836</ele>
        <time>2014-03-28T12:34:43Z</time>
      </trkpt>
      <trkpt lat="42.91644" lon="0.26045">
        <ele>1855.9146884491</ele>
        <time>2014-03-28T12:34:48Z</time>
      </trkpt>
      <trkpt lat="42.91643" lon="0.26066">
        <ele>1852.247544441</ele>
        <time>2014-03-28T12:34:53Z</time>
      </trkpt>
      <trkpt lat="42.9164" lon="0.26083">
        <ele>1848.5092240684</ele>
        <time>2014-03-28T12:34:58Z</time>
      </trkpt>
      <trkpt lat="42.91631" lon="0.26088">
        <ele>1844.7173613078</ele>
        <time>2014-03-28T12:35:03Z</time>
      </trkpt>
      <trkpt lat="42.91627" lon="0.26102">
        <ele>1840.9024373469</ele>
        <time>2014-03-28T12:35:08Z</time>
      </trkpt>
      <trkpt lat="42.91617" lon="0.26105">
        <ele>1837.0346910584</ele>
        <time>2014-03-28T12:35:13Z</time>
      </trkpt>
      <trkpt lat="42.91614" lon="0.26123">
        <ele>1832.9998019612</ele>
        <time>2014-03-28T12:35:18Z</time>
      </trkpt>
      <trkpt lat="42.91605" lon="0.26128">
        <ele>1829.03775369</ele>
        <time>2014-03-28T12:35:23Z</time>
      </trkpt>
      <trkpt lat="42.91603" lon="0.26149">
        <ele>1825.0243987974</ele>
        <time>2014-03-28T12:35:28Z</time>
      </trkpt>
      <trkpt lat="42.91595" lon="0.26151">
        <ele>1825.0243987974</ele>
        <time>2014-03-28T12:35:32Z</time>
      </trkpt>
      <trkpt lat="42.91586" lon="0.26149">
        <ele>1820.2967986905</ele>
        <time>2014-03-28T12:35:38Z</time>
      </trkpt>
      <trkpt lat="42.91587" lon="0.26164">
        <ele>1815.5825176798</ele>
        <time>2014-03-28T12:35:43Z</time>
      </trkpt>
      <trkpt lat="42.91579" lon="0.26161">
        <ele>1815.5825176798</ele>
        <time>2014-03-28T12:35:48Z</time>
      </trkpt>
      <trkpt lat="42.91568" lon="0.26161">
        <ele>1810.3590777065</ele>
        <time>2014-03-28T12:35:52Z</time>
      </trkpt>
      <trkpt lat="42.91571" lon="0.26175">
        <ele>1805.209794021</ele>
        <time>2014-03-28T12:35:58Z</time>
      </trkpt>
      <trkpt lat="42.91555" lon="0.26177">
        <ele>1799.9106927347</ele>
        <time>2014-03-28T12:36:03Z</time>
      </trkpt>
      <trkpt lat="42.91556" lon="0.26184">
        <ele>1799.9106927347</ele>
        <time>2014-03-28T12:36:08Z</time>
      </trkpt>
      <trkpt lat="42.91556" lon="0.26185">
        <ele>1799.9106927347</ele>
        <time>2014-03-28T12:36:13Z</time>
      </trkpt>
      <trkpt lat="42.91559" lon="0.26189">
        <ele>1793.7354267885</ele>
        <time>2014-03-28T12:36:38Z</time>
      </trkpt>
      <trkpt lat="42.91559" lon="0.2619">
        <ele>1793.7354267885</ele>
        <time>2014-03-28T12:36:42Z</time>
      </trkpt>
      <trkpt lat="42.91553" lon="0.26192">
        <ele>1793.7354267885</ele>
        <time>2014-03-28T12:37:19Z</time>
      </trkpt>
      <trkpt lat="42.91553" lon="0.26193">
        <ele>1793.7354267885</ele>
        <time>2014-03-28T12:37:22Z</time>
      </trkpt>
      <trkpt lat="42.91552" lon="0.26191">
        <ele>1793.7354267885</ele>
        <time>2014-03-28T12:37:28Z</time>
      </trkpt>
      <trkpt lat="42.91544" lon="0.2618">
        <ele>1787.7567586033</ele>
        <time>2014-03-28T12:37:32Z</time>
      </trkpt>
      <trkpt lat="42.91529" lon="0.26167">
        <ele>1782.4056072043</ele>
        <time>2014-03-28T12:37:37Z</time>
      </trkpt>
      <trkpt lat="42.91508" lon="0.26153">
        <ele>1777.5746318222</ele>
        <time>2014-03-28T12:37:43Z</time>
      </trkpt>
      <trkpt lat="42.915" lon="0.26148">
        <ele>1777.5746318222</ele>
        <time>2014-03-28T12:37:48Z</time>
      </trkpt>
      <trkpt lat="42.915" lon="0.26149">
        <ele>1773.0904085974</ele>
        <time>2014-03-28T12:37:53Z</time>
      </trkpt>
      <trkpt lat="42.91495" lon="0.26146">
        <ele>1773.0904085974</ele>
        <time>2014-03-28T12:38:23Z</time>
      </trkpt>
      <trkpt lat="42.91489" lon="0.26143">
        <ele>1768.7043666823</ele>
        <time>2014-03-28T12:38:28Z</time>
      </trkpt>
      <trkpt lat="42.91485" lon="0.26137">
        <ele>1768.7043666823</ele>
        <time>2014-03-28T12:38:32Z</time>
      </trkpt>
      <trkpt lat="42.9148" lon="0.26133">
        <ele>1764.8195724117</ele>
        <time>2014-03-28T12:38:38Z</time>
      </trkpt>
      <trkpt lat="42.91472" lon="0.2613">
        <ele>1764.8195724117</ele>
        <time>2014-03-28T12:38:43Z</time>
      </trkpt>
      <trkpt lat="42.91464" lon="0.2613">
        <ele>1761.332087948</ele>
        <time>2014-03-28T12:38:48Z</time>
      </trkpt>
      <trkpt lat="42.91455" lon="0.26132">
        <ele>1758.2449691027</ele>
        <time>2014-03-28T12:38:53Z</time>
      </trkpt>
      <trkpt lat="42.91445" lon="0.26135">
        <ele>1755.4874839873</ele>
        <time>2014-03-28T12:38:58Z</time>
      </trkpt>
      <trkpt lat="42.91435" lon="0.26141">
        <ele>1752.978399403</ele>
        <time>2014-03-28T12:39:04Z</time>
      </trkpt>
      <trkpt lat="42.91432" lon="0.26144">
        <ele>1752.978399403</ele>
        <time>2014-03-28T12:39:07Z</time>
      </trkpt>
      <trkpt lat="42.91429" lon="0.26146">
        <ele>1752.978399403</ele>
        <time>2014-03-28T12:39:12Z</time>
      </trkpt>
      <trkpt lat="42.91422" lon="0.26153">
        <ele>1750.2667266552</ele>
        <time>2014-03-28T12:39:18Z</time>
      </trkpt>
      <trkpt lat="42.91412" lon="0.26159">
        <ele>1747.813941355</ele>
        <time>2014-03-28T12:39:23Z</time>
      </trkpt>
      <trkpt lat="42.91398" lon="0.26168">
        <ele>1745.4989847925</ele>
        <time>2014-03-28T12:39:29Z</time>
      </trkpt>
      <trkpt lat="42.91386" lon="0.26173">
        <ele>1743.266688367</ele>
        <time>2014-03-28T12:39:32Z</time>
      </trkpt>
      <trkpt lat="42.91377" lon="0.26176">
        <ele>1743.266688367</ele>
        <time>2014-03-28T12:39:38Z</time>
      </trkpt>
      <trkpt lat="42.91362" lon="0.26182">
        <ele>1740.5178450974</ele>
        <time>2014-03-28T12:39:43Z</time>
      </trkpt>
      <trkpt lat="42.91353" lon="0.26186">
        <ele>1737.6352229881</ele>
        <time>2014-03-28T12:39:48Z</time>
      </trkpt>
      <trkpt lat="42.91352" lon="0.26186">
        <ele>1737.6352229881</ele>
        <time>2014-03-28T12:39:53Z</time>
      </trkpt>
      <trkpt lat="42.91343" lon="0.26192">
        <ele>1734.6566093205</ele>
        <time>2014-03-28T12:40:08Z</time>
      </trkpt>
      <trkpt lat="42.91334" lon="0.26196">
        <ele>1731.9629768116</ele>
        <time>2014-03-28T12:40:13Z</time>
      </trkpt>
      <trkpt lat="42.91325" lon="0.26199">
        <ele>1731.9629768116</ele>
        <time>2014-03-28T12:40:18Z</time>
      </trkpt>
      <trkpt lat="42.91312" lon="0.26203">
        <ele>1729.3010880654</ele>
        <time>2014-03-28T12:40:23Z</time>
      </trkpt>
      <trkpt lat="42.91298" lon="0.26203">
        <ele>1726.7243005802</ele>
        <time>2014-03-28T12:40:28Z</time>
      </trkpt>
      <trkpt lat="42.91291" lon="0.26202">
        <ele>1726.7243005802</ele>
        <time>2014-03-28T12:40:33Z</time>
      </trkpt>
      <trkpt lat="42.91278" lon="0.26201">
        <ele>1723.7917103083</ele>
        <time>2014-03-28T12:40:38Z</time>
      </trkpt>
      <trkpt lat="42.91269" lon="0.26199">
        <ele>1720.8594789771</ele>
        <time>2014-03-28T12:40:43Z</time>
      </trkpt>
      <trkpt lat="42.91257" lon="0.26199">
        <ele>1718.012518753</ele>
        <time>2014-03-28T12:40:48Z</time>
      </trkpt>
      <trkpt lat="42.9124" lon="0.26193">
        <ele>1715.1130147136</ele>
        <time>2014-03-28T12:40:53Z</time>
      </trkpt>
      <trkpt lat="42.91234" lon="0.2619">
        <ele>1715.1130147136</ele>
        <time>2014-03-28T12:40:58Z</time>
      </trkpt>
      <trkpt lat="42.9122" lon="0.26185">
        <ele>1711.9036505435</ele>
        <time>2014-03-28T12:41:03Z</time>
      </trkpt>
      <trkpt lat="42.91216" lon="0.26183">
        <ele>1711.9036505435</ele>
        <time>2014-03-28T12:41:08Z</time>
      </trkpt>
      <trkpt lat="42.91212" lon="0.26178">
        <ele>1708.3629851212</ele>
        <time>2014-03-28T12:41:13Z</time>
      </trkpt>
      <trkpt lat="42.91204" lon="0.26177">
        <ele>1708.3629851212</ele>
        <time>2014-03-28T12:41:18Z</time>
      </trkpt>
      <trkpt lat="42.91196" lon="0.26176">
        <ele>1705.0772938439</ele>
        <time>2014-03-28T12:41:23Z</time>
      </trkpt>
      <trkpt lat="42.91186" lon="0.26179">
        <ele>1702.1422773349</ele>
        <time>2014-03-28T12:41:28Z</time>
      </trkpt>
      <trkpt lat="42.91174" lon="0.26189">
        <ele>1699.4438265931</ele>
        <time>2014-03-28T12:41:33Z</time>
      </trkpt>
      <trkpt lat="42.91165" lon="0.26201">
        <ele>1696.8611082741</ele>
        <time>2014-03-28T12:41:38Z</time>
      </trkpt>
      <trkpt lat="42.91157" lon="0.26212">
        <ele>1694.310640361</ele>
        <time>2014-03-28T12:41:43Z</time>
      </trkpt>
      <trkpt lat="42.91149" lon="0.26223">
        <ele>1691.8158481927</ele>
        <time>2014-03-28T12:41:48Z</time>
      </trkpt>
      <trkpt lat="42.91139" lon="0.26227">
        <ele>1689.5135668738</ele>
        <time>2014-03-28T12:41:53Z</time>
      </trkpt>
      <trkpt lat="42.91122" lon="0.2623">
        <ele>1687.2274142113</ele>
        <time>2014-03-28T12:41:58Z</time>
      </trkpt>
      <trkpt lat="42.91114" lon="0.26232">
        <ele>1687.2274142113</ele>
        <time>2014-03-28T12:42:03Z</time>
      </trkpt>
      <trkpt lat="42.91101" lon="0.26229">
        <ele>1684.7074705894</ele>
        <time>2014-03-28T12:42:08Z</time>
      </trkpt>
      <trkpt lat="42.91091" lon="0.26233">
        <ele>1682.4001805943</ele>
        <time>2014-03-28T12:42:13Z</time>
      </trkpt>
      <trkpt lat="42.91082" lon="0.26247">
        <ele>1680.0845431043</ele>
        <time>2014-03-28T12:42:18Z</time>
      </trkpt>
      <trkpt lat="42.91082" lon="0.26264">
        <ele>1677.9737811404</ele>
        <time>2014-03-28T12:42:23Z</time>
      </trkpt>
      <trkpt lat="42.91083" lon="0.26288">
        <ele>1676.0631759941</ele>
        <time>2014-03-28T12:42:28Z</time>
      </trkpt>
      <trkpt lat="42.91095" lon="0.26308">
        <ele>1674.2902100738</ele>
        <time>2014-03-28T12:42:33Z</time>
      </trkpt>
      <trkpt lat="42.91104" lon="0.26323">
        <ele>1672.7119306228</ele>
        <time>2014-03-28T12:42:38Z</time>
      </trkpt>
      <trkpt lat="42.91111" lon="0.26336">
        <ele>1671.2654382715</ele>
        <time>2014-03-28T12:42:43Z</time>
      </trkpt>
      <trkpt lat="42.91118" lon="0.26353">
        <ele>1669.9065846652</ele>
        <time>2014-03-28T12:42:48Z</time>
      </trkpt>
      <trkpt lat="42.91123" lon="0.2637">
        <ele>1668.6375511205</ele>
        <time>2014-03-28T12:42:53Z</time>
      </trkpt>
      <trkpt lat="42.91124" lon="0.26393">
        <ele>1667.2872820422</ele>
        <time>2014-03-28T12:42:58Z</time>
      </trkpt>
      <trkpt lat="42.91125" lon="0.26406">
        <ele>1666.0002666281</ele>
        <time>2014-03-28T12:43:03Z</time>
      </trkpt>
      <trkpt lat="42.91125" lon="0.26428">
        <ele>1664.6797507007</ele>
        <time>2014-03-28T12:43:08Z</time>
      </trkpt>
      <trkpt lat="42.91124" lon="0.26443">
        <ele>1663.423659479</ele>
        <time>2014-03-28T12:43:13Z</time>
      </trkpt>
      <trkpt lat="42.91124" lon="0.26455">
        <ele>1663.423659479</ele>
        <time>2014-03-28T12:43:17Z</time>
      </trkpt>
      <trkpt lat="42.91122" lon="0.26476">
        <ele>1662.0632834721</ele>
        <time>2014-03-28T12:43:23Z</time>
      </trkpt>
      <trkpt lat="42.91118" lon="0.26488">
        <ele>1660.8318444287</ele>
        <time>2014-03-28T12:43:28Z</time>
      </trkpt>
      <trkpt lat="42.91113" lon="0.26508">
        <ele>1659.6714089713</ele>
        <time>2014-03-28T12:43:33Z</time>
      </trkpt>
      <trkpt lat="42.91108" lon="0.26525">
        <ele>1658.5570770337</ele>
        <time>2014-03-28T12:43:38Z</time>
      </trkpt>
      <trkpt lat="42.91103" lon="0.26538">
        <ele>1657.4802179577</ele>
        <time>2014-03-28T12:43:43Z</time>
      </trkpt>
      <trkpt lat="42.91095" lon="0.26554">
        <ele>1656.4040698633</ele>
        <time>2014-03-28T12:43:48Z</time>
      </trkpt>
      <trkpt lat="42.91088" lon="0.26565">
        <ele>1655.1938566112</ele>
        <time>2014-03-28T12:43:53Z</time>
      </trkpt>
      <trkpt lat="42.91083" lon="0.26571">
        <ele>1655.1938566112</ele>
        <time>2014-03-28T12:43:57Z</time>
      </trkpt>
      <trkpt lat="42.91076" lon="0.26583">
        <ele>1653.768478903</ele>
        <time>2014-03-28T12:44:03Z</time>
      </trkpt>
      <trkpt lat="42.91074" lon="0.26583">
        <ele>1653.768478903</ele>
        <time>2014-03-28T12:44:08Z</time>
      </trkpt>
      <trkpt lat="42.9107" lon="0.26584">
        <ele>1653.768478903</ele>
        <time>2014-03-28T12:44:13Z</time>
      </trkpt>
      <trkpt lat="42.91062" lon="0.26589">
        <ele>1651.9670986411</ele>
        <time>2014-03-28T12:44:18Z</time>
      </trkpt>
      <trkpt lat="42.91054" lon="0.266">
        <ele>1650.218357405</ele>
        <time>2014-03-28T12:44:23Z</time>
      </trkpt>
      <trkpt lat="42.91048" lon="0.26607">
        <ele>1650.218357405</ele>
        <time>2014-03-28T12:44:28Z</time>
      </trkpt>
      <trkpt lat="42.9104" lon="0.26615">
        <ele>1648.3862116865</ele>
        <time>2014-03-28T12:44:33Z</time>
      </trkpt>
      <trkpt lat="42.91034" lon="0.26619">
        <ele>1648.3862116865</ele>
        <time>2014-03-28T12:44:38Z</time>
      </trkpt>
      <trkpt lat="42.91033" lon="0.26619">
        <ele>1648.3862116865</ele>
        <time>2014-03-28T12:44:44Z</time>
      </trkpt>
      <trkpt lat="42.91033" lon="0.26627">
        <ele>1647.0367369667</ele>
        <time>2014-03-28T12:45:40Z</time>
      </trkpt>
      <trkpt lat="42.91032" lon="0.2663">
        <ele>1647.0367369667</ele>
        <time>2014-03-28T12:45:43Z</time>
      </trkpt>
      <trkpt lat="42.9103" lon="0.26636">
        <ele>1647.0367369667</ele>
        <time>2014-03-28T12:45:48Z</time>
      </trkpt>
      <trkpt lat="42.91028" lon="0.26638">
        <ele>1645.972669499</ele>
        <time>2014-03-28T12:45:53Z</time>
      </trkpt>
      <trkpt lat="42.91027" lon="0.26638">
        <ele>1645.972669499</ele>
        <time>2014-03-28T12:45:58Z</time>
      </trkpt>
      <trkpt lat="42.91026" lon="0.26639">
        <ele>1645.972669499</ele>
        <time>2014-03-28T12:46:03Z</time>
      </trkpt>
      <trkpt lat="42.91025" lon="0.26641">
        <ele>1645.972669499</ele>
        <time>2014-03-28T12:46:08Z</time>
      </trkpt>
      <trkpt lat="42.91022" lon="0.26643">
        <ele>1645.972669499</ele>
        <time>2014-03-28T12:46:13Z</time>
      </trkpt>
      <trkpt lat="42.91011" lon="0.26645">
        <ele>1644.8520651502</ele>
        <time>2014-03-28T12:46:18Z</time>
      </trkpt>
      <trkpt lat="42.91003" lon="0.26654">
        <ele>1643.8772080789</ele>
        <time>2014-03-28T12:46:23Z</time>
      </trkpt>
      <trkpt lat="42.90997" lon="0.26659">
        <ele>1643.8772080789</ele>
        <time>2014-03-28T12:46:28Z</time>
      </trkpt>
      <trkpt lat="42.90995" lon="0.26654">
        <ele>1642.9326307276</ele>
        <time>2014-03-28T12:46:33Z</time>
      </trkpt>
      <trkpt lat="42.90988" lon="0.2665">
        <ele>1642.9326307276</ele>
        <time>2014-03-28T12:46:38Z</time>
      </trkpt>
      <trkpt lat="42.90977" lon="0.26649">
        <ele>1642.0699354462</ele>
        <time>2014-03-28T12:46:43Z</time>
      </trkpt>
      <trkpt lat="42.90969" lon="0.26652">
        <ele>1642.0699354462</ele>
        <time>2014-03-28T12:46:48Z</time>
      </trkpt>
      <trkpt lat="42.90957" lon="0.26656">
        <ele>1641.351265998</ele>
        <time>2014-03-28T12:46:53Z</time>
      </trkpt>
      <trkpt lat="42.90954" lon="0.26654">
        <ele>1641.351265998</ele>
        <time>2014-03-28T12:46:58Z</time>
      </trkpt>
      <trkpt lat="42.90957" lon="0.26653">
        <ele>1641.351265998</ele>
        <time>2014-03-28T12:47:03Z</time>
      </trkpt>
      <trkpt lat="42.90953" lon="0.26653">
        <ele>1641.351265998</ele>
        <time>2014-03-28T12:47:08Z</time>
      </trkpt>
      <trkpt lat="42.90946" lon="0.26652">
        <ele>1640.3872031327</ele>
        <time>2014-03-28T12:47:13Z</time>
      </trkpt>
      <trkpt lat="42.90939" lon="0.26653">
        <ele>1640.3872031327</ele>
        <time>2014-03-28T12:47:18Z</time>
      </trkpt>
      <trkpt lat="42.90936" lon="0.26654">
        <ele>1639.610384653</ele>
        <time>2014-03-28T12:47:23Z</time>
      </trkpt>
      <trkpt lat="42.90933" lon="0.26657">
        <ele>1639.610384653</ele>
        <time>2014-03-28T12:47:27Z</time>
      </trkpt>
      <trkpt lat="42.90927" lon="0.26667">
        <ele>1638.9024921446</ele>
        <time>2014-03-28T12:47:33Z</time>
      </trkpt>
      <trkpt lat="42.90925" lon="0.26672">
        <ele>1638.9024921446</ele>
        <time>2014-03-28T12:47:38Z</time>
      </trkpt>
      <trkpt lat="42.90924" lon="0.26678">
        <ele>1638.9024921446</ele>
        <time>2014-03-28T12:47:43Z</time>
      </trkpt>
      <trkpt lat="42.90923" lon="0.26681">
        <ele>1638.0241552567</ele>
        <time>2014-03-28T12:47:48Z</time>
      </trkpt>
      <trkpt lat="42.90921" lon="0.26684">
        <ele>1638.0241552567</ele>
        <time>2014-03-28T12:47:53Z</time>
      </trkpt>
      <trkpt lat="42.90916" lon="0.26687">
        <ele>1638.0241552567</ele>
        <time>2014-03-28T12:47:58Z</time>
      </trkpt>
      <trkpt lat="42.90913" lon="0.26692">
        <ele>1637.3018372116</ele>
        <time>2014-03-28T12:48:03Z</time>
      </trkpt>
      <trkpt lat="42.90912" lon="0.26694">
        <ele>1637.3018372116</ele>
        <time>2014-03-28T12:48:07Z</time>
      </trkpt>
      <trkpt lat="42.90905" lon="0.26705">
        <ele>1636.7062742667</ele>
        <time>2014-03-28T12:48:13Z</time>
      </trkpt>
      <trkpt lat="42.90895" lon="0.2672">
        <ele>1636.1524996528</ele>
        <time>2014-03-28T12:48:18Z</time>
      </trkpt>
      <trkpt lat="42.90893" lon="0.26727">
        <ele>1636.1524996528</ele>
        <time>2014-03-28T12:48:23Z</time>
      </trkpt>
      <trkpt lat="42.90893" lon="0.26729">
        <ele>1636.1524996528</ele>
        <time>2014-03-28T12:48:28Z</time>
      </trkpt>
      <trkpt lat="42.90893" lon="0.26742">
        <ele>1635.5906396803</ele>
        <time>2014-03-28T12:48:53Z</time>
      </trkpt>
      <trkpt lat="42.90893" lon="0.26744">
        <ele>1635.5906396803</ele>
        <time>2014-03-28T12:48:58Z</time>
      </trkpt>
      <trkpt lat="42.90887" lon="0.26754">
        <ele>1634.9602415625</ele>
        <time>2014-03-28T12:49:08Z</time>
      </trkpt>
      <trkpt lat="42.90882" lon="0.26774">
        <ele>1634.0326962871</ele>
        <time>2014-03-28T12:49:13Z</time>
      </trkpt>
      <trkpt lat="42.90884" lon="0.26784">
        <ele>1634.0326962871</ele>
        <time>2014-03-28T12:49:18Z</time>
      </trkpt>
      <trkpt lat="42.90886" lon="0.2679">
        <ele>1633.0006746911</ele>
        <time>2014-03-28T12:49:23Z</time>
      </trkpt>
      <trkpt lat="42.90883" lon="0.26811">
        <ele>1631.9278360247</ele>
        <time>2014-03-28T12:49:28Z</time>
      </trkpt>
      <trkpt lat="42.90884" lon="0.26834">
        <ele>1630.7725326055</ele>
        <time>2014-03-28T12:49:33Z</time>
      </trkpt>
      <trkpt lat="42.90883" lon="0.2685">
        <ele>1629.5253565044</ele>
        <time>2014-03-28T12:49:38Z</time>
      </trkpt>
      <trkpt lat="42.90882" lon="0.26857">
        <ele>1629.5253565044</ele>
        <time>2014-03-28T12:49:43Z</time>
      </trkpt>
      <trkpt lat="42.90882" lon="0.26866">
        <ele>1628.0194462324</ele>
        <time>2014-03-28T12:49:48Z</time>
      </trkpt>
      <trkpt lat="42.9088" lon="0.26877">
        <ele>1628.0194462324</ele>
        <time>2014-03-28T12:49:53Z</time>
      </trkpt>
      <trkpt lat="42.90879" lon="0.26887">
        <ele>1626.3748470698</ele>
        <time>2014-03-28T12:49:59Z</time>
      </trkpt>
      <trkpt lat="42.9088" lon="0.26896">
        <ele>1626.3748470698</ele>
        <time>2014-03-28T12:50:03Z</time>
      </trkpt>
      <trkpt lat="42.9088" lon="0.26909">
        <ele>1624.7032785615</ele>
        <time>2014-03-28T12:50:08Z</time>
      </trkpt>
      <trkpt lat="42.90879" lon="0.26918">
        <ele>1624.7032785615</ele>
        <time>2014-03-28T12:50:13Z</time>
      </trkpt>
      <trkpt lat="42.90876" lon="0.2693">
        <ele>1622.877845431</ele>
        <time>2014-03-28T12:50:18Z</time>
      </trkpt>
      <trkpt lat="42.9087" lon="0.26941">
        <ele>1621.0697124193</ele>
        <time>2014-03-28T12:50:23Z</time>
      </trkpt>
      <trkpt lat="42.90864" lon="0.26949">
        <ele>1621.0697124193</ele>
        <time>2014-03-28T12:50:28Z</time>
      </trkpt>
      <trkpt lat="42.90859" lon="0.26949">
        <ele>1619.1348629171</ele>
        <time>2014-03-28T12:50:33Z</time>
      </trkpt>
      <trkpt lat="42.90845" lon="0.26956">
        <ele>1617.1708572389</ele>
        <time>2014-03-28T12:50:38Z</time>
      </trkpt>
      <trkpt lat="42.90842" lon="0.26962">
        <ele>1617.1708572389</ele>
        <time>2014-03-28T12:50:43Z</time>
      </trkpt>
      <trkpt lat="42.90839" lon="0.26972">
        <ele>1614.8503019839</ele>
        <time>2014-03-28T12:50:48Z</time>
      </trkpt>
      <trkpt lat="42.90837" lon="0.26977">
        <ele>1614.8503019839</ele>
        <time>2014-03-28T12:50:53Z</time>
      </trkpt>
      <trkpt lat="42.90832" lon="0.26984">
        <ele>1612.2744077982</ele>
        <time>2014-03-28T12:50:58Z</time>
      </trkpt>
      <trkpt lat="42.90829" lon="0.2699">
        <ele>1612.2744077982</ele>
        <time>2014-03-28T12:51:03Z</time>
      </trkpt>
      <trkpt lat="42.90829" lon="0.26998">
        <ele>1609.5376971483</ele>
        <time>2014-03-28T12:51:08Z</time>
      </trkpt>
      <trkpt lat="42.90829" lon="0.26999">
        <ele>1609.5376971483</ele>
        <time>2014-03-28T12:51:14Z</time>
      </trkpt>
      <trkpt lat="42.90825" lon="0.27006">
        <ele>1609.5376971483</ele>
        <time>2014-03-28T12:51:18Z</time>
      </trkpt>
      <trkpt lat="42.90822" lon="0.27019">
        <ele>1605.8491379973</ele>
        <time>2014-03-28T12:51:23Z</time>
      </trkpt>
      <trkpt lat="42.90816" lon="0.27031">
        <ele>1602.3519228995</ele>
        <time>2014-03-28T12:51:28Z</time>
      </trkpt>
      <trkpt lat="42.90811" lon="0.2705">
        <ele>1599.0527019117</ele>
        <time>2014-03-28T12:51:33Z</time>
      </trkpt>
      <trkpt lat="42.90814" lon="0.27067">
        <ele>1595.9282266955</ele>
        <time>2014-03-28T12:51:38Z</time>
      </trkpt>
      <trkpt lat="42.90814" lon="0.27073">
        <ele>1595.9282266955</ele>
        <time>2014-03-28T12:51:43Z</time>
      </trkpt>
      <trkpt lat="42.90815" lon="0.2708">
        <ele>1592.7978967946</ele>
        <time>2014-03-28T12:51:48Z</time>
      </trkpt>
      <trkpt lat="42.90814" lon="0.27086">
        <ele>1592.7978967946</ele>
        <time>2014-03-28T12:51:53Z</time>
      </trkpt>
      <trkpt lat="42.90811" lon="0.27092">
        <ele>1589.4655120651</ele>
        <time>2014-03-28T12:51:58Z</time>
      </trkpt>
      <trkpt lat="42.90815" lon="0.27106">
        <ele>1586.2974022463</ele>
        <time>2014-03-28T12:52:03Z</time>
      </trkpt>
      <trkpt lat="42.90818" lon="0.27124">
        <ele>1583.3153991915</ele>
        <time>2014-03-28T12:52:08Z</time>
      </trkpt>
      <trkpt lat="42.90819" lon="0.27148">
        <ele>1580.5679406363</ele>
        <time>2014-03-28T12:52:13Z</time>
      </trkpt>
      <trkpt lat="42.90823" lon="0.27164">
        <ele>1577.9118065404</ele>
        <time>2014-03-28T12:52:18Z</time>
      </trkpt>
      <trkpt lat="42.90822" lon="0.27165">
        <ele>1577.9118065404</ele>
        <time>2014-03-28T12:52:23Z</time>
      </trkpt>
      <trkpt lat="42.90826" lon="0.27175">
        <ele>1575.2427620763</ele>
        <time>2014-03-28T12:52:28Z</time>
      </trkpt>
      <trkpt lat="42.90835" lon="0.27198">
        <ele>1572.7956169907</ele>
        <time>2014-03-28T12:52:33Z</time>
      </trkpt>
      <trkpt lat="42.9084" lon="0.2721">
        <ele>1570.5422151729</ele>
        <time>2014-03-28T12:52:38Z</time>
      </trkpt>
      <trkpt lat="42.90848" lon="0.27223">
        <ele>1568.4269981227</ele>
        <time>2014-03-28T12:52:43Z</time>
      </trkpt>
      <trkpt lat="42.90857" lon="0.2724">
        <ele>1566.3979978628</ele>
        <time>2014-03-28T12:52:48Z</time>
      </trkpt>
      <trkpt lat="42.90861" lon="0.27248">
        <ele>1566.3979978628</ele>
        <time>2014-03-28T12:52:53Z</time>
      </trkpt>
      <trkpt lat="42.90867" lon="0.27258">
        <ele>1564.334666441</ele>
        <time>2014-03-28T12:52:58Z</time>
      </trkpt>
      <trkpt lat="42.90871" lon="0.27264">
        <ele>1564.334666441</ele>
        <time>2014-03-28T12:53:03Z</time>
      </trkpt>
      <trkpt lat="42.90873" lon="0.27275">
        <ele>1562.3558893403</ele>
        <time>2014-03-28T12:53:08Z</time>
      </trkpt>
      <trkpt lat="42.90876" lon="0.27281">
        <ele>1562.3558893403</ele>
        <time>2014-03-28T12:53:13Z</time>
      </trkpt>
      <trkpt lat="42.90883" lon="0.27296">
        <ele>1560.5138455715</ele>
        <time>2014-03-28T12:53:18Z</time>
      </trkpt>
      <trkpt lat="42.90887" lon="0.27307">
        <ele>1558.8852334931</ele>
        <time>2014-03-28T12:53:23Z</time>
      </trkpt>
      <trkpt lat="42.90891" lon="0.2732">
        <ele>1557.4539717103</ele>
        <time>2014-03-28T12:53:28Z</time>
      </trkpt>
      <trkpt lat="42.90895" lon="0.27336">
        <ele>1556.1901226418</ele>
        <time>2014-03-28T12:53:33Z</time>
      </trkpt>
      <trkpt lat="42.90896" lon="0.27343">
        <ele>1556.1901226418</ele>
        <time>2014-03-28T12:53:38Z</time>
      </trkpt>
      <trkpt lat="42.90899" lon="0.27354">
        <ele>1555.0365916746</ele>
        <time>2014-03-28T12:53:43Z</time>
      </trkpt>
      <trkpt lat="42.90906" lon="0.27373">
        <ele>1554.0121694602</ele>
        <time>2014-03-28T12:53:48Z</time>
      </trkpt>
      <trkpt lat="42.90911" lon="0.27388">
        <ele>1553.0906257861</ele>
        <time>2014-03-28T12:53:53Z</time>
      </trkpt>
      <trkpt lat="42.90919" lon="0.27405">
        <ele>1552.2185117982</ele>
        <time>2014-03-28T12:53:58Z</time>
      </trkpt>
      <trkpt lat="42.90922" lon="0.27413">
        <ele>1552.2185117982</ele>
        <time>2014-03-28T12:54:03Z</time>
      </trkpt>
      <trkpt lat="42.90924" lon="0.27414">
        <ele>1552.2185117982</ele>
        <time>2014-03-28T12:54:08Z</time>
      </trkpt>
      <trkpt lat="42.90929" lon="0.27416">
        <ele>1549.8041497946</ele>
        <time>2014-03-28T12:56:58Z</time>
      </trkpt>
      <trkpt lat="42.90926" lon="0.27421">
        <ele>1549.8041497946</ele>
        <time>2014-03-28T12:57:03Z</time>
      </trkpt>
      <trkpt lat="42.90922" lon="0.27423">
        <ele>1547.7060592663</ele>
        <time>2014-03-28T12:57:08Z</time>
      </trkpt>
      <trkpt lat="42.90915" lon="0.27431">
        <ele>1545.9015843805</ele>
        <time>2014-03-28T12:57:13Z</time>
      </trkpt>
      <trkpt lat="42.909" lon="0.27434">
        <ele>1544.3688946646</ele>
        <time>2014-03-28T12:57:18Z</time>
      </trkpt>
      <trkpt lat="42.90886" lon="0.27434">
        <ele>1543.0725762874</ele>
        <time>2014-03-28T12:57:23Z</time>
      </trkpt>
      <trkpt lat="42.9087" lon="0.2744">
        <ele>1542.0079665692</ele>
        <time>2014-03-28T12:57:28Z</time>
      </trkpt>
      <trkpt lat="42.90852" lon="0.27439">
        <ele>1541.1556805682</ele>
        <time>2014-03-28T12:57:33Z</time>
      </trkpt>
      <trkpt lat="42.90841" lon="0.27436">
        <ele>1540.4971653917</ele>
        <time>2014-03-28T12:57:38Z</time>
      </trkpt>
      <trkpt lat="42.90838" lon="0.27446">
        <ele>1540.4971653917</ele>
        <time>2014-03-28T12:57:43Z</time>
      </trkpt>
      <trkpt lat="42.90846" lon="0.27461">
        <ele>1539.9282328114</ele>
        <time>2014-03-28T12:57:48Z</time>
      </trkpt>
      <trkpt lat="42.90845" lon="0.27471">
        <ele>1539.9282328114</ele>
        <time>2014-03-28T12:57:52Z</time>
      </trkpt>
      <trkpt lat="42.90835" lon="0.27469">
        <ele>1539.4529959136</ele>
        <time>2014-03-28T12:57:58Z</time>
      </trkpt>
      <trkpt lat="42.90824" lon="0.27469">
        <ele>1539.1038558044</ele>
        <time>2014-03-28T12:58:03Z</time>
      </trkpt>
      <trkpt lat="42.90807" lon="0.2747">
        <ele>1538.852875722</ele>
        <time>2014-03-28T12:58:08Z</time>
      </trkpt>
      <trkpt lat="42.90791" lon="0.27469">
        <ele>1538.6883570888</ele>
        <time>2014-03-28T12:58:12Z</time>
      </trkpt>
      <trkpt lat="42.90789" lon="0.27486">
        <ele>1538.5128111639</ele>
        <time>2014-03-28T12:58:18Z</time>
      </trkpt>
      <trkpt lat="42.90801" lon="0.27496">
        <ele>1538.336888262</ele>
        <time>2014-03-28T12:58:23Z</time>
      </trkpt>
      <trkpt lat="42.90803" lon="0.27511">
        <ele>1538.1849458881</ele>
        <time>2014-03-28T12:58:28Z</time>
      </trkpt>
      <trkpt lat="42.90792" lon="0.27516">
        <ele>1538.1228036589</ele>
        <time>2014-03-28T12:58:33Z</time>
      </trkpt>
      <trkpt lat="42.90782" lon="0.27524">
        <ele>1538.1248201699</ele>
        <time>2014-03-28T12:58:38Z</time>
      </trkpt>
      <trkpt lat="42.90768" lon="0.27529">
        <ele>1538.1959794731</ele>
        <time>2014-03-28T12:58:43Z</time>
      </trkpt>
      <trkpt lat="42.90753" lon="0.27523">
        <ele>1538.2975783838</ele>
        <time>2014-03-28T12:58:48Z</time>
      </trkpt>
      <trkpt lat="42.90745" lon="0.27529">
        <ele>1538.451428407</ele>
        <time>2014-03-28T12:58:53Z</time>
      </trkpt>
      <trkpt lat="42.90749" lon="0.27543">
        <ele>1538.5047769712</ele>
        <time>2014-03-28T12:58:59Z</time>
      </trkpt>
      <trkpt lat="42.90763" lon="0.27556">
        <ele>1538.2588527297</ele>
        <time>2014-03-28T12:59:03Z</time>
      </trkpt>
      <trkpt lat="42.90777" lon="0.27571">
        <ele>1537.7610288831</ele>
        <time>2014-03-28T12:59:08Z</time>
      </trkpt>
      <trkpt lat="42.90777" lon="0.27588">
        <ele>1537.2721987324</ele>
        <time>2014-03-28T12:59:13Z</time>
      </trkpt>
      <trkpt lat="42.90767" lon="0.27608">
        <ele>1536.6450910806</ele>
        <time>2014-03-28T12:59:18Z</time>
      </trkpt>
      <trkpt lat="42.90778" lon="0.27622">
        <ele>1535.8158201224</ele>
        <time>2014-03-28T12:59:23Z</time>
      </trkpt>
      <trkpt lat="42.90789" lon="0.27635">
        <ele>1534.7691130416</ele>
        <time>2014-03-28T12:59:28Z</time>
      </trkpt>
      <trkpt lat="42.90787" lon="0.27648">
        <ele>1533.6356544615</ele>
        <time>2014-03-28T12:59:33Z</time>
      </trkpt>
      <trkpt lat="42.90769" lon="0.27641">
        <ele>1532.6954031022</ele>
        <time>2014-03-28T12:59:38Z</time>
      </trkpt>
      <trkpt lat="42.90757" lon="0.27642">
        <ele>1531.9335012289</ele>
        <time>2014-03-28T12:59:43Z</time>
      </trkpt>
      <trkpt lat="42.9076" lon="0.2766">
        <ele>1530.903444852</ele>
        <time>2014-03-28T12:59:48Z</time>
      </trkpt>
      <trkpt lat="42.90773" lon="0.27675">
        <ele>1529.5238275762</ele>
        <time>2014-03-28T12:59:53Z</time>
      </trkpt>
      <trkpt lat="42.90785" lon="0.27689">
        <ele>1527.8788086773</ele>
        <time>2014-03-28T12:59:58Z</time>
      </trkpt>
      <trkpt lat="42.90794" lon="0.27704">
        <ele>1526.0760062114</ele>
        <time>2014-03-28T13:00:03Z</time>
      </trkpt>
      <trkpt lat="42.90791" lon="0.2771">
        <ele>1526.0760062114</ele>
        <time>2014-03-28T13:00:08Z</time>
      </trkpt>
      <trkpt lat="42.90783" lon="0.27704">
        <ele>1524.1291728659</ele>
        <time>2014-03-28T13:00:13Z</time>
      </trkpt>
      <trkpt lat="42.90774" lon="0.277">
        <ele>1524.1291728659</ele>
        <time>2014-03-28T13:00:18Z</time>
      </trkpt>
      <trkpt lat="42.90776" lon="0.27716">
        <ele>1521.7921075986</ele>
        <time>2014-03-28T13:00:23Z</time>
      </trkpt>
      <trkpt lat="42.90775" lon="0.27723">
        <ele>1521.7921075986</ele>
        <time>2014-03-28T13:00:28Z</time>
      </trkpt>
      <trkpt lat="42.90774" lon="0.27729">
        <ele>1518.7369509479</ele>
        <time>2014-03-28T13:00:33Z</time>
      </trkpt>
      <trkpt lat="42.90757" lon="0.27732">
        <ele>1515.7572111384</ele>
        <time>2014-03-28T13:00:38Z</time>
      </trkpt>
      <trkpt lat="42.9075" lon="0.27749">
        <ele>1512.8529351774</ele>
        <time>2014-03-28T13:00:43Z</time>
      </trkpt>
      <trkpt lat="42.90754" lon="0.27762">
        <ele>1510.0527687228</ele>
        <time>2014-03-28T13:00:48Z</time>
      </trkpt>
      <trkpt lat="42.90755" lon="0.27771">
        <ele>1510.0527687228</ele>
        <time>2014-03-28T13:00:53Z</time>
      </trkpt>
      <trkpt lat="42.90756" lon="0.27781">
        <ele>1505.1059768537</ele>
        <time>2014-03-28T13:01:12Z</time>
      </trkpt>
      <trkpt lat="42.90757" lon="0.27781">
        <ele>1505.1059768537</ele>
        <time>2014-03-28T13:01:18Z</time>
      </trkpt>
      <trkpt lat="42.90752" lon="0.27786">
        <ele>1505.1059768537</ele>
        <time>2014-03-28T13:01:35Z</time>
      </trkpt>
      <trkpt lat="42.90751" lon="0.27792">
        <ele>1499.9682485471</ele>
        <time>2014-03-28T13:01:37Z</time>
      </trkpt>
      <trkpt lat="42.90748" lon="0.27797">
        <ele>1499.9682485471</ele>
        <time>2014-03-28T13:01:43Z</time>
      </trkpt>
      <trkpt lat="42.90747" lon="0.27802">
        <ele>1499.9682485471</ele>
        <time>2014-03-28T13:01:48Z</time>
      </trkpt>
      <trkpt lat="42.90752" lon="0.27818">
        <ele>1494.7947946283</ele>
        <time>2014-03-28T13:01:53Z</time>
      </trkpt>
      <trkpt lat="42.90761" lon="0.27837">
        <ele>1489.9455943056</ele>
        <time>2014-03-28T13:01:58Z</time>
      </trkpt>
      <trkpt lat="42.90772" lon="0.27862">
        <ele>1485.4216952916</ele>
        <time>2014-03-28T13:02:03Z</time>
      </trkpt>
      <trkpt lat="42.90782" lon="0.27891">
        <ele>1481.1653670913</ele>
        <time>2014-03-28T13:02:08Z</time>
      </trkpt>
      <trkpt lat="42.90791" lon="0.27916">
        <ele>1477.1942631581</ele>
        <time>2014-03-28T13:02:13Z</time>
      </trkpt>
      <trkpt lat="42.908" lon="0.27936">
        <ele>1473.5093537074</ele>
        <time>2014-03-28T13:02:18Z</time>
      </trkpt>
      <trkpt lat="42.90809" lon="0.27956">
        <ele>1470.0384946303</ele>
        <time>2014-03-28T13:02:23Z</time>
      </trkpt>
      <trkpt lat="42.90816" lon="0.27972">
        <ele>1466.7716948652</ele>
        <time>2014-03-28T13:02:28Z</time>
      </trkpt>
      <trkpt lat="42.90824" lon="0.27987">
        <ele>1463.7709869872</ele>
        <time>2014-03-28T13:02:33Z</time>
      </trkpt>
      <trkpt lat="42.90831" lon="0.28006">
        <ele>1461.0352623488</ele>
        <time>2014-03-28T13:02:38Z</time>
      </trkpt>
      <trkpt lat="42.90836" lon="0.28028">
        <ele>1458.519326215</ele>
        <time>2014-03-28T13:02:43Z</time>
      </trkpt>
      <trkpt lat="42.90839" lon="0.28051">
        <ele>1456.1949125032</ele>
        <time>2014-03-28T13:02:48Z</time>
      </trkpt>
      <trkpt lat="42.9084" lon="0.28072">
        <ele>1453.9054151386</ele>
        <time>2014-03-28T13:02:53Z</time>
      </trkpt>
      <trkpt lat="42.90842" lon="0.28096">
        <ele>1451.707219061</ele>
        <time>2014-03-28T13:02:58Z</time>
      </trkpt>
      <trkpt lat="42.90844" lon="0.28116">
        <ele>1449.5945048844</ele>
        <time>2014-03-28T13:03:03Z</time>
      </trkpt>
      <trkpt lat="42.90847" lon="0.28132">
        <ele>1447.5614888769</ele>
        <time>2014-03-28T13:03:08Z</time>
      </trkpt>
      <trkpt lat="42.90852" lon="0.28145">
        <ele>1445.6456800486</ele>
        <time>2014-03-28T13:03:13Z</time>
      </trkpt>
      <trkpt lat="42.90861" lon="0.28158">
        <ele>1443.8525497019</ele>
        <time>2014-03-28T13:03:18Z</time>
      </trkpt>
      <trkpt lat="42.90873" lon="0.28169">
        <ele>1442.1722917534</ele>
        <time>2014-03-28T13:03:23Z</time>
      </trkpt>
      <trkpt lat="42.90888" lon="0.28184">
        <ele>1440.5233394444</ele>
        <time>2014-03-28T13:03:28Z</time>
      </trkpt>
      <trkpt lat="42.90901" lon="0.282">
        <ele>1438.8731661269</ele>
        <time>2014-03-28T13:03:33Z</time>
      </trkpt>
      <trkpt lat="42.90917" lon="0.28216">
        <ele>1437.2059631953</ele>
        <time>2014-03-28T13:03:38Z</time>
      </trkpt>
      <trkpt lat="42.90933" lon="0.28231">
        <ele>1435.3773558486</ele>
        <time>2014-03-28T13:03:43Z</time>
      </trkpt>
      <trkpt lat="42.90949" lon="0.28247">
        <ele>1433.5565958944</ele>
        <time>2014-03-28T13:03:48Z</time>
      </trkpt>
      <trkpt lat="42.90969" lon="0.28268">
        <ele>1431.7274902376</ele>
        <time>2014-03-28T13:03:53Z</time>
      </trkpt>
      <trkpt lat="42.90984" lon="0.28283">
        <ele>1429.9902995849</ele>
        <time>2014-03-28T13:03:58Z</time>
      </trkpt>
      <trkpt lat="42.91" lon="0.283">
        <ele>1428.2358656498</ele>
        <time>2014-03-28T13:04:03Z</time>
      </trkpt>
      <trkpt lat="42.91013" lon="0.28313">
        <ele>1426.3774750961</ele>
        <time>2014-03-28T13:04:08Z</time>
      </trkpt>
      <trkpt lat="42.91026" lon="0.28323">
        <ele>1424.392693859</ele>
        <time>2014-03-28T13:04:13Z</time>
      </trkpt>
      <trkpt lat="42.91037" lon="0.28331">
        <ele>1422.3619472311</ele>
        <time>2014-03-28T13:04:18Z</time>
      </trkpt>
      <trkpt lat="42.91049" lon="0.2834">
        <ele>1420.1869315848</ele>
        <time>2014-03-28T13:04:23Z</time>
      </trkpt>
      <trkpt lat="42.91059" lon="0.28348">
        <ele>1417.8201894463</ele>
        <time>2014-03-28T13:04:30Z</time>
      </trkpt>
      <trkpt lat="42.91065" lon="0.28358">
        <ele>1415.3912096498</ele>
        <time>2014-03-28T13:04:33Z</time>
      </trkpt>
      <trkpt lat="42.91073" lon="0.28366">
        <ele>1412.9913112746</ele>
        <time>2014-03-28T13:04:38Z</time>
      </trkpt>
      <trkpt lat="42.91083" lon="0.28375">
        <ele>1410.5897251609</ele>
        <time>2014-03-28T13:04:43Z</time>
      </trkpt>
      <trkpt lat="42.91093" lon="0.28387">
        <ele>1408.215582336</ele>
        <time>2014-03-28T13:04:48Z</time>
      </trkpt>
      <trkpt lat="42.91102" lon="0.28397">
        <ele>1405.9246101726</ele>
        <time>2014-03-28T13:04:53Z</time>
      </trkpt>
      <trkpt lat="42.91113" lon="0.28404">
        <ele>1403.7537897136</ele>
        <time>2014-03-28T13:04:58Z</time>
      </trkpt>
      <trkpt lat="42.91125" lon="0.28408">
        <ele>1401.6361635271</ele>
        <time>2014-03-28T13:05:03Z</time>
      </trkpt>
      <trkpt lat="42.91138" lon="0.28414">
        <ele>1399.4807159731</ele>
        <time>2014-03-28T13:05:08Z</time>
      </trkpt>
      <trkpt lat="42.91149" lon="0.2842">
        <ele>1397.2896865963</ele>
        <time>2014-03-28T13:05:13Z</time>
      </trkpt>
      <trkpt lat="42.9116" lon="0.28426">
        <ele>1395.2093598798</ele>
        <time>2014-03-28T13:05:18Z</time>
      </trkpt>
      <trkpt lat="42.91169" lon="0.28438">
        <ele>1393.2596755062</ele>
        <time>2014-03-28T13:05:23Z</time>
      </trkpt>
      <trkpt lat="42.91184" lon="0.28448">
        <ele>1391.285811427</ele>
        <time>2014-03-28T13:05:28Z</time>
      </trkpt>
      <trkpt lat="42.91192" lon="0.28453">
        <ele>1391.285811427</ele>
        <time>2014-03-28T13:05:33Z</time>
      </trkpt>
      <trkpt lat="42.91203" lon="0.28456">
        <ele>1389.0867471061</ele>
        <time>2014-03-28T13:05:38Z</time>
      </trkpt>
      <trkpt lat="42.91214" lon="0.28462">
        <ele>1386.9380234207</ele>
        <time>2014-03-28T13:05:43Z</time>
      </trkpt>
      <trkpt lat="42.91224" lon="0.28468">
        <ele>1384.7921742099</ele>
        <time>2014-03-28T13:05:48Z</time>
      </trkpt>
      <trkpt lat="42.9123" lon="0.28475">
        <ele>1384.7921742099</ele>
        <time>2014-03-28T13:05:53Z</time>
      </trkpt>
      <trkpt lat="42.9124" lon="0.28484">
        <ele>1382.5475772501</ele>
        <time>2014-03-28T13:05:58Z</time>
      </trkpt>
      <trkpt lat="42.91252" lon="0.28491">
        <ele>1380.4274073546</ele>
        <time>2014-03-28T13:06:03Z</time>
      </trkpt>
      <trkpt lat="42.91267" lon="0.28498">
        <ele>1378.3642958852</ele>
        <time>2014-03-28T13:06:08Z</time>
      </trkpt>
      <trkpt lat="42.91279" lon="0.28503">
        <ele>1376.3389083363</ele>
        <time>2014-03-28T13:06:12Z</time>
      </trkpt>
      <trkpt lat="42.91294" lon="0.28511">
        <ele>1374.2755931892</ele>
        <time>2014-03-28T13:06:18Z</time>
      </trkpt>
      <trkpt lat="42.91307" lon="0.28515">
        <ele>1372.2773103164</ele>
        <time>2014-03-28T13:06:23Z</time>
      </trkpt>
      <trkpt lat="42.91315" lon="0.28519">
        <ele>1372.2773103164</ele>
        <time>2014-03-28T13:06:28Z</time>
      </trkpt>
      <trkpt lat="42.91321" lon="0.28521">
        <ele>1370.0934222569</ele>
        <time>2014-03-28T13:06:33Z</time>
      </trkpt>
      <trkpt lat="42.91327" lon="0.28525">
        <ele>1370.0934222569</ele>
        <time>2014-03-28T13:06:38Z</time>
      </trkpt>
      <trkpt lat="42.91333" lon="0.28532">
        <ele>1367.8669288732</ele>
        <time>2014-03-28T13:06:43Z</time>
      </trkpt>
      <trkpt lat="42.91343" lon="0.28538">
        <ele>1365.7448722931</ele>
        <time>2014-03-28T13:06:48Z</time>
      </trkpt>
      <trkpt lat="42.91351" lon="0.28545">
        <ele>1363.7767499964</ele>
        <time>2014-03-28T13:06:53Z</time>
      </trkpt>
      <trkpt lat="42.91361" lon="0.2855">
        <ele>1362.0080089287</ele>
        <time>2014-03-28T13:06:57Z</time>
      </trkpt>
      <trkpt lat="42.91372" lon="0.28558">
        <ele>1360.3505170276</ele>
        <time>2014-03-28T13:07:03Z</time>
      </trkpt>
      <trkpt lat="42.91387" lon="0.28568">
        <ele>1358.7079144079</ele>
        <time>2014-03-28T13:07:07Z</time>
      </trkpt>
      <trkpt lat="42.91401" lon="0.28582">
        <ele>1357.0197243504</ele>
        <time>2014-03-28T13:07:13Z</time>
      </trkpt>
      <trkpt lat="42.91418" lon="0.28601">
        <ele>1355.3309456603</ele>
        <time>2014-03-28T13:07:18Z</time>
      </trkpt>
      <trkpt lat="42.91438" lon="0.28613">
        <ele>1353.7409479291</ele>
        <time>2014-03-28T13:07:23Z</time>
      </trkpt>
      <trkpt lat="42.91456" lon="0.28624">
        <ele>1352.2983239237</ele>
        <time>2014-03-28T13:07:28Z</time>
      </trkpt>
      <trkpt lat="42.91472" lon="0.28631">
        <ele>1350.946842017</ele>
        <time>2014-03-28T13:07:33Z</time>
      </trkpt>
      <trkpt lat="42.91487" lon="0.28637">
        <ele>1349.648596745</ele>
        <time>2014-03-28T13:07:38Z</time>
      </trkpt>
      <trkpt lat="42.91504" lon="0.28643">
        <ele>1348.3683616645</ele>
        <time>2014-03-28T13:07:43Z</time>
      </trkpt>
      <trkpt lat="42.91516" lon="0.28646">
        <ele>1347.1599621544</ele>
        <time>2014-03-28T13:07:48Z</time>
      </trkpt>
      <trkpt lat="42.9153" lon="0.28651">
        <ele>1346.0298867982</ele>
        <time>2014-03-28T13:07:53Z</time>
      </trkpt>
      <trkpt lat="42.91548" lon="0.28654">
        <ele>1344.8831060319</ele>
        <time>2014-03-28T13:07:58Z</time>
      </trkpt>
      <trkpt lat="42.91561" lon="0.2866">
        <ele>1343.8190224865</ele>
        <time>2014-03-28T13:08:03Z</time>
      </trkpt>
      <trkpt lat="42.91576" lon="0.28664">
        <ele>1342.7854574367</ele>
        <time>2014-03-28T13:08:08Z</time>
      </trkpt>
      <trkpt lat="42.91598" lon="0.28669">
        <ele>1341.8781584645</ele>
        <time>2014-03-28T13:08:13Z</time>
      </trkpt>
      <trkpt lat="42.91621" lon="0.28667">
        <ele>1341.0846792434</ele>
        <time>2014-03-28T13:08:18Z</time>
      </trkpt>
      <trkpt lat="42.91646" lon="0.2866">
        <ele>1340.5085334589</ele>
        <time>2014-03-28T13:08:23Z</time>
      </trkpt>
      <trkpt lat="42.91662" lon="0.28645">
        <ele>1340.2018688997</ele>
        <time>2014-03-28T13:08:27Z</time>
      </trkpt>
      <trkpt lat="42.91686" lon="0.28636">
        <ele>1339.7944109555</ele>
        <time>2014-03-28T13:08:33Z</time>
      </trkpt>
      <trkpt lat="42.91705" lon="0.28631">
        <ele>1339.3181493792</ele>
        <time>2014-03-28T13:08:38Z</time>
      </trkpt>
      <trkpt lat="42.91715" lon="0.28628">
        <ele>1338.8894817262</ele>
        <time>2014-03-28T13:08:43Z</time>
      </trkpt>
      <trkpt lat="42.9174" lon="0.28622">
        <ele>1338.4865245509</ele>
        <time>2014-03-28T13:08:48Z</time>
      </trkpt>
      <trkpt lat="42.91761" lon="0.28618">
        <ele>1338.1466816507</ele>
        <time>2014-03-28T13:08:53Z</time>
      </trkpt>
      <trkpt lat="42.91782" lon="0.28618">
        <ele>1337.8901322752</ele>
        <time>2014-03-28T13:08:58Z</time>
      </trkpt>
      <trkpt lat="42.91803" lon="0.28614">
        <ele>1337.2022425231</ele>
        <time>2014-03-28T13:09:03Z</time>
      </trkpt>
      <trkpt lat="42.91822" lon="0.28616">
        <ele>1336.1983647364</ele>
        <time>2014-03-28T13:09:08Z</time>
      </trkpt>
      <trkpt lat="42.91848" lon="0.2862">
        <ele>1334.6549230905</ele>
        <time>2014-03-28T13:09:13Z</time>
      </trkpt>
      <trkpt lat="42.91869" lon="0.28626">
        <ele>1332.7554901412</ele>
        <time>2014-03-28T13:09:18Z</time>
      </trkpt>
      <trkpt lat="42.91888" lon="0.28633">
        <ele>1330.1668657564</ele>
        <time>2014-03-28T13:09:23Z</time>
      </trkpt>
      <trkpt lat="42.91904" lon="0.28639">
        <ele>1327.2164403987</ele>
        <time>2014-03-28T13:09:28Z</time>
      </trkpt>
      <trkpt lat="42.91916" lon="0.28646">
        <ele>1323.8195458216</ele>
        <time>2014-03-28T13:09:33Z</time>
      </trkpt>
      <trkpt lat="42.91929" lon="0.28654">
        <ele>1320.1008001159</ele>
        <time>2014-03-28T13:09:38Z</time>
      </trkpt>
      <trkpt lat="42.91949" lon="0.28658">
        <ele>1316.4792423837</ele>
        <time>2014-03-28T13:09:43Z</time>
      </trkpt>
      <trkpt lat="42.91963" lon="0.2866">
        <ele>1312.8528977455</ele>
        <time>2014-03-28T13:09:48Z</time>
      </trkpt>
      <trkpt lat="42.91972" lon="0.28665">
        <ele>1309.2137617982</ele>
        <time>2014-03-28T13:09:53Z</time>
      </trkpt>
      <trkpt lat="42.91985" lon="0.28675">
        <ele>1305.6697240241</ele>
        <time>2014-03-28T13:09:58Z</time>
      </trkpt>
      <trkpt lat="42.91998" lon="0.28683">
        <ele>1302.2339795981</ele>
        <time>2014-03-28T13:10:03Z</time>
      </trkpt>
      <trkpt lat="42.92013" lon="0.28688">
        <ele>1299.0769232929</ele>
        <time>2014-03-28T13:10:08Z</time>
      </trkpt>
      <trkpt lat="42.92024" lon="0.28692">
        <ele>1296.1106005024</ele>
        <time>2014-03-28T13:10:13Z</time>
      </trkpt>
      <trkpt lat="42.92033" lon="0.28695">
        <ele>1293.2673228428</ele>
        <time>2014-03-28T13:10:18Z</time>
      </trkpt>
      <trkpt lat="42.92035" lon="0.28695">
        <ele>1293.2673228428</ele>
        <time>2014-03-28T13:10:23Z</time>
      </trkpt>
      <trkpt lat="42.92036" lon="0.28697">
        <ele>1293.2673228428</ele>
        <time>2014-03-28T13:10:28Z</time>
      </trkpt>
      <trkpt lat="42.92038" lon="0.28698">
        <ele>1293.2673228428</ele>
        <time>2014-03-28T13:10:33Z</time>
      </trkpt>
      <trkpt lat="42.92042" lon="0.28698">
        <ele>1290.0372056528</ele>
        <time>2014-03-28T13:10:38Z</time>
      </trkpt>
      <trkpt lat="42.92047" lon="0.287">
        <ele>1290.0372056528</ele>
        <time>2014-03-28T13:10:43Z</time>
      </trkpt>
      <trkpt lat="42.92052" lon="0.28703">
        <ele>1287.0008317427</ele>
        <time>2014-03-28T13:10:48Z</time>
      </trkpt>
      <trkpt lat="42.92056" lon="0.28709">
        <ele>1287.0008317427</ele>
        <time>2014-03-28T13:10:53Z</time>
      </trkpt>
      <trkpt lat="42.92064" lon="0.28714">
        <ele>1283.7875998813</ele>
        <time>2014-03-28T13:10:58Z</time>
      </trkpt>
      <trkpt lat="42.9207" lon="0.28719">
        <ele>1283.7875998813</ele>
        <time>2014-03-28T13:11:03Z</time>
      </trkpt>
      <trkpt lat="42.92075" lon="0.28726">
        <ele>1280.587743985</ele>
        <time>2014-03-28T13:11:08Z</time>
      </trkpt>
      <trkpt lat="42.92083" lon="0.28732">
        <ele>1277.6062068193</ele>
        <time>2014-03-28T13:11:13Z</time>
      </trkpt>
      <trkpt lat="42.92092" lon="0.28739">
        <ele>1274.9456921766</ele>
        <time>2014-03-28T13:11:18Z</time>
      </trkpt>
      <trkpt lat="42.92101" lon="0.28746">
        <ele>1272.5418298254</ele>
        <time>2014-03-28T13:11:23Z</time>
      </trkpt>
      <trkpt lat="42.92108" lon="0.28752">
        <ele>1272.5418298254</ele>
        <time>2014-03-28T13:11:28Z</time>
      </trkpt>
      <trkpt lat="42.92113" lon="0.28755">
        <ele>1270.3629743038</ele>
        <time>2014-03-28T13:11:33Z</time>
      </trkpt>
      <trkpt lat="42.92118" lon="0.28759">
        <ele>1270.3629743038</ele>
        <time>2014-03-28T13:11:38Z</time>
      </trkpt>
      <trkpt lat="42.92122" lon="0.28767">
        <ele>1268.5952375687</ele>
        <time>2014-03-28T13:11:43Z</time>
      </trkpt>
      <trkpt lat="42.92125" lon="0.28773">
        <ele>1268.5952375687</ele>
        <time>2014-03-28T13:11:48Z</time>
      </trkpt>
      <trkpt lat="42.92131" lon="0.28777">
        <ele>1267.0062981818</ele>
        <time>2014-03-28T13:11:52Z</time>
      </trkpt>
      <trkpt lat="42.92136" lon="0.28778">
        <ele>1267.0062981818</ele>
        <time>2014-03-28T13:11:58Z</time>
      </trkpt>
      <trkpt lat="42.92144" lon="0.28787">
        <ele>1265.5964766186</ele>
        <time>2014-03-28T13:12:03Z</time>
      </trkpt>
      <trkpt lat="42.9215" lon="0.28793">
        <ele>1265.5964766186</ele>
        <time>2014-03-28T13:12:08Z</time>
      </trkpt>
      <trkpt lat="42.92163" lon="0.288">
        <ele>1264.3510761595</ele>
        <time>2014-03-28T13:12:13Z</time>
      </trkpt>
      <trkpt lat="42.92173" lon="0.28806">
        <ele>1263.2127156502</ele>
        <time>2014-03-28T13:12:18Z</time>
      </trkpt>
      <trkpt lat="42.92182" lon="0.28812">
        <ele>1262.2143374335</ele>
        <time>2014-03-28T13:12:23Z</time>
      </trkpt>
      <trkpt lat="42.92192" lon="0.28821">
        <ele>1261.4724918986</ele>
        <time>2014-03-28T13:12:28Z</time>
      </trkpt>
      <trkpt lat="42.92199" lon="0.28827">
        <ele>1261.4724918986</ele>
        <time>2014-03-28T13:12:33Z</time>
      </trkpt>
      <trkpt lat="42.92209" lon="0.28834">
        <ele>1260.8494256096</ele>
        <time>2014-03-28T13:12:38Z</time>
      </trkpt>
      <trkpt lat="42.92226" lon="0.28839">
        <ele>1260.3180285351</ele>
        <time>2014-03-28T13:12:43Z</time>
      </trkpt>
      <trkpt lat="42.92234" lon="0.2885">
        <ele>1259.8529177218</ele>
        <time>2014-03-28T13:12:48Z</time>
      </trkpt>
      <trkpt lat="42.92255" lon="0.28858">
        <ele>1259.4448059592</ele>
        <time>2014-03-28T13:12:53Z</time>
      </trkpt>
      <trkpt lat="42.92267" lon="0.28868">
        <ele>1258.9696580269</ele>
        <time>2014-03-28T13:12:58Z</time>
      </trkpt>
      <trkpt lat="42.92282" lon="0.28882">
        <ele>1258.3848241885</ele>
        <time>2014-03-28T13:13:03Z</time>
      </trkpt>
      <trkpt lat="42.92296" lon="0.28901">
        <ele>1257.6367249589</ele>
        <time>2014-03-28T13:13:08Z</time>
      </trkpt>
      <trkpt lat="42.9231" lon="0.28924">
        <ele>1256.7194574148</ele>
        <time>2014-03-28T13:13:13Z</time>
      </trkpt>
      <trkpt lat="42.9233" lon="0.28949">
        <ele>1255.570438206</ele>
        <time>2014-03-28T13:13:18Z</time>
      </trkpt>
      <trkpt lat="42.92342" lon="0.28966">
        <ele>1254.3485586788</ele>
        <time>2014-03-28T13:13:23Z</time>
      </trkpt>
      <trkpt lat="42.92349" lon="0.28987">
        <ele>1253.0571946623</ele>
        <time>2014-03-28T13:13:28Z</time>
      </trkpt>
      <trkpt lat="42.9236" lon="0.28996">
        <ele>1251.6853224846</ele>
        <time>2014-03-28T13:13:33Z</time>
      </trkpt>
      <trkpt lat="42.92382" lon="0.28998">
        <ele>1250.4968306751</ele>
        <time>2014-03-28T13:13:38Z</time>
      </trkpt>
      <trkpt lat="42.92386" lon="0.29005">
        <ele>1250.4968306751</ele>
        <time>2014-03-28T13:13:43Z</time>
      </trkpt>
      <trkpt lat="42.92381" lon="0.29013">
        <ele>1249.1593289107</ele>
        <time>2014-03-28T13:13:48Z</time>
      </trkpt>
      <trkpt lat="42.92374" lon="0.29021">
        <ele>1247.8841274617</ele>
        <time>2014-03-28T13:13:53Z</time>
      </trkpt>
      <trkpt lat="42.92366" lon="0.29029">
        <ele>1246.679559569</ele>
        <time>2014-03-28T13:13:58Z</time>
      </trkpt>
      <trkpt lat="42.92351" lon="0.29046">
        <ele>1245.4091016744</ele>
        <time>2014-03-28T13:14:03Z</time>
      </trkpt>
      <trkpt lat="42.92334" lon="0.29058">
        <ele>1244.0041523952</ele>
        <time>2014-03-28T13:14:08Z</time>
      </trkpt>
      <trkpt lat="42.92323" lon="0.29071">
        <ele>1242.6033456528</ele>
        <time>2014-03-28T13:14:12Z</time>
      </trkpt>
      <trkpt lat="42.92313" lon="0.29082">
        <ele>1241.046958757</ele>
        <time>2014-03-28T13:14:18Z</time>
      </trkpt>
      <trkpt lat="42.92304" lon="0.29089">
        <ele>1239.4613088012</ele>
        <time>2014-03-28T13:14:23Z</time>
      </trkpt>
      <trkpt lat="42.92286" lon="0.29094">
        <ele>1237.8194606515</ele>
        <time>2014-03-28T13:14:28Z</time>
      </trkpt>
      <trkpt lat="42.92266" lon="0.291">
        <ele>1236.1543125772</ele>
        <time>2014-03-28T13:14:33Z</time>
      </trkpt>
      <trkpt lat="42.92246" lon="0.29112">
        <ele>1234.4099936307</ele>
        <time>2014-03-28T13:14:38Z</time>
      </trkpt>
      <trkpt lat="42.9223" lon="0.29125">
        <ele>1232.5782372158</ele>
        <time>2014-03-28T13:14:43Z</time>
      </trkpt>
      <trkpt lat="42.92219" lon="0.29142">
        <ele>1230.7093139704</ele>
        <time>2014-03-28T13:14:48Z</time>
      </trkpt>
      <trkpt lat="42.92206" lon="0.29155">
        <ele>1228.7202412663</ele>
        <time>2014-03-28T13:14:53Z</time>
      </trkpt>
      <trkpt lat="42.92195" lon="0.29161">
        <ele>1226.635377302</ele>
        <time>2014-03-28T13:14:58Z</time>
      </trkpt>
      <trkpt lat="42.92185" lon="0.29165">
        <ele>1224.5640509534</ele>
        <time>2014-03-28T13:15:03Z</time>
      </trkpt>
      <trkpt lat="42.92175" lon="0.29172">
        <ele>1222.5066630575</ele>
        <time>2014-03-28T13:15:08Z</time>
      </trkpt>
      <trkpt lat="42.92168" lon="0.29183">
        <ele>1220.5788485089</ele>
        <time>2014-03-28T13:15:13Z</time>
      </trkpt>
      <trkpt lat="42.92157" lon="0.29199">
        <ele>1218.700048626</ele>
        <time>2014-03-28T13:15:20Z</time>
      </trkpt>
      <trkpt lat="42.92152" lon="0.29227">
        <ele>1216.9540123834</ele>
        <time>2014-03-28T13:15:23Z</time>
      </trkpt>
      <trkpt lat="42.92163" lon="0.29267">
        <ele>1215.2162106348</ele>
        <time>2014-03-28T13:15:28Z</time>
      </trkpt>
      <trkpt lat="42.92177" lon="0.29297">
        <ele>1213.4000609751</ele>
        <time>2014-03-28T13:15:33Z</time>
      </trkpt>
      <trkpt lat="42.92184" lon="0.2931">
        <ele>1211.5840812221</ele>
        <time>2014-03-28T13:15:38Z</time>
      </trkpt>
      <trkpt lat="42.92191" lon="0.29319">
        <ele>1209.7401391138</ele>
        <time>2014-03-28T13:15:43Z</time>
      </trkpt>
      <trkpt lat="42.92194" lon="0.29344">
        <ele>1208.072819862</ele>
        <time>2014-03-28T13:15:48Z</time>
      </trkpt>
      <trkpt lat="42.922" lon="0.2935">
        <ele>1208.072819862</ele>
        <time>2014-03-28T13:15:53Z</time>
      </trkpt>
      <trkpt lat="42.92213" lon="0.29349">
        <ele>1206.2091438882</ele>
        <time>2014-03-28T13:15:58Z</time>
      </trkpt>
      <trkpt lat="42.92226" lon="0.29348">
        <ele>1204.4381621074</ele>
        <time>2014-03-28T13:16:03Z</time>
      </trkpt>
      <trkpt lat="42.92239" lon="0.29348">
        <ele>1202.6815556488</ele>
        <time>2014-03-28T13:16:08Z</time>
      </trkpt>
      <trkpt lat="42.92265" lon="0.29341">
        <ele>1200.8667080981</ele>
        <time>2014-03-28T13:16:13Z</time>
      </trkpt>
      <trkpt lat="42.92284" lon="0.29334">
        <ele>1198.9841336048</ele>
        <time>2014-03-28T13:16:18Z</time>
      </trkpt>
      <trkpt lat="42.92299" lon="0.29329">
        <ele>1197.1405093901</ele>
        <time>2014-03-28T13:16:23Z</time>
      </trkpt>
      <trkpt lat="42.92312" lon="0.29329">
        <ele>1195.3192642861</ele>
        <time>2014-03-28T13:16:28Z</time>
      </trkpt>
      <trkpt lat="42.92321" lon="0.29324">
        <ele>1193.4473223121</ele>
        <time>2014-03-28T13:16:33Z</time>
      </trkpt>
      <trkpt lat="42.92333" lon="0.29319">
        <ele>1191.5723908422</ele>
        <time>2014-03-28T13:16:38Z</time>
      </trkpt>
      <trkpt lat="42.92338" lon="0.29316">
        <ele>1191.5723908422</ele>
        <time>2014-03-28T13:16:42Z</time>
      </trkpt>
      <trkpt lat="42.92365" lon="0.29314">
        <ele>1189.147807501</ele>
        <time>2014-03-28T13:16:48Z</time>
      </trkpt>
      <trkpt lat="42.92388" lon="0.29306">
        <ele>1186.5620780025</ele>
        <time>2014-03-28T13:16:53Z</time>
      </trkpt>
      <trkpt lat="42.92411" lon="0.29301">
        <ele>1183.8873737327</ele>
        <time>2014-03-28T13:16:58Z</time>
      </trkpt>
      <trkpt lat="42.92431" lon="0.29296">
        <ele>1181.1907840713</ele>
        <time>2014-03-28T13:17:03Z</time>
      </trkpt>
      <trkpt lat="42.92451" lon="0.29292">
        <ele>1178.3759729486</ele>
        <time>2014-03-28T13:17:08Z</time>
      </trkpt>
      <trkpt lat="42.92474" lon="0.2929">
        <ele>1175.0945693186</ele>
        <time>2014-03-28T13:17:14Z</time>
      </trkpt>
      <trkpt lat="42.92497" lon="0.29296">
        <ele>1171.7311959971</ele>
        <time>2014-03-28T13:17:18Z</time>
      </trkpt>
      <trkpt lat="42.92532" lon="0.2931">
        <ele>1167.9794804218</ele>
        <time>2014-03-28T13:17:23Z</time>
      </trkpt>
      <trkpt lat="42.9255" lon="0.29322">
        <ele>1164.3059539983</ele>
        <time>2014-03-28T13:17:28Z</time>
      </trkpt>
      <trkpt lat="42.92568" lon="0.2933">
        <ele>1160.6381889228</ele>
        <time>2014-03-28T13:17:33Z</time>
      </trkpt>
      <trkpt lat="42.92582" lon="0.2934">
        <ele>1156.9522054931</ele>
        <time>2014-03-28T13:17:38Z</time>
      </trkpt>
      <trkpt lat="42.92603" lon="0.2935">
        <ele>1153.3410268384</ele>
        <time>2014-03-28T13:17:43Z</time>
      </trkpt>
      <trkpt lat="42.9262" lon="0.29356">
        <ele>1149.6887703869</ele>
        <time>2014-03-28T13:17:48Z</time>
      </trkpt>
      <trkpt lat="42.92635" lon="0.29361">
        <ele>1146.0033565076</ele>
        <time>2014-03-28T13:17:53Z</time>
      </trkpt>
      <trkpt lat="42.92651" lon="0.29371">
        <ele>1142.2488631785</ele>
        <time>2014-03-28T13:17:58Z</time>
      </trkpt>
      <trkpt lat="42.92662" lon="0.29375">
        <ele>1138.5505974936</ele>
        <time>2014-03-28T13:18:04Z</time>
      </trkpt>
      <trkpt lat="42.92675" lon="0.29376">
        <ele>1134.678506038</ele>
        <time>2014-03-28T13:18:08Z</time>
      </trkpt>
      <trkpt lat="42.92709" lon="0.29376">
        <ele>1130.6647756376</ele>
        <time>2014-03-28T13:18:13Z</time>
      </trkpt>
      <trkpt lat="42.92735" lon="0.29385">
        <ele>1126.5971297287</ele>
        <time>2014-03-28T13:18:18Z</time>
      </trkpt>
      <trkpt lat="42.92762" lon="0.29382">
        <ele>1122.4415643798</ele>
        <time>2014-03-28T13:18:23Z</time>
      </trkpt>
      <trkpt lat="42.92789" lon="0.29386">
        <ele>1118.2099031129</ele>
        <time>2014-03-28T13:18:28Z</time>
      </trkpt>
      <trkpt lat="42.92811" lon="0.29389">
        <ele>1113.9419814674</ele>
        <time>2014-03-28T13:18:33Z</time>
      </trkpt>
      <trkpt lat="42.92839" lon="0.29392">
        <ele>1109.6314175268</ele>
        <time>2014-03-28T13:18:38Z</time>
      </trkpt>
      <trkpt lat="42.92871" lon="0.2939">
        <ele>1105.2001985069</ele>
        <time>2014-03-28T13:18:43Z</time>
      </trkpt>
      <trkpt lat="42.92894" lon="0.29389">
        <ele>1100.7923801413</ele>
        <time>2014-03-28T13:18:47Z</time>
      </trkpt>
      <trkpt lat="42.92914" lon="0.29388">
        <ele>1096.2529769123</ele>
        <time>2014-03-28T13:18:53Z</time>
      </trkpt>
      <trkpt lat="42.92939" lon="0.29388">
        <ele>1091.3088826211</ele>
        <time>2014-03-28T13:18:58Z</time>
      </trkpt>
      <trkpt lat="42.92947" lon="0.29385">
        <ele>1091.3088826211</ele>
        <time>2014-03-28T13:19:03Z</time>
      </trkpt>
      <trkpt lat="42.9295" lon="0.29385">
        <ele>1085.7368308065</ele>
        <time>2014-03-28T13:19:07Z</time>
      </trkpt>
      <trkpt lat="42.92954" lon="0.29386">
        <ele>1085.7368308065</ele>
        <time>2014-03-28T13:19:13Z</time>
      </trkpt>
      <trkpt lat="42.92955" lon="0.29386">
        <ele>1085.7368308065</ele>
        <time>2014-03-28T13:19:18Z</time>
      </trkpt>
      <trkpt lat="42.9295" lon="0.29392">
        <ele>1079.4324081274</ele>
        <time>2014-03-28T13:19:23Z</time>
      </trkpt>
      <trkpt lat="42.92957" lon="0.29395">
        <ele>1079.4324081274</ele>
        <time>2014-03-28T13:19:28Z</time>
      </trkpt>
      <trkpt lat="42.92961" lon="0.29392">
        <ele>1072.7618842079</ele>
        <time>2014-03-28T13:19:33Z</time>
      </trkpt>
      <trkpt lat="42.9297" lon="0.29381">
        <ele>1066.3536625724</ele>
        <time>2014-03-28T13:19:38Z</time>
      </trkpt>
      <trkpt lat="42.92995" lon="0.29366">
        <ele>1060.212581815</ele>
        <time>2014-03-28T13:19:43Z</time>
      </trkpt>
      <trkpt lat="42.93017" lon="0.29354">
        <ele>1054.2989084993</ele>
        <time>2014-03-28T13:19:48Z</time>
      </trkpt>
      <trkpt lat="42.93026" lon="0.29346">
        <ele>1048.6902365836</ele>
        <time>2014-03-28T13:19:53Z</time>
      </trkpt>
      <trkpt lat="42.93037" lon="0.29338">
        <ele>1043.3564792683</ele>
        <time>2014-03-28T13:19:58Z</time>
      </trkpt>
      <trkpt lat="42.93045" lon="0.29329">
        <ele>1038.2975621012</ele>
        <time>2014-03-28T13:20:03Z</time>
      </trkpt>
      <trkpt lat="42.93053" lon="0.29321">
        <ele>1033.4979868042</ele>
        <time>2014-03-28T13:20:08Z</time>
      </trkpt>
      <trkpt lat="42.93061" lon="0.29311">
        <ele>1028.913601189</ele>
        <time>2014-03-28T13:20:13Z</time>
      </trkpt>
      <trkpt lat="42.93073" lon="0.29301">
        <ele>1024.5458905375</ele>
        <time>2014-03-28T13:20:18Z</time>
      </trkpt>
      <trkpt lat="42.93081" lon="0.29289">
        <ele>1020.4098079414</ele>
        <time>2014-03-28T13:20:23Z</time>
      </trkpt>
      <trkpt lat="42.93093" lon="0.29275">
        <ele>1016.4895208015</ele>
        <time>2014-03-28T13:20:28Z</time>
      </trkpt>
      <trkpt lat="42.93097" lon="0.29254">
        <ele>1012.8704297419</ele>
        <time>2014-03-28T13:20:33Z</time>
      </trkpt>
      <trkpt lat="42.93107" lon="0.2924">
        <ele>1009.457695825</ele>
        <time>2014-03-28T13:20:38Z</time>
      </trkpt>
      <trkpt lat="42.93117" lon="0.2923">
        <ele>1006.2491629881</ele>
        <time>2014-03-28T13:20:43Z</time>
      </trkpt>
      <trkpt lat="42.93128" lon="0.29221">
        <ele>1003.2421061996</ele>
        <time>2014-03-28T13:20:48Z</time>
      </trkpt>
      <trkpt lat="42.93141" lon="0.29212">
        <ele>1000.4188880026</ele>
        <time>2014-03-28T13:20:53Z</time>
      </trkpt>
      <trkpt lat="42.93155" lon="0.29202">
        <ele>997.74812230802</ele>
        <time>2014-03-28T13:20:58Z</time>
      </trkpt>
      <trkpt lat="42.93169" lon="0.29192">
        <ele>995.18579163326</ele>
        <time>2014-03-28T13:21:03Z</time>
      </trkpt>
      <trkpt lat="42.93181" lon="0.29182">
        <ele>992.79160685927</ele>
        <time>2014-03-28T13:21:08Z</time>
      </trkpt>
      <trkpt lat="42.93192" lon="0.29172">
        <ele>990.60595053388</ele>
        <time>2014-03-28T13:21:12Z</time>
      </trkpt>
      <trkpt lat="42.93208" lon="0.29162">
        <ele>988.62238085655</ele>
        <time>2014-03-28T13:21:18Z</time>
      </trkpt>
      <trkpt lat="42.93219" lon="0.29157">
        <ele>986.93522057896</ele>
        <time>2014-03-28T13:21:23Z</time>
      </trkpt>
      <trkpt lat="42.93228" lon="0.29152">
        <ele>985.42927712998</ele>
        <time>2014-03-28T13:21:28Z</time>
      </trkpt>
      <trkpt lat="42.93236" lon="0.29145">
        <ele>984.17026637222</ele>
        <time>2014-03-28T13:21:32Z</time>
      </trkpt>
      <trkpt lat="42.93248" lon="0.29142">
        <ele>983.04549288444</ele>
        <time>2014-03-28T13:21:37Z</time>
      </trkpt>
      <trkpt lat="42.9326" lon="0.29137">
        <ele>982.09433755637</ele>
        <time>2014-03-28T13:21:43Z</time>
      </trkpt>
      <trkpt lat="42.93267" lon="0.29133">
        <ele>982.09433755637</ele>
        <time>2014-03-28T13:21:48Z</time>
      </trkpt>
      <trkpt lat="42.93275" lon="0.29129">
        <ele>981.10789582588</ele>
        <time>2014-03-28T13:21:53Z</time>
      </trkpt>
      <trkpt lat="42.93281" lon="0.29124">
        <ele>981.10789582588</ele>
        <time>2014-03-28T13:21:58Z</time>
      </trkpt>
      <trkpt lat="42.93286" lon="0.29117">
        <ele>980.00809975099</ele>
        <time>2014-03-28T13:22:03Z</time>
      </trkpt>
      <trkpt lat="42.93292" lon="0.2911">
        <ele>980.00809975099</ele>
        <time>2014-03-28T13:22:08Z</time>
      </trkpt>
      <trkpt lat="42.93301" lon="0.29103">
        <ele>978.92481030222</ele>
        <time>2014-03-28T13:22:13Z</time>
      </trkpt>
      <trkpt lat="42.93312" lon="0.29089">
        <ele>977.93520591339</ele>
        <time>2014-03-28T13:22:18Z</time>
      </trkpt>
      <trkpt lat="42.93322" lon="0.29077">
        <ele>977.00980605379</ele>
        <time>2014-03-28T13:22:23Z</time>
      </trkpt>
      <trkpt lat="42.93328" lon="0.29069">
        <ele>977.00980605379</ele>
        <time>2014-03-28T13:22:28Z</time>
      </trkpt>
      <trkpt lat="42.93335" lon="0.29057">
        <ele>975.96275746865</ele>
        <time>2014-03-28T13:22:33Z</time>
      </trkpt>
      <trkpt lat="42.93341" lon="0.29045">
        <ele>975.01147679856</ele>
        <time>2014-03-28T13:22:38Z</time>
      </trkpt>
      <trkpt lat="42.93345" lon="0.29038">
        <ele>975.01147679856</ele>
        <time>2014-03-28T13:22:42Z</time>
      </trkpt>
      <trkpt lat="42.93348" lon="0.29028">
        <ele>973.91058213564</ele>
        <time>2014-03-28T13:22:48Z</time>
      </trkpt>
      <trkpt lat="42.9335" lon="0.29022">
        <ele>973.91058213564</ele>
        <time>2014-03-28T13:22:53Z</time>
      </trkpt>
      <trkpt lat="42.93353" lon="0.29016">
        <ele>972.90889864846</ele>
        <time>2014-03-28T13:22:58Z</time>
      </trkpt>
      <trkpt lat="42.93357" lon="0.29012">
        <ele>972.90889864846</ele>
        <time>2014-03-28T13:23:03Z</time>
      </trkpt>
      <trkpt lat="42.93362" lon="0.29003">
        <ele>971.80456333047</ele>
        <time>2014-03-28T13:23:08Z</time>
      </trkpt>
      <trkpt lat="42.9337" lon="0.28999">
        <ele>971.80456333047</ele>
        <time>2014-03-28T13:23:13Z</time>
      </trkpt>
      <trkpt lat="42.93374" lon="0.28992">
        <ele>971.29011723201</ele>
        <time>2014-03-28T13:23:17Z</time>
      </trkpt>
      <trkpt lat="42.93378" lon="0.28985">
        <ele>971.29011723201</ele>
        <time>2014-03-28T13:23:22Z</time>
      </trkpt>
      <trkpt lat="42.93379" lon="0.28978">
        <ele>970.73761028253</ele>
        <time>2014-03-28T13:23:28Z</time>
      </trkpt>
      <trkpt lat="42.93379" lon="0.28973">
        <ele>970.73761028253</ele>
        <time>2014-03-28T13:23:33Z</time>
      </trkpt>
      <trkpt lat="42.93377" lon="0.28972">
        <ele>970.73761028253</ele>
        <time>2014-03-28T13:23:38Z</time>
      </trkpt>
      <trkpt lat="42.93381" lon="0.2897">
        <ele>972.08749869918</ele>
        <time>2014-03-28T13:23:58Z</time>
      </trkpt>
      <trkpt lat="42.93394" lon="0.28967">
        <ele>974.23596108237</ele>
        <time>2014-03-28T13:24:03Z</time>
      </trkpt>
      <trkpt lat="42.93397" lon="0.28962">
        <ele>974.23596108237</ele>
        <time>2014-03-28T13:24:08Z</time>
      </trkpt>
      <trkpt lat="42.93401" lon="0.28957">
        <ele>976.51855551381</ele>
        <time>2014-03-28T13:24:12Z</time>
      </trkpt>
      <trkpt lat="42.93406" lon="0.28951">
        <ele>976.51855551381</ele>
        <time>2014-03-28T13:24:19Z</time>
      </trkpt>
      <trkpt lat="42.93412" lon="0.28942">
        <ele>978.92481696463</ele>
        <time>2014-03-28T13:24:23Z</time>
      </trkpt>
      <trkpt lat="42.93415" lon="0.28935">
        <ele>978.92481696463</ele>
        <time>2014-03-28T13:24:28Z</time>
      </trkpt>
      <trkpt lat="42.9342" lon="0.28929">
        <ele>981.38735783178</ele>
        <time>2014-03-28T13:24:33Z</time>
      </trkpt>
      <trkpt lat="42.93423" lon="0.28924">
        <ele>981.38735783178</ele>
        <time>2014-03-28T13:24:38Z</time>
      </trkpt>
      <trkpt lat="42.93425" lon="0.28918">
        <ele>983.88713866006</ele>
        <time>2014-03-28T13:24:44Z</time>
      </trkpt>
      <trkpt lat="42.93429" lon="0.2891">
        <ele>983.88713866006</ele>
        <time>2014-03-28T13:24:48Z</time>
      </trkpt>
      <trkpt lat="42.93432" lon="0.28903">
        <ele>986.43557917277</ele>
        <time>2014-03-28T13:24:53Z</time>
      </trkpt>
      <trkpt lat="42.93435" lon="0.28898">
        <ele>986.43557917277</ele>
        <time>2014-03-28T13:24:58Z</time>
      </trkpt>
      <trkpt lat="42.93438" lon="0.28894">
        <ele>988.94260679533</ele>
        <time>2014-03-28T13:25:02Z</time>
      </trkpt>
      <trkpt lat="42.93444" lon="0.28886">
        <ele>988.94260679533</ele>
        <time>2014-03-28T13:25:08Z</time>
      </trkpt>
      <trkpt lat="42.93448" lon="0.28878">
        <ele>991.49819204449</ele>
        <time>2014-03-28T13:25:12Z</time>
      </trkpt>
      <trkpt lat="42.93454" lon="0.28868">
        <ele>993.95537253812</ele>
        <time>2014-03-28T13:25:18Z</time>
      </trkpt>
      <trkpt lat="42.93458" lon="0.28861">
        <ele>993.95537253812</ele>
        <time>2014-03-28T13:25:23Z</time>
      </trkpt>
      <trkpt lat="42.93462" lon="0.28853">
        <ele>996.43805949804</ele>
        <time>2014-03-28T13:25:28Z</time>
      </trkpt>
      <trkpt lat="42.93466" lon="0.28842">
        <ele>996.43805949804</ele>
        <time>2014-03-28T13:25:33Z</time>
      </trkpt>
      <trkpt lat="42.93469" lon="0.28835">
        <ele>998.93170090274</ele>
        <time>2014-03-28T13:25:38Z</time>
      </trkpt>
      <trkpt lat="42.93475" lon="0.28826">
        <ele>998.93170090274</ele>
        <time>2014-03-28T13:25:43Z</time>
      </trkpt>
      <trkpt lat="42.93481" lon="0.28819">
        <ele>1001.3511451996</ele>
        <time>2014-03-28T13:25:48Z</time>
      </trkpt>
      <trkpt lat="42.93487" lon="0.2881">
        <ele>1003.6325378771</ele>
        <time>2014-03-28T13:25:53Z</time>
      </trkpt>
      <trkpt lat="42.93494" lon="0.288">
        <ele>1005.7607609652</ele>
        <time>2014-03-28T13:25:58Z</time>
      </trkpt>
      <trkpt lat="42.93498" lon="0.28794">
        <ele>1005.7607609652</ele>
        <time>2014-03-28T13:26:02Z</time>
      </trkpt>
      <trkpt lat="42.93504" lon="0.28787">
        <ele>1007.8235401376</ele>
        <time>2014-03-28T13:26:08Z</time>
      </trkpt>
      <trkpt lat="42.93508" lon="0.28781">
        <ele>1007.8235401376</ele>
        <time>2014-03-28T13:26:13Z</time>
      </trkpt>
      <trkpt lat="42.93513" lon="0.28773">
        <ele>1009.8307085724</ele>
        <time>2014-03-28T13:26:18Z</time>
      </trkpt>
      <trkpt lat="42.93518" lon="0.28767">
        <ele>1009.8307085724</ele>
        <time>2014-03-28T13:26:22Z</time>
      </trkpt>
      <trkpt lat="42.93523" lon="0.28758">
        <ele>1011.8207754342</ele>
        <time>2014-03-28T13:26:28Z</time>
      </trkpt>
      <trkpt lat="42.93527" lon="0.28751">
        <ele>1011.8207754342</ele>
        <time>2014-03-28T13:26:34Z</time>
      </trkpt>
      <trkpt lat="42.93531" lon="0.28745">
        <ele>1013.8010616882</ele>
        <time>2014-03-28T13:26:37Z</time>
      </trkpt>
      <trkpt lat="42.93536" lon="0.28735">
        <ele>1013.8010616882</ele>
        <time>2014-03-28T13:26:43Z</time>
      </trkpt>
      <trkpt lat="42.9354" lon="0.28727">
        <ele>1015.7787865795</ele>
        <time>2014-03-28T13:26:48Z</time>
      </trkpt>
      <trkpt lat="42.93544" lon="0.28721">
        <ele>1015.7787865795</ele>
        <time>2014-03-28T13:26:53Z</time>
      </trkpt>
      <trkpt lat="42.93549" lon="0.28715">
        <ele>1017.7898699712</ele>
        <time>2014-03-28T13:26:58Z</time>
      </trkpt>
      <trkpt lat="42.93552" lon="0.28708">
        <ele>1017.7898699712</ele>
        <time>2014-03-28T13:27:03Z</time>
      </trkpt>
      <trkpt lat="42.9356" lon="0.28697">
        <ele>1019.8390710558</ele>
        <time>2014-03-28T13:27:08Z</time>
      </trkpt>
      <trkpt lat="42.93566" lon="0.28691">
        <ele>1019.8390710558</ele>
        <time>2014-03-28T13:27:13Z</time>
      </trkpt>
      <trkpt lat="42.93571" lon="0.28685">
        <ele>1021.8878447053</ele>
        <time>2014-03-28T13:27:18Z</time>
      </trkpt>
      <trkpt lat="42.93579" lon="0.28676">
        <ele>1023.7999773819</ele>
        <time>2014-03-28T13:27:23Z</time>
      </trkpt>
      <trkpt lat="42.93586" lon="0.28667">
        <ele>1025.6085344497</ele>
        <time>2014-03-28T13:27:28Z</time>
      </trkpt>
      <trkpt lat="42.93591" lon="0.28657">
        <ele>1025.6085344497</ele>
        <time>2014-03-28T13:27:33Z</time>
      </trkpt>
      <trkpt lat="42.93593" lon="0.28652">
        <ele>1027.402444126</ele>
        <time>2014-03-28T13:27:38Z</time>
      </trkpt>
      <trkpt lat="42.93596" lon="0.28646">
        <ele>1027.402444126</ele>
        <time>2014-03-28T13:27:43Z</time>
      </trkpt>
      <trkpt lat="42.93601" lon="0.28648">
        <ele>1030.6911918966</ele>
        <time>2014-03-28T13:27:48Z</time>
      </trkpt>
      <trkpt lat="42.93607" lon="0.28651">
        <ele>1030.6911918966</ele>
        <time>2014-03-28T13:27:53Z</time>
      </trkpt>
      <trkpt lat="42.93611" lon="0.28647">
        <ele>1035.6157604464</ele>
        <time>2014-03-28T13:27:58Z</time>
      </trkpt>
      <trkpt lat="42.93615" lon="0.28643">
        <ele>1035.6157604464</ele>
        <time>2014-03-28T13:28:03Z</time>
      </trkpt>
      <trkpt lat="42.93619" lon="0.28638">
        <ele>1040.7028969416</ele>
        <time>2014-03-28T13:28:08Z</time>
      </trkpt>
      <trkpt lat="42.93624" lon="0.28631">
        <ele>1040.7028969416</ele>
        <time>2014-03-28T13:28:13Z</time>
      </trkpt>
      <trkpt lat="42.9363" lon="0.28625">
        <ele>1045.8556447166</ele>
        <time>2014-03-28T13:28:18Z</time>
      </trkpt>
      <trkpt lat="42.93637" lon="0.28617">
        <ele>1050.6961222051</ele>
        <time>2014-03-28T13:28:23Z</time>
      </trkpt>
      <trkpt lat="42.93641" lon="0.28613">
        <ele>1050.6961222051</ele>
        <time>2014-03-28T13:28:28Z</time>
      </trkpt>
      <trkpt lat="42.93646" lon="0.28606">
        <ele>1055.4374851977</ele>
        <time>2014-03-28T13:28:33Z</time>
      </trkpt>
      <trkpt lat="42.9365" lon="0.286">
        <ele>1055.4374851977</ele>
        <time>2014-03-28T13:28:38Z</time>
      </trkpt>
      <trkpt lat="42.93654" lon="0.28594">
        <ele>1060.0905408473</ele>
        <time>2014-03-28T13:28:43Z</time>
      </trkpt>
      <trkpt lat="42.9366" lon="0.28586">
        <ele>1060.0905408473</ele>
        <time>2014-03-28T13:28:48Z</time>
      </trkpt>
      <trkpt lat="42.93665" lon="0.2858">
        <ele>1064.5938751787</ele>
        <time>2014-03-28T13:28:53Z</time>
      </trkpt>
      <trkpt lat="42.93668" lon="0.28576">
        <ele>1064.5938751787</ele>
        <time>2014-03-28T13:28:58Z</time>
      </trkpt>
      <trkpt lat="42.93677" lon="0.28566">
        <ele>1068.8481544793</ele>
        <time>2014-03-28T13:29:03Z</time>
      </trkpt>
      <trkpt lat="42.93681" lon="0.2856">
        <ele>1068.8481544793</ele>
        <time>2014-03-28T13:29:08Z</time>
      </trkpt>
      <trkpt lat="42.93686" lon="0.28553">
        <ele>1072.7335993202</ele>
        <time>2014-03-28T13:29:13Z</time>
      </trkpt>
      <trkpt lat="42.9369" lon="0.28547">
        <ele>1072.7335993202</ele>
        <time>2014-03-28T13:29:18Z</time>
      </trkpt>
      <trkpt lat="42.93695" lon="0.28539">
        <ele>1076.3856295185</ele>
        <time>2014-03-28T13:29:23Z</time>
      </trkpt>
      <trkpt lat="42.93701" lon="0.28533">
        <ele>1076.3856295185</ele>
        <time>2014-03-28T13:29:28Z</time>
      </trkpt>
      <trkpt lat="42.93708" lon="0.28526">
        <ele>1079.6857520873</ele>
        <time>2014-03-28T13:29:33Z</time>
      </trkpt>
      <trkpt lat="42.9372" lon="0.28518">
        <ele>1082.7128689714</ele>
        <time>2014-03-28T13:29:38Z</time>
      </trkpt>
      <trkpt lat="42.93726" lon="0.28509">
        <ele>1082.7128689714</ele>
        <time>2014-03-28T13:29:43Z</time>
      </trkpt>
      <trkpt lat="42.93734" lon="0.28501">
        <ele>1085.5556086651</ele>
        <time>2014-03-28T13:29:48Z</time>
      </trkpt>
      <trkpt lat="42.93744" lon="0.28497">
        <ele>1088.1240030876</ele>
        <time>2014-03-28T13:29:53Z</time>
      </trkpt>
      <trkpt lat="42.93749" lon="0.28491">
        <ele>1088.1240030876</ele>
        <time>2014-03-28T13:29:58Z</time>
      </trkpt>
      <trkpt lat="42.93756" lon="0.28483">
        <ele>1090.4654755624</ele>
        <time>2014-03-28T13:30:03Z</time>
      </trkpt>
      <trkpt lat="42.9376" lon="0.28479">
        <ele>1090.4654755624</ele>
        <time>2014-03-28T13:30:08Z</time>
      </trkpt>
      <trkpt lat="42.93772" lon="0.28469">
        <ele>1092.5096069102</ele>
        <time>2014-03-28T13:30:13Z</time>
      </trkpt>
      <trkpt lat="42.93776" lon="0.28464">
        <ele>1092.5096069102</ele>
        <time>2014-03-28T13:30:18Z</time>
      </trkpt>
      <trkpt lat="42.93783" lon="0.28458">
        <ele>1094.321957933</ele>
        <time>2014-03-28T13:30:23Z</time>
      </trkpt>
      <trkpt lat="42.9379" lon="0.28449">
        <ele>1095.8921187505</ele>
        <time>2014-03-28T13:30:28Z</time>
      </trkpt>
      <trkpt lat="42.93794" lon="0.28443">
        <ele>1095.8921187505</ele>
        <time>2014-03-28T13:30:33Z</time>
      </trkpt>
      <trkpt lat="42.938" lon="0.28436">
        <ele>1097.1681176068</ele>
        <time>2014-03-28T13:30:38Z</time>
      </trkpt>
      <trkpt lat="42.93806" lon="0.28429">
        <ele>1097.1681176068</ele>
        <time>2014-03-28T13:30:43Z</time>
      </trkpt>
      <trkpt lat="42.9381" lon="0.28423">
        <ele>1098.1460619051</ele>
        <time>2014-03-28T13:30:49Z</time>
      </trkpt>
      <trkpt lat="42.93817" lon="0.28416">
        <ele>1098.1460619051</ele>
        <time>2014-03-28T13:30:53Z</time>
      </trkpt>
      <trkpt lat="42.93822" lon="0.28412">
        <ele>1098.7224802807</ele>
        <time>2014-03-28T13:30:58Z</time>
      </trkpt>
      <trkpt lat="42.93827" lon="0.28408">
        <ele>1098.7224802807</ele>
        <time>2014-03-28T13:31:03Z</time>
      </trkpt>
      <trkpt lat="42.93832" lon="0.28402">
        <ele>1098.9901232152</ele>
        <time>2014-03-28T13:31:08Z</time>
      </trkpt>
      <trkpt lat="42.93838" lon="0.28394">
        <ele>1098.9901232152</ele>
        <time>2014-03-28T13:31:13Z</time>
      </trkpt>
      <trkpt lat="42.93842" lon="0.28389">
        <ele>1099.0359159856</ele>
        <time>2014-03-28T13:31:18Z</time>
      </trkpt>
      <trkpt lat="42.93846" lon="0.28384">
        <ele>1099.0359159856</ele>
        <time>2014-03-28T13:31:23Z</time>
      </trkpt>
      <trkpt lat="42.9385" lon="0.28378">
        <ele>1098.8402361205</ele>
        <time>2014-03-28T13:31:28Z</time>
      </trkpt>
      <trkpt lat="42.93855" lon="0.28372">
        <ele>1098.8402361205</ele>
        <time>2014-03-28T13:31:33Z</time>
      </trkpt>
      <trkpt lat="42.93858" lon="0.28368">
        <ele>1098.414466211</ele>
        <time>2014-03-28T13:31:38Z</time>
      </trkpt>
      <trkpt lat="42.93862" lon="0.28363">
        <ele>1098.414466211</ele>
        <time>2014-03-28T13:31:43Z</time>
      </trkpt>
      <trkpt lat="42.93866" lon="0.28355">
        <ele>1097.7265994741</ele>
        <time>2014-03-28T13:31:48Z</time>
      </trkpt>
      <trkpt lat="42.9387" lon="0.28348">
        <ele>1097.7265994741</ele>
        <time>2014-03-28T13:31:53Z</time>
      </trkpt>
      <trkpt lat="42.93874" lon="0.28343">
        <ele>1096.8053655234</ele>
        <time>2014-03-28T13:31:58Z</time>
      </trkpt>
      <trkpt lat="42.93877" lon="0.2834">
        <ele>1096.8053655234</ele>
        <time>2014-03-28T13:32:03Z</time>
      </trkpt>
      <trkpt lat="42.93881" lon="0.28336">
        <ele>1096.8053655234</ele>
        <time>2014-03-28T13:32:08Z</time>
      </trkpt>
      <trkpt lat="42.93882" lon="0.28334">
        <ele>1095.807714943</ele>
        <time>2014-03-28T13:32:15Z</time>
      </trkpt>
      <trkpt lat="42.93885" lon="0.28333">
        <ele>1095.807714943</ele>
        <time>2014-03-28T13:32:18Z</time>
      </trkpt>
      <trkpt lat="42.93887" lon="0.28328">
        <ele>1095.807714943</ele>
        <time>2014-03-28T13:32:23Z</time>
      </trkpt>
      <trkpt lat="42.9389" lon="0.28322">
        <ele>1094.6630649934</ele>
        <time>2014-03-28T13:32:28Z</time>
      </trkpt>
      <trkpt lat="42.93893" lon="0.28317">
        <ele>1094.6630649934</ele>
        <time>2014-03-28T13:32:33Z</time>
      </trkpt>
      <trkpt lat="42.93898" lon="0.28312">
        <ele>1093.4072294171</ele>
        <time>2014-03-28T13:32:38Z</time>
      </trkpt>
      <trkpt lat="42.93901" lon="0.28306">
        <ele>1093.4072294171</ele>
        <time>2014-03-28T13:32:43Z</time>
      </trkpt>
      <trkpt lat="42.93905" lon="0.283">
        <ele>1092.1744763514</ele>
        <time>2014-03-28T13:32:48Z</time>
      </trkpt>
      <trkpt lat="42.93909" lon="0.28295">
        <ele>1092.1744763514</ele>
        <time>2014-03-28T13:32:53Z</time>
      </trkpt>
      <trkpt lat="42.93915" lon="0.28289">
        <ele>1090.9737284625</ele>
        <time>2014-03-28T13:32:58Z</time>
      </trkpt>
      <trkpt lat="42.93918" lon="0.28282">
        <ele>1090.9737284625</ele>
        <time>2014-03-28T13:33:03Z</time>
      </trkpt>
      <trkpt lat="42.93926" lon="0.28276">
        <ele>1089.7986014204</ele>
        <time>2014-03-28T13:33:08Z</time>
      </trkpt>
      <trkpt lat="42.9393" lon="0.28272">
        <ele>1089.7986014204</ele>
        <time>2014-03-28T13:33:14Z</time>
      </trkpt>
      <trkpt lat="42.93936" lon="0.28265">
        <ele>1088.5132371488</ele>
        <time>2014-03-28T13:33:18Z</time>
      </trkpt>
      <trkpt lat="42.93945" lon="0.28257">
        <ele>1087.3089226549</ele>
        <time>2014-03-28T13:33:23Z</time>
      </trkpt>
      <trkpt lat="42.9395" lon="0.28251">
        <ele>1087.3089226549</ele>
        <time>2014-03-28T13:33:27Z</time>
      </trkpt>
      <trkpt lat="42.93956" lon="0.28243">
        <ele>1086.1318830861</ele>
        <time>2014-03-28T13:33:33Z</time>
      </trkpt>
      <trkpt lat="42.93963" lon="0.28234">
        <ele>1084.9752317876</ele>
        <time>2014-03-28T13:33:38Z</time>
      </trkpt>
      <trkpt lat="42.93971" lon="0.28221">
        <ele>1083.7746550685</ele>
        <time>2014-03-28T13:33:43Z</time>
      </trkpt>
      <trkpt lat="42.93976" lon="0.28211">
        <ele>1082.5569117474</ele>
        <time>2014-03-28T13:33:48Z</time>
      </trkpt>
      <trkpt lat="42.93983" lon="0.282">
        <ele>1081.3321810318</ele>
        <time>2014-03-28T13:33:53Z</time>
      </trkpt>
      <trkpt lat="42.9399" lon="0.28185">
        <ele>1080.0520106895</ele>
        <time>2014-03-28T13:33:58Z</time>
      </trkpt>
      <trkpt lat="42.93996" lon="0.28173">
        <ele>1078.8010979168</ele>
        <time>2014-03-28T13:34:03Z</time>
      </trkpt>
      <trkpt lat="42.94005" lon="0.28158">
        <ele>1077.5710985394</ele>
        <time>2014-03-28T13:34:08Z</time>
      </trkpt>
      <trkpt lat="42.94019" lon="0.2814">
        <ele>1076.3107143081</ele>
        <time>2014-03-28T13:34:13Z</time>
      </trkpt>
      <trkpt lat="42.94038" lon="0.28123">
        <ele>1075.0731003061</ele>
        <time>2014-03-28T13:34:18Z</time>
      </trkpt>
      <trkpt lat="42.94059" lon="0.28109">
        <ele>1073.8927519959</ele>
        <time>2014-03-28T13:34:23Z</time>
      </trkpt>
      <trkpt lat="42.94077" lon="0.28098">
        <ele>1072.7435451318</ele>
        <time>2014-03-28T13:34:28Z</time>
      </trkpt>
      <trkpt lat="42.94096" lon="0.28087">
        <ele>1071.6585515526</ele>
        <time>2014-03-28T13:34:33Z</time>
      </trkpt>
      <trkpt lat="42.94109" lon="0.28079">
        <ele>1070.6679551838</ele>
        <time>2014-03-28T13:34:38Z</time>
      </trkpt>
      <trkpt lat="42.94125" lon="0.28071">
        <ele>1069.7703602979</ele>
        <time>2014-03-28T13:34:43Z</time>
      </trkpt>
      <trkpt lat="42.94146" lon="0.28061">
        <ele>1069.2665757358</ele>
        <time>2014-03-28T13:34:48Z</time>
      </trkpt>
      <trkpt lat="42.94165" lon="0.28051">
        <ele>1068.9727887101</ele>
        <time>2014-03-28T13:34:53Z</time>
      </trkpt>
      <trkpt lat="42.94179" lon="0.28042">
        <ele>1068.7754891541</ele>
        <time>2014-03-28T13:34:58Z</time>
      </trkpt>
      <trkpt lat="42.94201" lon="0.28034">
        <ele>1068.9292678946</ele>
        <time>2014-03-28T13:35:03Z</time>
      </trkpt>
      <trkpt lat="42.94215" lon="0.28026">
        <ele>1069.3085187723</ele>
        <time>2014-03-28T13:35:08Z</time>
      </trkpt>
      <trkpt lat="42.94219" lon="0.28021">
        <ele>1069.3085187723</ele>
        <time>2014-03-28T13:35:13Z</time>
      </trkpt>
      <trkpt lat="42.94222" lon="0.28016">
        <ele>1069.7383674614</ele>
        <time>2014-03-28T13:35:18Z</time>
      </trkpt>
      <trkpt lat="42.94229" lon="0.28011">
        <ele>1069.7383674614</ele>
        <time>2014-03-28T13:35:23Z</time>
      </trkpt>
      <trkpt lat="42.94235" lon="0.28006">
        <ele>1070.1717295783</ele>
        <time>2014-03-28T13:35:28Z</time>
      </trkpt>
      <trkpt lat="42.9424" lon="0.28002">
        <ele>1070.1717295783</ele>
        <time>2014-03-28T13:35:33Z</time>
      </trkpt>
      <trkpt lat="42.94243" lon="0.27995">
        <ele>1070.5791929689</ele>
        <time>2014-03-28T13:35:38Z</time>
      </trkpt>
      <trkpt lat="42.94245" lon="0.27991">
        <ele>1070.5791929689</ele>
        <time>2014-03-28T13:35:43Z</time>
      </trkpt>
      <trkpt lat="42.94246" lon="0.27986">
        <ele>1070.5791929689</ele>
        <time>2014-03-28T13:35:48Z</time>
      </trkpt>
      <trkpt lat="42.94244" lon="0.27984">
        <ele>1071.0342839752</ele>
        <time>2014-03-28T13:35:53Z</time>
      </trkpt>
      <trkpt lat="42.94242" lon="0.27978">
        <ele>1071.0342839752</ele>
        <time>2014-03-28T13:35:58Z</time>
      </trkpt>
      <trkpt lat="42.94241" lon="0.27972">
        <ele>1071.4463138906</ele>
        <time>2014-03-28T13:36:03Z</time>
      </trkpt>
      <trkpt lat="42.94242" lon="0.27961">
        <ele>1071.4463138906</ele>
        <time>2014-03-28T13:36:08Z</time>
      </trkpt>
      <trkpt lat="42.94244" lon="0.27956">
        <ele>1071.7744659737</ele>
        <time>2014-03-28T13:36:13Z</time>
      </trkpt>
      <trkpt lat="42.94248" lon="0.27953">
        <ele>1071.7744659737</ele>
        <time>2014-03-28T13:36:18Z</time>
      </trkpt>
      <trkpt lat="42.9425" lon="0.27953">
        <ele>1071.7744659737</ele>
        <time>2014-03-28T13:36:23Z</time>
      </trkpt>
      <trkpt lat="42.94252" lon="0.27946">
        <ele>1071.966614753</ele>
        <time>2014-03-28T13:36:28Z</time>
      </trkpt>
      <trkpt lat="42.94253" lon="0.27944">
        <ele>1071.966614753</ele>
        <time>2014-03-28T13:36:33Z</time>
      </trkpt>
      <trkpt lat="42.94253" lon="0.27942">
        <ele>1071.966614753</ele>
        <time>2014-03-28T13:36:38Z</time>
      </trkpt>
      <trkpt lat="42.94262" lon="0.2795">
        <ele>1072.9979167217</ele>
        <time>2014-03-28T13:38:08Z</time>
      </trkpt>
      <trkpt lat="42.94264" lon="0.27952">
        <ele>1072.9979167217</ele>
        <time>2014-03-28T13:38:13Z</time>
      </trkpt>
      <trkpt lat="42.94264" lon="0.27951">
        <ele>1072.9979167217</ele>
        <time>2014-03-28T13:38:18Z</time>
      </trkpt>
      <trkpt lat="42.94258" lon="0.27943">
        <ele>1074.1842126588</ele>
        <time>2014-03-28T13:40:13Z</time>
      </trkpt>
      <trkpt lat="42.94257" lon="0.27943">
        <ele>1074.1842126588</ele>
        <time>2014-03-28T13:40:17Z</time>
      </trkpt>
      <trkpt lat="42.94256" lon="0.27946">
        <ele>1074.1842126588</ele>
        <time>2014-03-28T13:40:22Z</time>
      </trkpt>
    </trkseg>
  </trk>
</gpx>